Wetterdaten: Mittwoch, 06.02.2019
Datum Zeit Temperatur Temp. +5 cm Temp. -10 cm Feuchte A. Luftdruck Regen Wind Richtung Richtung Zeit Sonne ET UV-I Solarstrahlg Taupunkt Windchill Windben
06.02.2019 00:00 2,2 C 1,1 C 1,1 C 87 % 1029,5 hPa 0,0 l/m 0,5 km/h (0 Bft) SW 235 0 min 0,000 mm 0,0 UV-I 0 W/m 0,3 C 2,2 C 3,2 km/h (1 Bft)
06.02.2019 00:02 2,2 C 1,1 C 1,1 C 87 % 1029,5 hPa 0,0 l/m 0,4 km/h (0 Bft) SW 235 0 min 0,000 mm 0,0 UV-I 0 W/m 0,3 C 2,2 C 3,2 km/h (1 Bft)
06.02.2019 00:04 2,2 C 1,1 C 1,1 C 87 % 1029,5 hPa 0,0 l/m 1,2 km/h (1 Bft) SW 235 0 min 0,000 mm 0,0 UV-I 0 W/m 0,3 C 2,2 C 4,8 km/h (1 Bft)
06.02.2019 00:06 2,2 C 1,1 C 1,1 C 87 % 1029,5 hPa 0,0 l/m 0,7 km/h (0 Bft) SW 235 0 min 0,000 mm 0,0 UV-I 0 W/m 0,3 C 2,2 C 6,4 km/h (2 Bft)
06.02.2019 00:08 2,1 C 1,1 C 1,1 C 87 % 1029,5 hPa 0,0 l/m 2,7 km/h (1 Bft) SW 235 0 min 0,000 mm 0,0 UV-I 0 W/m 0,2 C 2,1 C 8,0 km/h (2 Bft)
06.02.2019 00:10 2,1 C 1,1 C 1,1 C 87 % 1029,5 hPa 0,0 l/m 0,0 km/h (0 Bft) SW 235 0 min 0,000 mm 0,0 UV-I 0 W/m 0,2 C 2,1 C 0,0 km/h (0 Bft)
06.02.2019 00:12 2,1 C 1,1 C 1,1 C 87 % 1029,5 hPa 0,0 l/m 0,0 km/h (0 Bft) SW 235 0 min 0,000 mm 0,0 UV-I 0 W/m 0,2 C 2,1 C 0,0 km/h (0 Bft)
06.02.2019 00:14 2,1 C 1,1 C 1,1 C 87 % 1029,5 hPa 0,0 l/m 2,0 km/h (1 Bft) SW 216 0 min 0,000 mm 0,0 UV-I 0 W/m 0,2 C 2,1 C 9,7 km/h (2 Bft)
06.02.2019 00:16 2,1 C 1,1 C 1,1 C 87 % 1029,5 hPa 0,0 l/m 1,8 km/h (1 Bft) SW 215 0 min 0,000 mm 0,0 UV-I 0 W/m 0,2 C 2,1 C 6,4 km/h (2 Bft)
06.02.2019 00:18 2,1 C 1,1 C 1,1 C 87 % 1029,5 hPa 0,0 l/m 3,4 km/h (1 Bft) SW 216 0 min 0,000 mm 0,0 UV-I 0 W/m 0,2 C 2,1 C 6,4 km/h (2 Bft)
06.02.2019 00:20 2,1 C 1,1 C 1,1 C 87 % 1029,5 hPa 0,0 l/m 1,1 km/h (1 Bft) SW 216 0 min 0,000 mm 0,0 UV-I 0 W/m 0,2 C 2,1 C 4,8 km/h (1 Bft)
06.02.2019 00:22 2,1 C 1,1 C 1,1 C 87 % 1029,5 hPa 0,0 l/m 0,9 km/h (0 Bft) SW 217 0 min 0,000 mm 0,0 UV-I 0 W/m 0,2 C 2,1 C 4,8 km/h (1 Bft)
06.02.2019 00:24 2,1 C 1,1 C 1,1 C 87 % 1029,5 hPa 0,0 l/m 1,0 km/h (0 Bft) SW 217 0 min 0,000 mm 0,0 UV-I 0 W/m 0,2 C 2,1 C 4,8 km/h (1 Bft)
06.02.2019 00:26 2,1 C 1,1 C 1,1 C 87 % 1029,5 hPa 0,0 l/m 0,6 km/h (0 Bft) SW 217 0 min 0,000 mm 0,0 UV-I 0 W/m 0,2 C 2,1 C 4,8 km/h (1 Bft)
06.02.2019 00:28 2,1 C 1,1 C 1,1 C 87 % 1029,5 hPa 0,0 l/m 2,3 km/h (1 Bft) SW 217 0 min 0,000 mm 0,0 UV-I 0 W/m 0,2 C 2,1 C 4,8 km/h (1 Bft)
06.02.2019 00:30 2,0 C 1,1 C 1,1 C 87 % 1029,5 hPa 0,0 l/m 4,0 km/h (1 Bft) SW 222 0 min 0,000 mm 0,0 UV-I 0 W/m 0,1 C 2,0 C 8,0 km/h (2 Bft)
06.02.2019 00:32 2,0 C 1,1 C 1,1 C 87 % 1029,5 hPa 0,0 l/m 2,3 km/h (1 Bft) SW 225 0 min 0,000 mm 0,0 UV-I 0 W/m 0,1 C 2,0 C 8,0 km/h (2 Bft)
06.02.2019 00:34 2,0 C 1,1 C 1,1 C 87 % 1029,5 hPa 0,0 l/m 2,0 km/h (1 Bft) SW 225 0 min 0,000 mm 0,0 UV-I 0 W/m 0,1 C 2,0 C 6,4 km/h (2 Bft)
06.02.2019 00:36 2,0 C 0,6 C 1,1 C 87 % 1029,4 hPa 0,0 l/m 2,4 km/h (1 Bft) SW 225 0 min 0,000 mm 0,0 UV-I 0 W/m 0,1 C 2,0 C 4,8 km/h (1 Bft)
06.02.2019 00:38 1,9 C 0,6 C 1,1 C 87 % 1029,4 hPa 0,0 l/m 0,3 km/h (0 Bft) SW 225 0 min 0,000 mm 0,0 UV-I 0 W/m -0,0 C 1,9 C 3,2 km/h (1 Bft)
06.02.2019 00:40 1,9 C 0,6 C 1,1 C 87 % 1029,4 hPa 0,0 l/m 2,4 km/h (1 Bft) SW 223 0 min 0,000 mm 0,0 UV-I 0 W/m -0,0 C 1,9 C 6,4 km/h (2 Bft)
06.02.2019 00:42 1,9 C 0,0 C 1,1 C 87 % 1029,5 hPa 0,0 l/m 2,5 km/h (1 Bft) SW 223 0 min 0,000 mm 0,0 UV-I 0 W/m -0,0 C 1,9 C 4,8 km/h (1 Bft)
06.02.2019 00:44 1,9 C 0,0 C 1,1 C 87 % 1029,5 hPa 0,0 l/m 1,6 km/h (1 Bft) SW 224 0 min 0,000 mm 0,0 UV-I 0 W/m -0,0 C 1,9 C 6,4 km/h (2 Bft)
06.02.2019 00:46 1,8 C 0,0 C 1,1 C 87 % 1029,5 hPa 0,0 l/m 5,1 km/h (1 Bft) SW 235 0 min 0,000 mm 0,0 UV-I 0 W/m -0,1 C 0,4 C 9,7 km/h (2 Bft)
06.02.2019 00:48 1,8 C 0,0 C 1,1 C 87 % 1029,5 hPa 0,0 l/m 4,9 km/h (1 Bft) SW 233 0 min 0,000 mm 0,0 UV-I 0 W/m -0,1 C 0,5 C 9,7 km/h (2 Bft)
06.02.2019 00:50 1,8 C 0,6 C 1,1 C 87 % 1029,5 hPa 0,0 l/m 2,6 km/h (1 Bft) SW 232 0 min 0,000 mm 0,0 UV-I 0 W/m -0,1 C 1,8 C 6,4 km/h (2 Bft)
06.02.2019 00:52 1,8 C 0,6 C 1,1 C 87 % 1029,5 hPa 0,0 l/m 3,2 km/h (1 Bft) SW 229 0 min 0,000 mm 0,0 UV-I 0 W/m -0,1 C 1,8 C 9,7 km/h (2 Bft)
06.02.2019 00:54 1,7 C 0,6 C 1,1 C 87 % 1029,4 hPa 0,0 l/m 1,8 km/h (1 Bft) SW 225 0 min 0,000 mm 0,0 UV-I 0 W/m -0,2 C 1,7 C 9,7 km/h (2 Bft)
06.02.2019 00:56 1,7 C 1,1 C 1,1 C 87 % 1029,5 hPa 0,0 l/m 3,8 km/h (1 Bft) SW 227 0 min 0,000 mm 0,0 UV-I 0 W/m -0,2 C 1,7 C 8,0 km/h (2 Bft)
06.02.2019 00:58 1,7 C 1,1 C 1,1 C 87 % 1029,5 hPa 0,0 l/m 1,5 km/h (1 Bft) SW 227 0 min 0,000 mm 0,0 UV-I 0 W/m -0,2 C 1,7 C 4,8 km/h (1 Bft)
06.02.2019 01:00 1,7 C 1,1 C 1,1 C 87 % 1029,5 hPa 0,0 l/m 2,8 km/h (1 Bft) SW 227 0 min 0,000 mm 0,0 UV-I 0 W/m -0,2 C 1,7 C 8,0 km/h (2 Bft)
06.02.2019 01:02 1,7 C 1,1 C 1,1 C 87 % 1029,5 hPa 0,0 l/m 3,2 km/h (1 Bft) SW 227 0 min 0,000 mm 0,0 UV-I 0 W/m -0,2 C 1,7 C 6,4 km/h (2 Bft)
06.02.2019 01:04 1,7 C 1,1 C 1,1 C 87 % 1029,6 hPa 0,0 l/m 0,5 km/h (0 Bft) SW 227 0 min 0,000 mm 0,0 UV-I 0 W/m -0,2 C 1,7 C 4,8 km/h (1 Bft)
06.02.2019 01:06 1,7 C 1,1 C 1,1 C 87 % 1029,5 hPa 0,0 l/m 4,4 km/h (1 Bft) SW 223 0 min 0,000 mm 0,0 UV-I 0 W/m -0,2 C 1,7 C 8,0 km/h (2 Bft)
06.02.2019 01:08 1,7 C 1,1 C 1,1 C 87 % 1029,5 hPa 0,0 l/m 4,4 km/h (1 Bft) SW 224 0 min 0,000 mm 0,0 UV-I 0 W/m -0,2 C 1,7 C 6,4 km/h (2 Bft)
06.02.2019 01:10 1,7 C 1,1 C 1,1 C 87 % 1029,6 hPa 0,0 l/m 4,5 km/h (1 Bft) SW 232 0 min 0,000 mm 0,0 UV-I 0 W/m -0,2 C 1,7 C 8,0 km/h (2 Bft)
06.02.2019 01:12 1,7 C 1,1 C 1,1 C 87 % 1029,5 hPa 0,0 l/m 1,5 km/h (1 Bft) SW 232 0 min 0,000 mm 0,0 UV-I 0 W/m -0,2 C 1,7 C 6,4 km/h (2 Bft)
06.02.2019 01:14 1,7 C 1,1 C 1,1 C 87 % 1029,5 hPa 0,0 l/m 1,7 km/h (1 Bft) SW 232 0 min 0,000 mm 0,0 UV-I 0 W/m -0,2 C 1,7 C 6,4 km/h (2 Bft)
06.02.2019 01:16 1,7 C 1,1 C 1,1 C 88 % 1029,6 hPa 0,0 l/m 3,9 km/h (1 Bft) SW 231 0 min 0,000 mm 0,0 UV-I 0 W/m -0,1 C 1,7 C 8,0 km/h (2 Bft)
06.02.2019 01:18 1,7 C 1,1 C 1,1 C 88 % 1029,6 hPa 0,0 l/m 0,8 km/h (0 Bft) SW 231 0 min 0,000 mm 0,0 UV-I 0 W/m -0,1 C 1,7 C 3,2 km/h (1 Bft)
06.02.2019 01:20 1,7 C 1,1 C 1,1 C 88 % 1029,6 hPa 0,0 l/m 4,5 km/h (1 Bft) SW 234 0 min 0,000 mm 0,0 UV-I 0 W/m -0,1 C 1,7 C 6,4 km/h (2 Bft)
06.02.2019 01:22 1,7 C 1,1 C 1,1 C 88 % 1029,5 hPa 0,0 l/m 2,0 km/h (1 Bft) SW 235 0 min 0,000 mm 0,0 UV-I 0 W/m -0,1 C 1,7 C 8,0 km/h (2 Bft)
06.02.2019 01:24 1,7 C 1,1 C 1,1 C 88 % 1029,6 hPa 0,0 l/m 2,5 km/h (1 Bft) SW 222 0 min 0,000 mm 0,0 UV-I 0 W/m -0,1 C 1,7 C 8,0 km/h (2 Bft)
06.02.2019 01:26 1,7 C 1,1 C 1,1 C 88 % 1029,5 hPa 0,0 l/m 2,1 km/h (1 Bft) SW 223 0 min 0,000 mm 0,0 UV-I 0 W/m -0,1 C 1,7 C 6,4 km/h (2 Bft)
06.02.2019 01:28 1,7 C 1,1 C 1,1 C 88 % 1029,5 hPa 0,0 l/m 0,2 km/h (0 Bft) SW 223 0 min 0,000 mm 0,0 UV-I 0 W/m -0,1 C 1,7 C 3,2 km/h (1 Bft)
06.02.2019 01:30 1,7 C 1,1 C 1,1 C 88 % 1029,6 hPa 0,0 l/m 0,9 km/h (0 Bft) SW 223 0 min 0,000 mm 0,0 UV-I 0 W/m -0,1 C 1,7 C 6,4 km/h (2 Bft)
06.02.2019 01:32 1,7 C 1,1 C 1,1 C 88 % 1029,6 hPa 0,0 l/m 0,2 km/h (0 Bft) SW 223 0 min 0,000 mm 0,0 UV-I 0 W/m -0,1 C 1,7 C 4,8 km/h (1 Bft)
06.02.2019 01:34 1,7 C 1,1 C 1,1 C 88 % 1029,6 hPa 0,0 l/m 0,0 km/h (0 Bft) SW 223 0 min 0,000 mm 0,0 UV-I 0 W/m -0,1 C 1,7 C 0,0 km/h (0 Bft)
06.02.2019 01:36 1,7 C 1,1 C 1,1 C 88 % 1029,6 hPa 0,0 l/m 0,0 km/h (0 Bft) SW 223 0 min 0,000 mm 0,0 UV-I 0 W/m -0,1 C 1,7 C 0,0 km/h (0 Bft)
06.02.2019 01:38 1,7 C 1,1 C 1,1 C 88 % 1029,6 hPa 0,0 l/m 0,0 km/h (0 Bft) SW 223 0 min 0,000 mm 0,0 UV-I 0 W/m -0,1 C 1,7 C 0,0 km/h (0 Bft)
06.02.2019 01:40 1,7 C 1,1 C 1,1 C 88 % 1029,6 hPa 0,0 l/m 0,0 km/h (0 Bft) SW 223 0 min 0,000 mm 0,0 UV-I 0 W/m -0,1 C 1,7 C 0,0 km/h (0 Bft)
06.02.2019 01:42 1,7 C 1,1 C 1,1 C 88 % 1029,5 hPa 0,0 l/m 0,0 km/h (0 Bft) SW 223 0 min 0,000 mm 0,0 UV-I 0 W/m -0,1 C 1,7 C 0,0 km/h (0 Bft)
06.02.2019 01:44 1,6 C 1,1 C 1,1 C 88 % 1029,5 hPa 0,0 l/m 0,0 km/h (0 Bft) SW 223 0 min 0,000 mm 0,0 UV-I 0 W/m -0,2 C 1,6 C 0,0 km/h (0 Bft)
06.02.2019 01:46 1,6 C 1,1 C 1,1 C 88 % 1029,4 hPa 0,0 l/m 0,0 km/h (0 Bft) SW 223 0 min 0,000 mm 0,0 UV-I 0 W/m -0,2 C 1,6 C 0,0 km/h (0 Bft)
06.02.2019 01:48 1,7 C 1,1 C 1,1 C 88 % 1029,4 hPa 0,0 l/m 0,0 km/h (0 Bft) SW 223 0 min 0,000 mm 0,0 UV-I 0 W/m -0,1 C 1,7 C 0,0 km/h (0 Bft)
06.02.2019 01:50 1,7 C 1,1 C 1,1 C 88 % 1029,4 hPa 0,0 l/m 0,0 km/h (0 Bft) SW 223 0 min 0,000 mm 0,0 UV-I 0 W/m -0,1 C 1,7 C 0,0 km/h (0 Bft)
06.02.2019 01:52 1,7 C 1,1 C 1,1 C 88 % 1029,5 hPa 0,0 l/m 0,0 km/h (0 Bft) SW 223 0 min 0,000 mm 0,0 UV-I 0 W/m -0,1 C 1,7 C 0,0 km/h (0 Bft)
06.02.2019 01:54 1,7 C 1,1 C 1,1 C 88 % 1029,5 hPa 0,0 l/m 0,0 km/h (0 Bft) SW 223 0 min 0,000 mm 0,0 UV-I 0 W/m -0,1 C 1,7 C 0,0 km/h (0 Bft)
06.02.2019 01:56 1,7 C 1,1 C 1,1 C 88 % 1029,5 hPa 0,0 l/m 3,0 km/h (1 Bft) SW 221 0 min 0,000 mm 0,0 UV-I 0 W/m -0,1 C 1,7 C 6,4 km/h (2 Bft)
06.02.2019 01:58 1,7 C 1,1 C 1,1 C 88 % 1029,5 hPa 0,0 l/m 1,0 km/h (0 Bft) SW 221 0 min 0,000 mm 0,0 UV-I 0 W/m -0,1 C 1,7 C 6,4 km/h (2 Bft)
06.02.2019 02:00 1,7 C 1,1 C 1,1 C 88 % 1029,5 hPa 0,0 l/m 2,1 km/h (1 Bft) SW 222 0 min 0,000 mm 0,0 UV-I 0 W/m -0,1 C 1,7 C 6,4 km/h (2 Bft)
06.02.2019 02:02 1,7 C 1,1 C 1,1 C 88 % 1029,4 hPa 0,0 l/m 2,4 km/h (1 Bft) SW 222 0 min 0,000 mm 0,0 UV-I 0 W/m -0,1 C 1,7 C 6,4 km/h (2 Bft)
06.02.2019 02:04 1,7 C 1,1 C 1,1 C 88 % 1029,5 hPa 0,0 l/m 2,4 km/h (1 Bft) SW 223 0 min 0,000 mm 0,0 UV-I 0 W/m -0,1 C 1,7 C 6,4 km/h (2 Bft)
06.02.2019 02:06 1,7 C 1,1 C 1,1 C 88 % 1029,4 hPa 0,0 l/m 4,5 km/h (1 Bft) SW 223 0 min 0,000 mm 0,0 UV-I 0 W/m -0,1 C 1,7 C 8,0 km/h (2 Bft)
06.02.2019 02:08 1,7 C 1,1 C 1,1 C 88 % 1029,4 hPa 0,0 l/m 2,7 km/h (1 Bft) SW 223 0 min 0,000 mm 0,0 UV-I 0 W/m -0,1 C 1,7 C 6,4 km/h (2 Bft)
06.02.2019 02:10 1,7 C 1,1 C 1,1 C 88 % 1029,4 hPa 0,0 l/m 0,3 km/h (0 Bft) SW 223 0 min 0,000 mm 0,0 UV-I 0 W/m -0,1 C 1,7 C 3,2 km/h (1 Bft)
06.02.2019 02:12 1,7 C 1,1 C 1,1 C 88 % 1029,4 hPa 0,0 l/m 1,1 km/h (1 Bft) SW 223 0 min 0,000 mm 0,0 UV-I 0 W/m -0,1 C 1,7 C 4,8 km/h (1 Bft)
06.02.2019 02:14 1,7 C 1,1 C 1,1 C 88 % 1029,4 hPa 0,0 l/m 2,7 km/h (1 Bft) SW 222 0 min 0,000 mm 0,0 UV-I 0 W/m -0,1 C 1,7 C 6,4 km/h (2 Bft)
06.02.2019 02:16 1,7 C 1,1 C 1,1 C 88 % 1029,4 hPa 0,0 l/m 0,7 km/h (0 Bft) SW 221 0 min 0,000 mm 0,0 UV-I 0 W/m -0,1 C 1,7 C 4,8 km/h (1 Bft)
06.02.2019 02:18 1,7 C 1,1 C 1,1 C 88 % 1029,4 hPa 0,0 l/m 1,3 km/h (1 Bft) SW 221 0 min 0,000 mm 0,0 UV-I 0 W/m -0,1 C 1,7 C 6,4 km/h (2 Bft)
06.02.2019 02:20 1,7 C 1,1 C 1,1 C 88 % 1029,4 hPa 0,0 l/m 2,8 km/h (1 Bft) SW 221 0 min 0,000 mm 0,0 UV-I 0 W/m -0,1 C 1,7 C 4,8 km/h (1 Bft)
06.02.2019 02:22 1,7 C 1,1 C 1,1 C 88 % 1029,3 hPa 0,0 l/m 2,2 km/h (1 Bft) SW 221 0 min 0,000 mm 0,0 UV-I 0 W/m -0,1 C 1,7 C 4,8 km/h (1 Bft)
06.02.2019 02:24 1,7 C 1,1 C 1,1 C 88 % 1029,3 hPa 0,0 l/m 1,2 km/h (1 Bft) SW 220 0 min 0,000 mm 0,0 UV-I 0 W/m -0,1 C 1,7 C 6,4 km/h (2 Bft)
06.02.2019 02:26 1,7 C 1,1 C 1,1 C 88 % 1029,3 hPa 0,0 l/m 0,2 km/h (0 Bft) SW 220 0 min 0,000 mm 0,0 UV-I 0 W/m -0,1 C 1,7 C 3,2 km/h (1 Bft)
06.02.2019 02:28 1,7 C 1,1 C 1,1 C 88 % 1029,3 hPa 0,0 l/m 0,0 km/h (0 Bft) SW 220 0 min 0,000 mm 0,0 UV-I 0 W/m -0,1 C 1,7 C 0,0 km/h (0 Bft)
06.02.2019 02:30 1,7 C 1,1 C 1,1 C 88 % 1029,2 hPa 0,0 l/m 3,1 km/h (1 Bft) SW 219 0 min 0,000 mm 0,0 UV-I 0 W/m -0,1 C 1,7 C 6,4 km/h (2 Bft)
06.02.2019 02:32 1,7 C 1,1 C 1,1 C 88 % 1029,2 hPa 0,0 l/m 1,1 km/h (1 Bft) SW 219 0 min 0,000 mm 0,0 UV-I 0 W/m -0,1 C 1,7 C 4,8 km/h (1 Bft)
06.02.2019 02:34 1,7 C 1,1 C 1,1 C 88 % 1029,2 hPa 0,0 l/m 1,8 km/h (1 Bft) SW 219 0 min 0,000 mm 0,0 UV-I 0 W/m -0,1 C 1,7 C 8,0 km/h (2 Bft)
06.02.2019 02:36 1,7 C 1,1 C 1,1 C 88 % 1029,2 hPa 0,0 l/m 0,0 km/h (0 Bft) SW 220 0 min 0,000 mm 0,0 UV-I 0 W/m -0,1 C 1,7 C 0,0 km/h (0 Bft)
06.02.2019 02:38 1,7 C 1,1 C 1,1 C 88 % 1029,2 hPa 0,0 l/m 0,0 km/h (0 Bft) SW 220 0 min 0,000 mm 0,0 UV-I 0 W/m -0,1 C 1,7 C 0,0 km/h (0 Bft)
06.02.2019 02:40 1,7 C 0,6 C 1,1 C 88 % 1029,3 hPa 0,0 l/m 0,0 km/h (0 Bft) SW 220 0 min 0,000 mm 0,0 UV-I 0 W/m -0,1 C 1,7 C 0,0 km/h (0 Bft)
06.02.2019 02:42 1,7 C 0,6 C 1,1 C 88 % 1029,3 hPa 0,0 l/m 3,0 km/h (1 Bft) SW 219 0 min 0,000 mm 0,0 UV-I 0 W/m -0,1 C 1,7 C 8,0 km/h (2 Bft)
06.02.2019 02:44 1,7 C 0,6 C 1,1 C 88 % 1029,2 hPa 0,0 l/m 1,4 km/h (1 Bft) SW 219 0 min 0,000 mm 0,0 UV-I 0 W/m -0,1 C 1,7 C 8,0 km/h (2 Bft)
06.02.2019 02:46 1,7 C 0,6 C 1,1 C 88 % 1029,2 hPa 0,0 l/m 1,6 km/h (1 Bft) SW 219 0 min 0,000 mm 0,0 UV-I 0 W/m -0,1 C 1,7 C 6,4 km/h (2 Bft)
06.02.2019 02:48 1,6 C 0,6 C 1,1 C 88 % 1029,3 hPa 0,0 l/m 0,0 km/h (0 Bft) SW 219 0 min 0,000 mm 0,0 UV-I 0 W/m -0,2 C 1,6 C 0,0 km/h (0 Bft)
06.02.2019 02:50 1,6 C 0,6 C 1,1 C 88 % 1029,3 hPa 0,0 l/m 0,3 km/h (0 Bft) SW 219 0 min 0,000 mm 0,0 UV-I 0 W/m -0,2 C 1,6 C 6,4 km/h (2 Bft)
06.02.2019 02:52 1,6 C 0,0 C 1,1 C 88 % 1029,3 hPa 0,0 l/m 3,0 km/h (1 Bft) SW 219 0 min 0,000 mm 0,0 UV-I 0 W/m -0,2 C 1,6 C 6,4 km/h (2 Bft)
06.02.2019 02:54 1,6 C 0,6 C 1,1 C 88 % 1029,3 hPa 0,0 l/m 2,7 km/h (1 Bft) SW 219 0 min 0,000 mm 0,0 UV-I 0 W/m -0,2 C 1,6 C 6,4 km/h (2 Bft)
06.02.2019 02:56 1,6 C 0,6 C 1,1 C 88 % 1029,2 hPa 0,0 l/m 1,6 km/h (1 Bft) SW 219 0 min 0,000 mm 0,0 UV-I 0 W/m -0,2 C 1,6 C 4,8 km/h (1 Bft)
06.02.2019 02:58 1,6 C 0,6 C 1,1 C 88 % 1029,2 hPa 0,0 l/m 1,5 km/h (1 Bft) SW 219 0 min 0,000 mm 0,0 UV-I 0 W/m -0,2 C 1,6 C 4,8 km/h (1 Bft)
06.02.2019 03:00 1,6 C 0,0 C 1,1 C 88 % 1029,2 hPa 0,0 l/m 2,2 km/h (1 Bft) SW 218 0 min 0,000 mm 0,0 UV-I 0 W/m -0,2 C 1,6 C 4,8 km/h (1 Bft)
06.02.2019 03:02 1,5 C 0,0 C 1,1 C 88 % 1029,2 hPa 0,0 l/m 3,2 km/h (1 Bft) SW 218 0 min 0,000 mm 0,0 UV-I 0 W/m -0,3 C 1,5 C 6,4 km/h (2 Bft)
06.02.2019 03:04 1,5 C 0,0 C 1,1 C 88 % 1029,2 hPa 0,0 l/m 0,3 km/h (0 Bft) SW 218 0 min 0,000 mm 0,0 UV-I 0 W/m -0,3 C 1,5 C 3,2 km/h (1 Bft)
06.02.2019 03:06 1,4 C -0,6 C 1,1 C 88 % 1029,2 hPa 0,0 l/m 0,1 km/h (0 Bft) SW 218 0 min 0,000 mm 0,0 UV-I 0 W/m -0,4 C 1,4 C 1,6 km/h (1 Bft)
06.02.2019 03:08 1,4 C -1,1 C 1,1 C 88 % 1029,2 hPa 0,0 l/m 0,0 km/h (0 Bft) SW 218 0 min 0,000 mm 0,0 UV-I 0 W/m -0,4 C 1,4 C 0,0 km/h (0 Bft)
06.02.2019 03:10 1,4 C -1,1 C 1,1 C 88 % 1029,2 hPa 0,0 l/m 0,1 km/h (0 Bft) SW 218 0 min 0,000 mm 0,0 UV-I 0 W/m -0,4 C 1,4 C 1,6 km/h (1 Bft)
06.02.2019 03:12 1,4 C -1,7 C 1,1 C 88 % 1029,2 hPa 0,0 l/m 0,6 km/h (0 Bft) SW 218 0 min 0,000 mm 0,0 UV-I 0 W/m -0,4 C 1,4 C 4,8 km/h (1 Bft)
06.02.2019 03:14 1,4 C -1,7 C 1,1 C 88 % 1029,2 hPa 0,0 l/m 1,0 km/h (0 Bft) SW 218 0 min 0,000 mm 0,0 UV-I 0 W/m -0,4 C 1,4 C 6,4 km/h (2 Bft)
06.02.2019 03:16 1,3 C -1,7 C 1,1 C 88 % 1029,2 hPa 0,0 l/m 0,3 km/h (0 Bft) SW 218 0 min 0,000 mm 0,0 UV-I 0 W/m -0,5 C 1,3 C 3,2 km/h (1 Bft)
06.02.2019 03:18 1,3 C -1,7 C 1,1 C 88 % 1029,1 hPa 0,0 l/m 2,3 km/h (1 Bft) SW 218 0 min 0,000 mm 0,0 UV-I 0 W/m -0,5 C 1,3 C 4,8 km/h (1 Bft)
06.02.2019 03:20 1,3 C -1,1 C 1,1 C 88 % 1029,2 hPa 0,0 l/m 1,5 km/h (1 Bft) SW 218 0 min 0,000 mm 0,0 UV-I 0 W/m -0,5 C 1,3 C 6,4 km/h (2 Bft)
06.02.2019 03:22 1,2 C -1,7 C 1,1 C 88 % 1029,1 hPa 0,0 l/m 4,4 km/h (1 Bft) SW 217 0 min 0,000 mm 0,0 UV-I 0 W/m -0,6 C 1,2 C 8,0 km/h (2 Bft)
06.02.2019 03:24 1,1 C -1,1 C 1,1 C 88 % 1029,1 hPa 0,0 l/m 1,4 km/h (1 Bft) SW 217 0 min 0,000 mm 0,0 UV-I 0 W/m -0,7 C 1,1 C 4,8 km/h (1 Bft)
06.02.2019 03:26 1,1 C -1,1 C 1,1 C 88 % 1029,1 hPa 0,0 l/m 1,8 km/h (1 Bft) SW 217 0 min 0,000 mm 0,0 UV-I 0 W/m -0,7 C 1,1 C 4,8 km/h (1 Bft)
06.02.2019 03:28 1,1 C -1,1 C 1,1 C 88 % 1029,1 hPa 0,0 l/m 1,6 km/h (1 Bft) SW 217 0 min 0,000 mm 0,0 UV-I 0 W/m -0,7 C 1,1 C 6,4 km/h (2 Bft)
06.02.2019 03:30 1,0 C -1,1 C 1,1 C 88 % 1029,2 hPa 0,0 l/m 3,1 km/h (1 Bft) SW 223 0 min 0,000 mm 0,0 UV-I 0 W/m -0,8 C 1,0 C 8,0 km/h (2 Bft)
06.02.2019 03:32 0,9 C -1,1 C 1,1 C 88 % 1029,2 hPa 0,0 l/m 4,1 km/h (1 Bft) SW 223 0 min 0,000 mm 0,0 UV-I 0 W/m -0,9 C 0,9 C 9,7 km/h (2 Bft)
06.02.2019 03:34 0,9 C -1,1 C 1,1 C 88 % 1029,2 hPa 0,0 l/m 3,0 km/h (1 Bft) SW 224 0 min 0,000 mm 0,0 UV-I 0 W/m -0,9 C 0,9 C 4,8 km/h (1 Bft)
06.02.2019 03:36 0,8 C -1,1 C 1,1 C 88 % 1029,1 hPa 0,0 l/m 3,0 km/h (1 Bft) SW 224 0 min 0,000 mm 0,0 UV-I 0 W/m -1,0 C 0,8 C 4,8 km/h (1 Bft)
06.02.2019 03:38 0,8 C -1,1 C 1,1 C 88 % 1029,2 hPa 0,0 l/m 5,2 km/h (1 Bft) SW 226 0 min 0,000 mm 0,0 UV-I 0 W/m -1,0 C -0,8 C 8,0 km/h (2 Bft)
06.02.2019 03:40 0,8 C -1,1 C 1,1 C 88 % 1029,2 hPa 0,0 l/m 2,4 km/h (1 Bft) SW 226 0 min 0,000 mm 0,0 UV-I 0 W/m -1,0 C 0,8 C 4,8 km/h (1 Bft)
06.02.2019 03:42 0,7 C -1,1 C 1,1 C 88 % 1029,1 hPa 0,0 l/m 3,7 km/h (1 Bft) SW 234 0 min 0,000 mm 0,0 UV-I 0 W/m -1,1 C 0,7 C 9,7 km/h (2 Bft)
06.02.2019 03:44 0,7 C -1,1 C 1,1 C 88 % 1029,1 hPa 0,0 l/m 4,0 km/h (1 Bft) SW 233 0 min 0,000 mm 0,0 UV-I 0 W/m -1,1 C 0,7 C 9,7 km/h (2 Bft)
06.02.2019 03:46 0,7 C -1,1 C 1,1 C 88 % 1029,1 hPa 0,0 l/m 3,8 km/h (1 Bft) SW 227 0 min 0,000 mm 0,0 UV-I 0 W/m -1,1 C 0,7 C 8,0 km/h (2 Bft)
06.02.2019 03:48 0,6 C -1,1 C 1,1 C 88 % 1029,1 hPa 0,0 l/m 3,5 km/h (1 Bft) SW 232 0 min 0,000 mm 0,0 UV-I 0 W/m -1,2 C 0,6 C 8,0 km/h (2 Bft)
06.02.2019 03:50 0,6 C -1,1 C 1,1 C 88 % 1029,1 hPa 0,0 l/m 4,0 km/h (1 Bft) SW 233 0 min 0,000 mm 0,0 UV-I 0 W/m -1,2 C 0,6 C 8,0 km/h (2 Bft)
06.02.2019 03:52 0,6 C -1,1 C 1,1 C 88 % 1029,1 hPa 0,0 l/m 3,2 km/h (1 Bft) SW 233 0 min 0,000 mm 0,0 UV-I 0 W/m -1,2 C 0,6 C 8,0 km/h (2 Bft)
06.02.2019 03:54 0,6 C -1,1 C 1,1 C 89 % 1029,0 hPa 0,0 l/m 4,2 km/h (1 Bft) SW 231 0 min 0,000 mm 0,0 UV-I 0 W/m -1,0 C 0,6 C 8,0 km/h (2 Bft)
06.02.2019 03:56 0,6 C -1,1 C 1,1 C 89 % 1029,0 hPa 0,0 l/m 4,5 km/h (1 Bft) SW 224 0 min 0,000 mm 0,0 UV-I 0 W/m -1,0 C 0,6 C 6,4 km/h (2 Bft)
06.02.2019 03:58 0,5 C -1,1 C 1,1 C 89 % 1029,0 hPa 0,0 l/m 3,1 km/h (1 Bft) SW 225 0 min 0,000 mm 0,0 UV-I 0 W/m -1,1 C 0,5 C 6,4 km/h (2 Bft)
06.02.2019 04:00 0,5 C -1,1 C 1,1 C 89 % 1029,0 hPa 0,0 l/m 4,3 km/h (1 Bft) SW 226 0 min 0,000 mm 0,0 UV-I 0 W/m -1,1 C 0,5 C 8,0 km/h (2 Bft)
06.02.2019 04:02 0,5 C -1,1 C 1,1 C 89 % 1029,0 hPa 0,0 l/m 4,1 km/h (1 Bft) SW 227 0 min 0,000 mm 0,0 UV-I 0 W/m -1,1 C 0,5 C 6,4 km/h (2 Bft)
06.02.2019 04:04 0,4 C -1,1 C 1,1 C 89 % 1029,0 hPa 0,0 l/m 3,4 km/h (1 Bft) SW 227 0 min 0,000 mm 0,0 UV-I 0 W/m -1,2 C 0,4 C 6,4 km/h (2 Bft)
06.02.2019 04:06 0,4 C -1,1 C 1,1 C 89 % 1029,0 hPa 0,0 l/m 2,4 km/h (1 Bft) SW 227 0 min 0,000 mm 0,0 UV-I 0 W/m -1,2 C 0,4 C 6,4 km/h (2 Bft)
06.02.2019 04:08 0,4 C -1,1 C 1,1 C 89 % 1028,9 hPa 0,0 l/m 4,2 km/h (1 Bft) SW 227 0 min 0,000 mm 0,0 UV-I 0 W/m -1,2 C 0,4 C 6,4 km/h (2 Bft)
06.02.2019 04:10 0,4 C -1,1 C 1,1 C 89 % 1028,9 hPa 0,0 l/m 1,5 km/h (1 Bft) SW 227 0 min 0,000 mm 0,0 UV-I 0 W/m -1,2 C 0,4 C 6,4 km/h (2 Bft)
06.02.2019 04:12 0,4 C -1,1 C 1,1 C 89 % 1028,9 hPa 0,0 l/m 3,4 km/h (1 Bft) SW 228 0 min 0,000 mm 0,0 UV-I 0 W/m -1,2 C 0,4 C 6,4 km/h (2 Bft)
06.02.2019 04:14 0,4 C -1,1 C 1,1 C 89 % 1028,9 hPa 0,0 l/m 2,2 km/h (1 Bft) SW 228 0 min 0,000 mm 0,0 UV-I 0 W/m -1,2 C 0,4 C 6,4 km/h (2 Bft)
06.02.2019 04:16 0,3 C -1,1 C 1,1 C 89 % 1028,8 hPa 0,0 l/m 4,3 km/h (1 Bft) SW 227 0 min 0,000 mm 0,0 UV-I 0 W/m -1,3 C 0,3 C 6,4 km/h (2 Bft)
06.02.2019 04:18 0,3 C -1,1 C 1,1 C 89 % 1028,8 hPa 0,0 l/m 2,7 km/h (1 Bft) SW 227 0 min 0,000 mm 0,0 UV-I 0 W/m -1,3 C 0,3 C 8,0 km/h (2 Bft)
06.02.2019 04:20 0,3 C -1,1 C 1,1 C 89 % 1028,8 hPa 0,0 l/m 3,8 km/h (1 Bft) SW 222 0 min 0,000 mm 0,0 UV-I 0 W/m -1,3 C 0,3 C 6,4 km/h (2 Bft)
06.02.2019 04:22 0,3 C -1,1 C 1,1 C 89 % 1028,7 hPa 0,0 l/m 4,5 km/h (1 Bft) SW 221 0 min 0,000 mm 0,0 UV-I 0 W/m -1,3 C 0,3 C 9,7 km/h (2 Bft)
06.02.2019 04:24 0,3 C -1,1 C 1,1 C 89 % 1028,7 hPa 0,0 l/m 4,4 km/h (1 Bft) SW 231 0 min 0,000 mm 0,0 UV-I 0 W/m -1,3 C 0,3 C 11,3 km/h (2 Bft)
06.02.2019 04:26 0,3 C -1,1 C 1,1 C 89 % 1028,7 hPa 0,0 l/m 4,1 km/h (1 Bft) SW 226 0 min 0,000 mm 0,0 UV-I 0 W/m -1,3 C 0,3 C 8,0 km/h (2 Bft)
06.02.2019 04:28 0,2 C -1,1 C 1,1 C 89 % 1028,7 hPa 0,0 l/m 4,8 km/h (1 Bft) SW 222 0 min 0,000 mm 0,0 UV-I 0 W/m -1,4 C -1,3 C 11,3 km/h (2 Bft)
06.02.2019 04:30 0,2 C -1,1 C 1,1 C 89 % 1028,7 hPa 0,0 l/m 2,8 km/h (1 Bft) SW 221 0 min 0,000 mm 0,0 UV-I 0 W/m -1,4 C 0,2 C 6,4 km/h (2 Bft)
06.02.2019 04:32 0,2 C -1,7 C 1,1 C 89 % 1028,7 hPa 0,0 l/m 1,9 km/h (1 Bft) SW 221 0 min 0,000 mm 0,0 UV-I 0 W/m -1,4 C 0,2 C 4,8 km/h (1 Bft)
06.02.2019 04:34 0,2 C -1,7 C 1,1 C 89 % 1028,6 hPa 0,0 l/m 4,2 km/h (1 Bft) SW 214 0 min 0,000 mm 0,0 UV-I 0 W/m -1,4 C 0,2 C 9,7 km/h (2 Bft)
06.02.2019 04:36 0,2 C -1,1 C 1,1 C 90 % 1028,6 hPa 0,0 l/m 3,1 km/h (1 Bft) SW 219 0 min 0,000 mm 0,0 UV-I 0 W/m -1,2 C 0,2 C 9,7 km/h (2 Bft)
06.02.2019 04:38 0,2 C -1,7 C 1,1 C 90 % 1028,6 hPa 0,0 l/m 4,3 km/h (1 Bft) SW 218 0 min 0,000 mm 0,0 UV-I 0 W/m -1,2 C 0,2 C 6,4 km/h (2 Bft)
06.02.2019 04:40 0,2 C -1,7 C 1,1 C 90 % 1028,6 hPa 0,0 l/m 1,6 km/h (1 Bft) SW 218 0 min 0,000 mm 0,0 UV-I 0 W/m -1,2 C 0,2 C 6,4 km/h (2 Bft)
06.02.2019 04:42 0,1 C -1,7 C 1,1 C 90 % 1028,5 hPa 0,0 l/m 2,4 km/h (1 Bft) SW 218 0 min 0,000 mm 0,0 UV-I 0 W/m -1,3 C 0,1 C 6,4 km/h (2 Bft)
06.02.2019 04:44 0,1 C -1,7 C 1,1 C 90 % 1028,4 hPa 0,0 l/m 2,7 km/h (1 Bft) SW 218 0 min 0,000 mm 0,0 UV-I 0 W/m -1,3 C 0,1 C 6,4 km/h (2 Bft)
06.02.2019 04:46 0,1 C -1,7 C 1,1 C 90 % 1028,5 hPa 0,0 l/m 2,5 km/h (1 Bft) SW 218 0 min 0,000 mm 0,0 UV-I 0 W/m -1,3 C 0,1 C 4,8 km/h (1 Bft)
06.02.2019 04:48 0,1 C -2,2 C 1,1 C 90 % 1028,5 hPa 0,0 l/m 1,3 km/h (1 Bft) SW 218 0 min 0,000 mm 0,0 UV-I 0 W/m -1,3 C 0,1 C 4,8 km/h (1 Bft)
06.02.2019 04:50 0,1 C -2,2 C 1,1 C 90 % 1028,5 hPa 0,0 l/m 2,2 km/h (1 Bft) SW 218 0 min 0,000 mm 0,0 UV-I 0 W/m -1,3 C 0,1 C 6,4 km/h (2 Bft)
06.02.2019 04:52 0,1 C -2,2 C 1,1 C 90 % 1028,5 hPa 0,0 l/m 1,5 km/h (1 Bft) SW 218 0 min 0,000 mm 0,0 UV-I 0 W/m -1,3 C 0,1 C 6,4 km/h (2 Bft)
06.02.2019 04:54 0,1 C -2,2 C 1,1 C 90 % 1028,5 hPa 0,0 l/m 0,0 km/h (0 Bft) SW 218 0 min 0,000 mm 0,0 UV-I 0 W/m -1,3 C 0,1 C 0,0 km/h (0 Bft)
06.02.2019 04:56 0,0 C -2,2 C 1,1 C 90 % 1028,5 hPa 0,0 l/m 3,0 km/h (1 Bft) SW 219 0 min 0,000 mm 0,0 UV-I 0 W/m -1,4 C 0,0 C 8,0 km/h (2 Bft)
06.02.2019 04:58 0,0 C -2,2 C 1,1 C 90 % 1028,5 hPa 0,0 l/m 1,4 km/h (1 Bft) SW 219 0 min 0,000 mm 0,0 UV-I 0 W/m -1,4 C 0,0 C 4,8 km/h (1 Bft)
06.02.2019 05:00 -0,1 C -2,2 C 1,1 C 90 % 1028,4 hPa 0,0 l/m 0,5 km/h (0 Bft) SW 219 0 min 0,000 mm 0,0 UV-I 0 W/m -1,5 C -0,1 C 6,4 km/h (2 Bft)
06.02.2019 05:02 -0,1 C -2,8 C 1,1 C 90 % 1028,5 hPa 0,0 l/m 0,4 km/h (0 Bft) SW 219 0 min 0,000 mm 0,0 UV-I 0 W/m -1,5 C -0,1 C 3,2 km/h (1 Bft)
06.02.2019 05:04 -0,1 C -2,8 C 1,1 C 90 % 1028,5 hPa 0,0 l/m 0,3 km/h (0 Bft) SW 219 0 min 0,000 mm 0,0 UV-I 0 W/m -1,5 C -0,1 C 3,2 km/h (1 Bft)
06.02.2019 05:06 -0,1 C -2,8 C 1,1 C 89 % 1028,5 hPa 0,0 l/m 0,0 km/h (0 Bft) SW 219 0 min 0,000 mm 0,0 UV-I 0 W/m -1,7 C -0,1 C 0,0 km/h (0 Bft)
06.02.2019 05:08 -0,2 C -2,8 C 1,1 C 89 % 1028,5 hPa 0,0 l/m 0,0 km/h (0 Bft) SW 219 0 min 0,000 mm 0,0 UV-I 0 W/m -1,8 C -0,2 C 0,0 km/h (0 Bft)
06.02.2019 05:10 -0,2 C -2,8 C 1,1 C 89 % 1028,5 hPa 0,0 l/m 0,0 km/h (0 Bft) SW 219 0 min 0,000 mm 0,0 UV-I 0 W/m -1,8 C -0,2 C 0,0 km/h (0 Bft)
06.02.2019 05:12 -0,2 C -2,8 C 1,1 C 89 % 1028,5 hPa 0,0 l/m 1,9 km/h (1 Bft) SW 219 0 min 0,000 mm 0,0 UV-I 0 W/m -1,8 C -0,2 C 6,4 km/h (2 Bft)
06.02.2019 05:14 -0,2 C -2,8 C 1,1 C 89 % 1028,5 hPa 0,0 l/m 2,7 km/h (1 Bft) SW 219 0 min 0,000 mm 0,0 UV-I 0 W/m -1,8 C -0,2 C 4,8 km/h (1 Bft)
06.02.2019 05:16 -0,3 C -2,8 C 1,1 C 89 % 1028,5 hPa 0,0 l/m 0,0 km/h (0 Bft) SW 219 0 min 0,000 mm 0,0 UV-I 0 W/m -1,9 C -0,3 C 0,0 km/h (0 Bft)
06.02.2019 05:18 -0,3 C -2,8 C 1,1 C 89 % 1028,6 hPa 0,0 l/m 1,0 km/h (0 Bft) SW 219 0 min 0,000 mm 0,0 UV-I 0 W/m -1,9 C -0,3 C 3,2 km/h (1 Bft)
06.02.2019 05:20 -0,3 C -2,8 C 1,1 C 90 % 1028,6 hPa 0,0 l/m 0,4 km/h (0 Bft) SW 219 0 min 0,000 mm 0,0 UV-I 0 W/m -1,7 C -0,3 C 3,2 km/h (1 Bft)
06.02.2019 05:22 -0,3 C -3,3 C 1,1 C 90 % 1028,6 hPa 0,0 l/m 0,3 km/h (0 Bft) SW 219 0 min 0,000 mm 0,0 UV-I 0 W/m -1,7 C -0,3 C 3,2 km/h (1 Bft)
06.02.2019 05:24 -0,4 C -3,3 C 1,1 C 90 % 1028,6 hPa 0,0 l/m 0,0 km/h (0 Bft) SW 219 0 min 0,000 mm 0,0 UV-I 0 W/m -1,8 C -0,4 C 0,0 km/h (0 Bft)
06.02.2019 05:26 -0,4 C -3,3 C 1,1 C 89 % 1028,5 hPa 0,0 l/m 0,0 km/h (0 Bft) SW 219 0 min 0,000 mm 0,0 UV-I 0 W/m -2,0 C -0,4 C 0,0 km/h (0 Bft)
06.02.2019 05:28 -0,4 C -3,3 C 1,1 C 89 % 1028,5 hPa 0,0 l/m 0,0 km/h (0 Bft) SW 219 0 min 0,000 mm 0,0 UV-I 0 W/m -2,0 C -0,4 C 0,0 km/h (0 Bft)
06.02.2019 05:30 -0,4 C -3,3 C 1,1 C 89 % 1028,5 hPa 0,0 l/m 0,0 km/h (0 Bft) SW 219 0 min 0,000 mm 0,0 UV-I 0 W/m -2,0 C -0,4 C 0,0 km/h (0 Bft)
06.02.2019 05:32 -0,4 C -3,3 C 1,1 C 89 % 1028,5 hPa 0,0 l/m 0,3 km/h (0 Bft) SW 219 0 min 0,000 mm 0,0 UV-I 0 W/m -2,0 C -0,4 C 3,2 km/h (1 Bft)
06.02.2019 05:34 -0,5 C -2,8 C 1,1 C 89 % 1028,4 hPa 0,0 l/m 0,0 km/h (0 Bft) SW 219 0 min 0,000 mm 0,0 UV-I 0 W/m -2,1 C -0,5 C 0,0 km/h (0 Bft)
06.02.2019 05:36 -0,5 C -3,3 C 1,1 C 90 % 1028,5 hPa 0,0 l/m 0,5 km/h (0 Bft) SW 219 0 min 0,000 mm 0,0 UV-I 0 W/m -1,9 C -0,5 C 3,2 km/h (1 Bft)
06.02.2019 05:38 -0,5 C -3,3 C 1,1 C 90 % 1028,5 hPa 0,0 l/m 0,4 km/h (0 Bft) SW 219 0 min 0,000 mm 0,0 UV-I 0 W/m -1,9 C -0,5 C 3,2 km/h (1 Bft)
06.02.2019 05:40 -0,6 C -3,3 C 1,1 C 90 % 1028,5 hPa 0,0 l/m 0,0 km/h (0 Bft) SW 219 0 min 0,000 mm 0,0 UV-I 0 W/m -2,0 C -0,6 C 0,0 km/h (0 Bft)
06.02.2019 05:42 -0,6 C -3,3 C 1,1 C 90 % 1028,5 hPa 0,0 l/m 0,0 km/h (0 Bft) SW 219 0 min 0,000 mm 0,0 UV-I 0 W/m -2,0 C -0,6 C 0,0 km/h (0 Bft)
06.02.2019 05:44 -0,6 C -3,3 C 1,1 C 90 % 1028,5 hPa 0,0 l/m 0,0 km/h (0 Bft) SW 219 0 min 0,000 mm 0,0 UV-I 0 W/m -2,0 C -0,6 C 0,0 km/h (0 Bft)
06.02.2019 05:46 -0,6 C -3,3 C 1,1 C 90 % 1028,5 hPa 0,0 l/m 0,0 km/h (0 Bft) SW 219 0 min 0,000 mm 0,0 UV-I 0 W/m -2,0 C -0,6 C 0,0 km/h (0 Bft)
06.02.2019 05:48 -0,7 C -3,3 C 1,1 C 90 % 1028,5 hPa 0,0 l/m 0,0 km/h (0 Bft) SW 219 0 min 0,000 mm 0,0 UV-I 0 W/m -2,1 C -0,7 C 0,0 km/h (0 Bft)
06.02.2019 05:50 -0,7 C -3,3 C 1,1 C 90 % 1028,5 hPa 0,0 l/m 0,0 km/h (0 Bft) SW 219 0 min 0,000 mm 0,0 UV-I 0 W/m -2,1 C -0,7 C 0,0 km/h (0 Bft)
06.02.2019 05:52 -0,7 C -3,3 C 1,1 C 90 % 1028,5 hPa 0,0 l/m 0,2 km/h (0 Bft) SW 219 0 min 0,000 mm 0,0 UV-I 0 W/m -2,1 C -0,7 C 3,2 km/h (1 Bft)
06.02.2019 05:54 -0,7 C -3,9 C 1,1 C 90 % 1028,5 hPa 0,0 l/m 0,1 km/h (0 Bft) SW 219 0 min 0,000 mm 0,0 UV-I 0 W/m -2,1 C -0,7 C 1,6 km/h (1 Bft)
06.02.2019 05:56 -0,8 C -3,9 C 1,1 C 89 % 1028,4 hPa 0,0 l/m 0,0 km/h (0 Bft) SW 219 0 min 0,000 mm 0,0 UV-I 0 W/m -2,4 C -0,8 C 0,0 km/h (0 Bft)
06.02.2019 05:58 -0,8 C -3,9 C 1,1 C 89 % 1028,5 hPa 0,0 l/m 0,1 km/h (0 Bft) SW 219 0 min 0,000 mm 0,0 UV-I 0 W/m -2,4 C -0,8 C 1,6 km/h (1 Bft)
06.02.2019 06:00 -0,8 C -3,9 C 1,1 C 89 % 1028,5 hPa 0,0 l/m 0,9 km/h (0 Bft) SW 219 0 min 0,000 mm 0,0 UV-I 0 W/m -2,4 C -0,8 C 6,4 km/h (2 Bft)
06.02.2019 06:02 -0,9 C -3,9 C 1,1 C 89 % 1028,4 hPa 0,0 l/m 0,7 km/h (0 Bft) SW 219 0 min 0,000 mm 0,0 UV-I 0 W/m -2,5 C -0,9 C 4,8 km/h (1 Bft)
06.02.2019 06:04 -0,9 C -3,9 C 1,1 C 89 % 1028,4 hPa 0,0 l/m 1,1 km/h (1 Bft) SW 219 0 min 0,000 mm 0,0 UV-I 0 W/m -2,5 C -0,9 C 4,8 km/h (1 Bft)
06.02.2019 06:06 -0,9 C -3,9 C 1,1 C 89 % 1028,4 hPa 0,0 l/m 0,1 km/h (0 Bft) SW 219 0 min 0,000 mm 0,0 UV-I 0 W/m -2,5 C -0,9 C 3,2 km/h (1 Bft)
06.02.2019 06:08 -0,9 C -3,9 C 1,1 C 90 % 1028,4 hPa 0,0 l/m 0,0 km/h (0 Bft) SW 219 0 min 0,000 mm 0,0 UV-I 0 W/m -2,3 C -0,9 C 0,0 km/h (0 Bft)
06.02.2019 06:10 -1,0 C -3,9 C 1,1 C 90 % 1028,4 hPa 0,0 l/m 0,0 km/h (0 Bft) SW 219 0 min 0,000 mm 0,0 UV-I 0 W/m -2,4 C -1,0 C 0,0 km/h (0 Bft)
06.02.2019 06:12 -1,0 C -3,9 C 1,1 C 90 % 1028,4 hPa 0,0 l/m 0,0 km/h (0 Bft) SW 219 0 min 0,000 mm 0,0 UV-I 0 W/m -2,4 C -1,0 C 0,0 km/h (0 Bft)
06.02.2019 06:14 -1,1 C -3,9 C 1,1 C 90 % 1028,4 hPa 0,0 l/m 0,4 km/h (0 Bft) SW 219 0 min 0,000 mm 0,0 UV-I 0 W/m -2,5 C -1,1 C 3,2 km/h (1 Bft)
06.02.2019 06:16 -1,1 C -3,9 C 1,1 C 90 % 1028,4 hPa 0,0 l/m 0,0 km/h (0 Bft) SW 219 0 min 0,000 mm 0,0 UV-I 0 W/m -2,5 C -1,1 C 0,0 km/h (0 Bft)
06.02.2019 06:18 -1,1 C -3,9 C 1,1 C 90 % 1028,4 hPa 0,0 l/m 0,0 km/h (0 Bft) SW 219 0 min 0,000 mm 0,0 UV-I 0 W/m -2,5 C -1,1 C 0,0 km/h (0 Bft)
06.02.2019 06:20 -1,1 C -3,9 C 1,1 C 90 % 1028,4 hPa 0,0 l/m 0,0 km/h (0 Bft) SW 219 0 min 0,000 mm 0,0 UV-I 0 W/m -2,5 C -1,1 C 0,0 km/h (0 Bft)
06.02.2019 06:22 -1,2 C -3,9 C 1,1 C 90 % 1028,4 hPa 0,0 l/m 0,0 km/h (0 Bft) SW 219 0 min 0,000 mm 0,0 UV-I 0 W/m -2,6 C -1,2 C 0,0 km/h (0 Bft)
06.02.2019 06:24 -1,2 C -3,9 C 1,1 C 90 % 1028,5 hPa 0,0 l/m 0,0 km/h (0 Bft) SW 219 0 min 0,000 mm 0,0 UV-I 0 W/m -2,6 C -1,2 C 0,0 km/h (0 Bft)
06.02.2019 06:26 -1,2 C -3,9 C 1,1 C 90 % 1028,5 hPa 0,0 l/m 0,0 km/h (0 Bft) SW 219 0 min 0,000 mm 0,0 UV-I 0 W/m -2,6 C -1,2 C 0,0 km/h (0 Bft)
06.02.2019 06:28 -1,2 C -3,3 C 1,1 C 90 % 1028,4 hPa 0,0 l/m 0,0 km/h (0 Bft) SW 219 0 min 0,000 mm 0,0 UV-I 0 W/m -2,6 C -1,2 C 0,0 km/h (0 Bft)
06.02.2019 06:30 -1,3 C -3,9 C 1,1 C 90 % 1028,4 hPa 0,0 l/m 0,0 km/h (0 Bft) SW 219 0 min 0,000 mm 0,0 UV-I 0 W/m -2,7 C -1,3 C 0,0 km/h (0 Bft)
06.02.2019 06:32 -1,3 C -3,9 C 1,1 C 90 % 1028,4 hPa 0,0 l/m 0,0 km/h (0 Bft) SW 219 0 min 0,000 mm 0,0 UV-I 0 W/m -2,7 C -1,3 C 0,0 km/h (0 Bft)
06.02.2019 06:34 -1,3 C -3,9 C 1,1 C 90 % 1028,3 hPa 0,0 l/m 0,3 km/h (0 Bft) SW 219 0 min 0,000 mm 0,0 UV-I 0 W/m -2,7 C -1,3 C 4,8 km/h (1 Bft)
06.02.2019 06:36 -1,3 C -3,9 C 1,1 C 90 % 1028,3 hPa 0,0 l/m 1,2 km/h (1 Bft) SW 217 0 min 0,000 mm 0,0 UV-I 0 W/m -2,7 C -1,3 C 4,8 km/h (1 Bft)
06.02.2019 06:38 -1,3 C -3,3 C 1,1 C 90 % 1028,3 hPa 0,0 l/m 0,1 km/h (0 Bft) SW 217 0 min 0,000 mm 0,0 UV-I 0 W/m -2,7 C -1,3 C 1,6 km/h (1 Bft)
06.02.2019 06:40 -1,4 C -3,3 C 1,1 C 90 % 1028,3 hPa 0,0 l/m 2,4 km/h (1 Bft) SW 217 0 min 0,000 mm 0,0 UV-I 0 W/m -2,8 C -1,4 C 4,8 km/h (1 Bft)
06.02.2019 06:42 -1,4 C -3,3 C 1,1 C 90 % 1028,3 hPa 0,0 l/m 3,1 km/h (1 Bft) SW 216 0 min 0,000 mm 0,0 UV-I 0 W/m -2,8 C -1,4 C 6,4 km/h (2 Bft)
06.02.2019 06:44 -1,4 C -3,3 C 1,1 C 90 % 1028,3 hPa 0,0 l/m 0,0 km/h (0 Bft) SW 216 0 min 0,000 mm 0,0 UV-I 0 W/m -2,8 C -1,4 C 0,0 km/h (0 Bft)
06.02.2019 06:46 -1,4 C -3,3 C 1,1 C 90 % 1028,3 hPa 0,0 l/m 0,0 km/h (0 Bft) SW 216 0 min 0,000 mm 0,0 UV-I 0 W/m -2,8 C -1,4 C 0,0 km/h (0 Bft)
06.02.2019 06:48 -1,4 C -3,3 C 1,1 C 90 % 1028,3 hPa 0,0 l/m 2,1 km/h (1 Bft) SW 216 0 min 0,000 mm 0,0 UV-I 0 W/m -2,8 C -1,4 C 4,8 km/h (1 Bft)
06.02.2019 06:50 -1,4 C -3,9 C 1,1 C 90 % 1028,2 hPa 0,0 l/m 0,6 km/h (0 Bft) SW 216 0 min 0,000 mm 0,0 UV-I 0 W/m -2,8 C -1,4 C 4,8 km/h (1 Bft)
06.02.2019 06:52 -1,4 C -3,3 C 1,1 C 90 % 1028,2 hPa 0,0 l/m 0,6 km/h (0 Bft) S-SW 210 0 min 0,000 mm 0,0 UV-I 0 W/m -2,8 C -1,4 C 4,8 km/h (1 Bft)
06.02.2019 06:54 -1,4 C -3,3 C 1,1 C 90 % 1028,2 hPa 0,0 l/m 1,5 km/h (1 Bft) S-SW 211 0 min 0,000 mm 0,0 UV-I 0 W/m -2,8 C -1,4 C 6,4 km/h (2 Bft)
06.02.2019 06:56 -1,4 C -3,3 C 1,1 C 91 % 1028,2 hPa 0,0 l/m 0,3 km/h (0 Bft) S-SW 211 0 min 0,000 mm 0,0 UV-I 0 W/m -2,7 C -1,4 C 3,2 km/h (1 Bft)
06.02.2019 06:58 -1,4 C -3,3 C 1,1 C 90 % 1028,2 hPa 0,0 l/m 0,5 km/h (0 Bft) S-SW 211 0 min 0,000 mm 0,0 UV-I 0 W/m -2,8 C -1,4 C 4,8 km/h (1 Bft)
06.02.2019 07:00 -1,4 C -3,3 C 1,1 C 90 % 1028,3 hPa 0,0 l/m 1,4 km/h (1 Bft) S-SW 211 0 min 0,000 mm 0,0 UV-I 0 W/m -2,8 C -1,4 C 6,4 km/h (2 Bft)
06.02.2019 07:02 -1,4 C -3,3 C 1,1 C 90 % 1028,3 hPa 0,0 l/m 1,7 km/h (1 Bft) S-SW 211 0 min 0,000 mm 0,0 UV-I 0 W/m -2,8 C -1,4 C 4,8 km/h (1 Bft)
06.02.2019 07:04 -1,4 C -3,3 C 1,1 C 91 % 1028,3 hPa 0,0 l/m 1,3 km/h (1 Bft) S-SW 210 0 min 0,000 mm 0,0 UV-I 0 W/m -2,7 C -1,4 C 4,8 km/h (1 Bft)
06.02.2019 07:06 -1,4 C -3,3 C 1,1 C 91 % 1028,2 hPa 0,0 l/m 3,4 km/h (1 Bft) S-SW 208 0 min 0,000 mm 0,0 UV-I 0 W/m -2,7 C -1,4 C 9,7 km/h (2 Bft)
06.02.2019 07:08 -1,4 C -3,3 C 1,1 C 91 % 1028,3 hPa 0,0 l/m 1,0 km/h (0 Bft) S-SW 208 0 min 0,000 mm 0,0 UV-I 0 W/m -2,7 C -1,4 C 4,8 km/h (1 Bft)
06.02.2019 07:10 -1,4 C -3,3 C 1,1 C 91 % 1028,3 hPa 0,0 l/m 1,8 km/h (1 Bft) S-SW 208 0 min 0,000 mm 0,0 UV-I 0 W/m -2,7 C -1,4 C 6,4 km/h (2 Bft)
06.02.2019 07:12 -1,4 C -2,8 C 1,1 C 91 % 1028,3 hPa 0,0 l/m 4,9 km/h (1 Bft) S-SW 205 0 min 0,000 mm 0,0 UV-I 0 W/m -2,7 C -3,1 C 8,0 km/h (2 Bft)
06.02.2019 07:14 -1,4 C -2,8 C 1,1 C 91 % 1028,3 hPa 0,0 l/m 4,0 km/h (1 Bft) S-SW 202 0 min 0,000 mm 0,0 UV-I 0 W/m -2,7 C -1,4 C 8,0 km/h (2 Bft)
06.02.2019 07:16 -1,4 C -2,8 C 1,1 C 91 % 1028,3 hPa 0,0 l/m 5,0 km/h (1 Bft) S-SW 206 0 min 0,000 mm 0,0 UV-I 0 W/m -2,7 C -3,2 C 8,0 km/h (2 Bft)
06.02.2019 07:18 -1,4 C -2,8 C 1,1 C 91 % 1028,2 hPa 0,0 l/m 4,6 km/h (1 Bft) S-SW 206 0 min 0,000 mm 0,0 UV-I 0 W/m -2,7 C -3,0 C 9,7 km/h (2 Bft)
06.02.2019 07:20 -1,4 C -2,8 C 1,1 C 91 % 1028,3 hPa 0,0 l/m 2,2 km/h (1 Bft) S-SW 207 0 min 0,000 mm 0,0 UV-I 0 W/m -2,7 C -1,4 C 6,4 km/h (2 Bft)
06.02.2019 07:22 -1,3 C -2,8 C 1,1 C 91 % 1028,3 hPa 0,0 l/m 2,5 km/h (1 Bft) SW 220 0 min 0,000 mm 0,0 UV-I 0 W/m -2,6 C -1,3 C 9,7 km/h (2 Bft)
06.02.2019 07:24 -1,3 C -2,8 C 1,1 C 92 % 1028,3 hPa 0,0 l/m 3,9 km/h (1 Bft) S-SW 212 0 min 0,000 mm 0,0 UV-I 0 W/m -2,4 C -1,3 C 6,4 km/h (2 Bft)
06.02.2019 07:26 -1,3 C -2,2 C 1,1 C 92 % 1028,2 hPa 0,0 l/m 2,8 km/h (1 Bft) S-SW 211 0 min 0,000 mm 0,0 UV-I 0 W/m -2,4 C -1,3 C 9,7 km/h (2 Bft)
06.02.2019 07:28 -1,3 C -2,8 C 1,1 C 92 % 1028,2 hPa 0,0 l/m 2,1 km/h (1 Bft) SW 215 0 min 0,000 mm 0,0 UV-I 0 W/m -2,4 C -1,3 C 4,8 km/h (1 Bft)
06.02.2019 07:30 -1,3 C -2,8 C 1,1 C 92 % 1028,2 hPa 0,0 l/m 2,5 km/h (1 Bft) S-SW 210 0 min 0,000 mm 0,0 UV-I 5 W/m -2,4 C -1,3 C 6,4 km/h (2 Bft)
06.02.2019 07:32 -1,3 C -2,8 C 1,1 C 92 % 1028,1 hPa 0,0 l/m 1,9 km/h (1 Bft) S-SW 210 0 min 0,000 mm 0,0 UV-I 5 W/m -2,4 C -1,3 C 4,8 km/h (1 Bft)
06.02.2019 07:34 -1,3 C -2,8 C 1,1 C 92 % 1028,1 hPa 0,0 l/m 2,6 km/h (1 Bft) S-SW 210 0 min 0,000 mm 0,0 UV-I 5 W/m -2,4 C -1,3 C 6,4 km/h (2 Bft)
06.02.2019 07:36 -1,3 C -2,2 C 1,1 C 92 % 1028,1 hPa 0,0 l/m 4,3 km/h (1 Bft) S-SW 208 0 min 0,000 mm 0,0 UV-I 7 W/m -2,4 C -1,3 C 8,0 km/h (2 Bft)
06.02.2019 07:38 -1,2 C -2,2 C 1,1 C 92 % 1028,1 hPa 0,0 l/m 4,0 km/h (1 Bft) S-SW 212 0 min 0,000 mm 0,0 UV-I 7 W/m -2,3 C -1,2 C 8,0 km/h (2 Bft)
06.02.2019 07:40 -1,2 C -2,2 C 1,1 C 92 % 1028,1 hPa 0,0 l/m 4,3 km/h (1 Bft) S 182 0 min 0,000 mm 0,0 UV-I 7 W/m -2,3 C -1,2 C 8,0 km/h (2 Bft)
06.02.2019 07:42 -1,2 C -2,2 C 1,1 C 92 % 1028,1 hPa 0,0 l/m 6,4 km/h (2 Bft) S 187 0 min 0,000 mm 0,0 UV-I 7 W/m -2,3 C -3,6 C 9,7 km/h (2 Bft)
06.02.2019 07:44 -1,2 C -2,2 C 1,1 C 92 % 1028,1 hPa 0,0 l/m 3,5 km/h (1 Bft) SW 221 0 min 0,000 mm 0,0 UV-I 7 W/m -2,3 C -1,2 C 11,3 km/h (2 Bft)
06.02.2019 07:46 -1,2 C -2,2 C 1,1 C 92 % 1028,1 hPa 0,0 l/m 3,7 km/h (1 Bft) S-SW 196 0 min 0,000 mm 0,0 UV-I 9 W/m -2,3 C -1,2 C 8,0 km/h (2 Bft)
06.02.2019 07:48 -1,2 C -2,2 C 1,1 C 92 % 1028,1 hPa 0,0 l/m 2,2 km/h (1 Bft) S-SW 197 0 min 0,000 mm 0,0 UV-I 9 W/m -2,3 C -1,2 C 6,4 km/h (2 Bft)
06.02.2019 07:50 -1,2 C -2,2 C 1,1 C 92 % 1028,1 hPa 0,0 l/m 2,1 km/h (1 Bft) S-SW 196 0 min 0,000 mm 0,0 UV-I 11 W/m -2,3 C -1,2 C 4,8 km/h (1 Bft)
06.02.2019 07:52 -1,2 C -2,2 C 1,1 C 92 % 1028,1 hPa 0,0 l/m 2,6 km/h (1 Bft) S-SW 200 0 min 0,000 mm 0,0 UV-I 11 W/m -2,3 C -1,2 C 6,4 km/h (2 Bft)
06.02.2019 07:54 -1,2 C -2,2 C 1,1 C 92 % 1028,1 hPa 0,0 l/m 2,8 km/h (1 Bft) S-SW 200 0 min 0,000 mm 0,0 UV-I 12 W/m -2,3 C -1,2 C 6,4 km/h (2 Bft)
06.02.2019 07:56 -1,2 C -2,2 C 1,1 C 92 % 1028,0 hPa 0,0 l/m 4,1 km/h (1 Bft) S-SW 200 0 min 0,000 mm 0,0 UV-I 14 W/m -2,3 C -1,2 C 6,4 km/h (2 Bft)
06.02.2019 07:58 -1,2 C -2,2 C 1,1 C 92 % 1028,0 hPa 0,0 l/m 3,6 km/h (1 Bft) S-SW 192 2 min 0,000 mm 0,0 UV-I 16 W/m -2,3 C -1,2 C 12,9 km/h (3 Bft)
06.02.2019 08:00 -1,2 C -2,2 C 1,1 C 92 % 1027,9 hPa 0,0 l/m 5,3 km/h (1 Bft) S-SW 192 2 min 0,000 mm 0,0 UV-I 18 W/m -2,3 C -3,1 C 9,7 km/h (2 Bft)
06.02.2019 08:02 -1,2 C -2,2 C 1,1 C 92 % 1028,0 hPa 0,0 l/m 4,2 km/h (1 Bft) S-SW 194 2 min 0,000 mm 0,0 UV-I 18 W/m -2,3 C -1,2 C 9,7 km/h (2 Bft)
06.02.2019 08:04 -1,2 C -2,2 C 1,1 C 92 % 1027,9 hPa 0,0 l/m 5,8 km/h (2 Bft) S-SW 211 0 min 0,000 mm 0,0 UV-I 18 W/m -2,3 C -3,3 C 11,3 km/h (2 Bft)
06.02.2019 08:06 -1,1 C -2,2 C 1,1 C 92 % 1027,9 hPa 0,0 l/m 3,1 km/h (1 Bft) S-SW 198 0 min 0,000 mm 0,0 UV-I 21 W/m -2,2 C -1,1 C 8,0 km/h (2 Bft)
06.02.2019 08:08 -1,1 C -2,2 C 1,1 C 92 % 1027,9 hPa 0,0 l/m 6,0 km/h (2 Bft) S-SW 194 0 min 0,000 mm 0,0 UV-I 23 W/m -2,2 C -3,3 C 12,9 km/h (3 Bft)
06.02.2019 08:10 -1,1 C -2,2 C 1,1 C 92 % 1027,9 hPa 0,0 l/m 5,6 km/h (2 Bft) S-SW 198 0 min 0,000 mm 0,0 UV-I 25 W/m -2,2 C -3,1 C 11,3 km/h (2 Bft)
06.02.2019 08:12 -1,1 C -2,2 C 1,1 C 92 % 1027,9 hPa 0,0 l/m 3,5 km/h (1 Bft) S 190 0 min 0,000 mm 0,0 UV-I 26 W/m -2,2 C -1,1 C 9,7 km/h (2 Bft)
06.02.2019 08:14 -1,1 C -2,2 C 1,1 C 92 % 1027,8 hPa 0,0 l/m 5,3 km/h (1 Bft) S 189 0 min 0,000 mm 0,0 UV-I 28 W/m -2,2 C -3,0 C 8,0 km/h (2 Bft)
06.02.2019 08:16 -1,1 C -1,7 C 1,1 C 92 % 1027,8 hPa 0,0 l/m 3,8 km/h (1 Bft) S 183 0 min 0,000 mm 0,0 UV-I 28 W/m -2,2 C -1,1 C 8,0 km/h (2 Bft)
06.02.2019 08:18 -1,1 C -1,7 C 1,1 C 92 % 1027,8 hPa 0,0 l/m 3,6 km/h (1 Bft) S 186 0 min 0,000 mm 0,0 UV-I 30 W/m -2,2 C -1,1 C 8,0 km/h (2 Bft)
06.02.2019 08:20 -1,1 C -1,7 C 1,1 C 92 % 1027,8 hPa 0,0 l/m 4,8 km/h (1 Bft) S-SW 196 0 min 0,000 mm 0,0 UV-I 30 W/m -2,2 C -2,7 C 9,7 km/h (2 Bft)
06.02.2019 08:22 -1,1 C -1,7 C 1,1 C 92 % 1027,8 hPa 0,0 l/m 6,4 km/h (2 Bft) S 186 0 min 0,000 mm 0,0 UV-I 32 W/m -2,2 C -3,5 C 12,9 km/h (3 Bft)
06.02.2019 08:24 -1,1 C -1,7 C 1,1 C 92 % 1027,8 hPa 0,0 l/m 4,1 km/h (1 Bft) S 187 0 min 0,000 mm 0,0 UV-I 33 W/m -2,2 C -1,1 C 6,4 km/h (2 Bft)
06.02.2019 08:26 -1,0 C -1,7 C 1,1 C 92 % 1027,8 hPa 0,0 l/m 5,6 km/h (2 Bft) S 188 0 min 0,000 mm 0,0 UV-I 35 W/m -2,1 C -3,0 C 11,3 km/h (2 Bft)
06.02.2019 08:28 -1,0 C -1,7 C 1,1 C 92 % 1027,8 hPa 0,0 l/m 7,5 km/h (2 Bft) S 182 0 min 0,000 mm 0,0 UV-I 37 W/m -2,1 C -3,7 C 12,9 km/h (3 Bft)
06.02.2019 08:30 -1,0 C -1,1 C 1,1 C 92 % 1027,8 hPa 0,0 l/m 3,9 km/h (1 Bft) S 191 0 min 0,000 mm 0,0 UV-I 37 W/m -2,1 C -1,0 C 9,7 km/h (2 Bft)
06.02.2019 08:32 -0,9 C -1,1 C 1,1 C 92 % 1027,8 hPa 0,0 l/m 3,4 km/h (1 Bft) S 190 0 min 0,000 mm 0,0 UV-I 37 W/m -2,0 C -0,9 C 9,7 km/h (2 Bft)
06.02.2019 08:34 -0,9 C -1,1 C 1,1 C 92 % 1027,8 hPa 0,0 l/m 5,8 km/h (2 Bft) S-SW 213 0 min 0,000 mm 0,0 UV-I 39 W/m -2,0 C -3,0 C 11,3 km/h (2 Bft)
06.02.2019 08:36 -0,9 C -1,1 C 1,1 C 92 % 1027,8 hPa 0,0 l/m 6,4 km/h (2 Bft) S-SW 203 0 min 0,000 mm 0,0 UV-I 40 W/m -2,0 C -3,2 C 12,9 km/h (3 Bft)
06.02.2019 08:38 -0,8 C -1,1 C 1,1 C 92 % 1027,8 hPa 0,0 l/m 2,2 km/h (1 Bft) S-SW 202 0 min 0,000 mm 0,0 UV-I 40 W/m -1,9 C -0,8 C 6,4 km/h (2 Bft)
06.02.2019 08:40 -0,8 C -1,1 C 1,1 C 92 % 1027,8 hPa 0,0 l/m 5,1 km/h (1 Bft) S-SW 196 0 min 0,000 mm 0,0 UV-I 42 W/m -1,9 C -2,5 C 11,3 km/h (2 Bft)
06.02.2019 08:42 -0,7 C -1,1 C 1,1 C 92 % 1027,9 hPa 0,0 l/m 0,9 km/h (0 Bft) S-SW 205 0 min 0,000 mm 0,0 UV-I 42 W/m -1,8 C -0,7 C 6,4 km/h (2 Bft)
06.02.2019 08:44 -0,7 C -1,1 C 1,1 C 92 % 1027,9 hPa 0,0 l/m 2,8 km/h (1 Bft) S-SW 204 0 min 0,000 mm 0,0 UV-I 42 W/m -1,8 C -0,7 C 8,0 km/h (2 Bft)
06.02.2019 08:46 -0,6 C -1,1 C 1,1 C 92 % 1027,9 hPa 0,0 l/m 2,0 km/h (1 Bft) S-SW 204 0 min 0,000 mm 0,0 UV-I 46 W/m -1,7 C -0,6 C 6,4 km/h (2 Bft)
06.02.2019 08:48 -0,6 C -0,6 C 1,1 C 92 % 1028,0 hPa 0,0 l/m 4,6 km/h (1 Bft) S-SW 212 0 min 0,000 mm 0,0 UV-I 46 W/m -1,7 C -2,1 C 9,7 km/h (2 Bft)
06.02.2019 08:50 -0,5 C -0,6 C 1,1 C 92 % 1027,9 hPa 0,0 l/m 4,7 km/h (1 Bft) S-SW 202 0 min 0,000 mm 0,0 UV-I 47 W/m -1,6 C -2,0 C 12,9 km/h (3 Bft)
06.02.2019 08:52 -0,4 C -0,6 C 1,1 C 92 % 1027,9 hPa 0,0 l/m 5,2 km/h (1 Bft) S-SW 198 0 min 0,000 mm 0,0 UV-I 47 W/m -1,5 C -2,1 C 11,3 km/h (2 Bft)
06.02.2019 08:54 -0,4 C -0,6 C 1,1 C 92 % 1027,9 hPa 0,0 l/m 4,7 km/h (1 Bft) S-SW 194 0 min 0,000 mm 0,0 UV-I 49 W/m -1,5 C -1,9 C 8,0 km/h (2 Bft)
06.02.2019 08:56 -0,3 C -0,6 C 1,1 C 91 % 1027,9 hPa 0,0 l/m 6,1 km/h (2 Bft) S 191 0 min 0,000 mm 0,0 UV-I 49 W/m -1,6 C -2,4 C 9,7 km/h (2 Bft)
06.02.2019 08:58 -0,3 C -0,6 C 1,1 C 91 % 1027,8 hPa 0,0 l/m 4,4 km/h (1 Bft) SW 223 0 min 0,000 mm 0,0 UV-I 51 W/m -1,6 C -0,3 C 9,7 km/h (2 Bft)
06.02.2019 09:00 -0,2 C -0,6 C 1,1 C 91 % 1027,8 hPa 0,0 l/m 5,2 km/h (1 Bft) S 183 0 min 0,000 mm 0,0 UV-I 53 W/m -1,5 C -1,9 C 12,9 km/h (3 Bft)
06.02.2019 09:02 -0,2 C -0,6 C 1,1 C 91 % 1027,8 hPa 0,0 l/m 5,1 km/h (1 Bft) S 186 0 min 0,025 mm 0,0 UV-I 53 W/m -1,5 C -1,9 C 8,0 km/h (2 Bft)
06.02.2019 09:04 -0,2 C 0,0 C 1,1 C 91 % 1027,7 hPa 0,0 l/m 5,0 km/h (1 Bft) S 190 0 min 0,000 mm 0,0 UV-I 54 W/m -1,5 C -1,8 C 9,7 km/h (2 Bft)
06.02.2019 09:06 -0,1 C 0,0 C 1,1 C 91 % 1027,7 hPa 0,0 l/m 2,5 km/h (1 Bft) S 190 0 min 0,000 mm 0,0 UV-I 54 W/m -1,4 C -0,1 C 6,4 km/h (2 Bft)
06.02.2019 09:08 0,0 C 0,0 C 1,1 C 91 % 1027,7 hPa 0,0 l/m 6,1 km/h (2 Bft) S-SW 200 0 min 0,000 mm 0,0 UV-I 54 W/m -1,3 C -2,1 C 11,3 km/h (2 Bft)
06.02.2019 09:10 0,1 C 0,0 C 1,1 C 90 % 1027,8 hPa 0,0 l/m 5,6 km/h (2 Bft) S 186 0 min 0,000 mm 0,5 UV-I 56 W/m -1,3 C -1,7 C 12,9 km/h (3 Bft)
06.02.2019 09:12 0,1 C 0,0 C 1,1 C 90 % 1027,8 hPa 0,0 l/m 7,0 km/h (2 Bft) S 188 0 min 0,000 mm 0,6 UV-I 62 W/m -1,3 C -2,3 C 14,5 km/h (3 Bft)
06.02.2019 09:14 0,2 C 0,0 C 1,1 C 90 % 1027,8 hPa 0,0 l/m 5,1 km/h (1 Bft) S-SW 203 0 min 0,000 mm 0,6 UV-I 56 W/m -1,2 C -1,4 C 11,3 km/h (2 Bft)
06.02.2019 09:16 0,2 C 0,0 C 1,1 C 90 % 1027,8 hPa 0,0 l/m 4,0 km/h (1 Bft) S-SW 206 0 min 0,000 mm 0,0 UV-I 54 W/m -1,2 C 0,2 C 9,7 km/h (2 Bft)
06.02.2019 09:18 0,3 C 0,0 C 1,1 C 89 % 1027,7 hPa 0,0 l/m 5,2 km/h (1 Bft) S-SW 197 0 min 0,000 mm 0,6 UV-I 56 W/m -1,3 C -1,3 C 9,7 km/h (2 Bft)
06.02.2019 09:20 0,4 C 0,0 C 1,1 C 89 % 1027,7 hPa 0,0 l/m 4,8 km/h (1 Bft) S-SW 201 0 min 0,000 mm 0,6 UV-I 56 W/m -1,2 C -1,0 C 9,7 km/h (2 Bft)
06.02.2019 09:22 0,4 C 0,6 C 1,1 C 89 % 1027,7 hPa 0,0 l/m 2,6 km/h (1 Bft) SW 224 0 min 0,000 mm 0,6 UV-I 58 W/m -1,2 C 0,4 C 8,0 km/h (2 Bft)
06.02.2019 09:24 0,5 C 0,6 C 1,1 C 89 % 1027,7 hPa 0,0 l/m 3,2 km/h (1 Bft) S-SW 200 0 min 0,000 mm 0,6 UV-I 58 W/m -1,1 C 0,5 C 8,0 km/h (2 Bft)
06.02.2019 09:26 0,6 C 0,6 C 1,1 C 89 % 1027,7 hPa 0,0 l/m 3,4 km/h (1 Bft) S-SW 206 0 min 0,000 mm 0,6 UV-I 62 W/m -1,0 C 0,6 C 9,7 km/h (2 Bft)
06.02.2019 09:28 0,6 C 0,6 C 1,1 C 89 % 1027,7 hPa 0,0 l/m 6,3 km/h (2 Bft) S-SW 203 0 min 0,000 mm 0,6 UV-I 65 W/m -1,0 C -1,5 C 14,5 km/h (3 Bft)
06.02.2019 09:30 0,7 C 0,6 C 1,1 C 88 % 1027,6 hPa 0,0 l/m 3,9 km/h (1 Bft) SW 217 0 min 0,000 mm 0,6 UV-I 70 W/m -1,1 C 0,7 C 9,7 km/h (2 Bft)
06.02.2019 09:32 0,8 C 1,1 C 1,1 C 88 % 1027,6 hPa 0,0 l/m 7,9 km/h (2 Bft) SW 225 0 min 0,000 mm 0,6 UV-I 105 W/m -1,0 C -1,8 C 12,9 km/h (3 Bft)
06.02.2019 09:34 0,9 C 1,1 C 1,1 C 88 % 1027,6 hPa 0,0 l/m 5,7 km/h (2 Bft) S 189 2 min 0,000 mm 0,6 UV-I 165 W/m -0,9 C -0,9 C 12,9 km/h (3 Bft)
06.02.2019 09:36 0,9 C 1,1 C 1,1 C 87 % 1027,5 hPa 0,0 l/m 4,5 km/h (1 Bft) S-SW 192 2 min 0,000 mm 0,7 UV-I 174 W/m -1,0 C 0,9 C 12,9 km/h (3 Bft)
06.02.2019 09:38 1,1 C 1,1 C 1,1 C 87 % 1027,5 hPa 0,0 l/m 4,3 km/h (1 Bft) S-SW 197 2 min 0,000 mm 0,7 UV-I 185 W/m -0,8 C 1,1 C 9,7 km/h (2 Bft)
06.02.2019 09:40 1,1 C 1,1 C 1,1 C 87 % 1027,4 hPa 0,0 l/m 3,7 km/h (1 Bft) S-SW 204 2 min 0,000 mm 0,7 UV-I 190 W/m -0,8 C 1,1 C 8,0 km/h (2 Bft)
06.02.2019 09:42 1,3 C 1,7 C 1,1 C 86 % 1027,5 hPa 0,0 l/m 2,4 km/h (1 Bft) SW 221 2 min 0,000 mm 0,7 UV-I 188 W/m -0,8 C 1,3 C 6,4 km/h (2 Bft)
06.02.2019 09:44 1,4 C 2,2 C 1,1 C 86 % 1027,4 hPa 0,0 l/m 1,7 km/h (1 Bft) S-SW 210 2 min 0,000 mm 0,7 UV-I 183 W/m -0,7 C 1,4 C 8,0 km/h (2 Bft)
06.02.2019 09:46 1,5 C 2,2 C 1,1 C 86 % 1027,4 hPa 0,0 l/m 6,1 km/h (2 Bft) S 188 2 min 0,000 mm 0,7 UV-I 163 W/m -0,6 C -0,3 C 14,5 km/h (3 Bft)
06.02.2019 09:48 1,6 C 2,2 C 1,1 C 85 % 1027,3 hPa 0,0 l/m 8,0 km/h (2 Bft) S-SW 197 2 min 0,000 mm 0,7 UV-I 174 W/m -0,6 C -0,9 C 16,1 km/h (3 Bft)
06.02.2019 09:50 1,7 C 2,2 C 1,1 C 85 % 1027,2 hPa 0,0 l/m 6,1 km/h (2 Bft) SW 215 2 min 0,000 mm 0,7 UV-I 193 W/m -0,5 C -0,1 C 14,5 km/h (3 Bft)
06.02.2019 09:52 1,7 C 2,2 C 1,1 C 84 % 1027,2 hPa 0,0 l/m 6,0 km/h (2 Bft) S-SW 195 2 min 0,000 mm 0,7 UV-I 202 W/m -0,7 C -0,1 C 14,5 km/h (3 Bft)
06.02.2019 09:54 1,8 C 2,8 C 1,1 C 84 % 1027,1 hPa 0,0 l/m 6,5 km/h (2 Bft) S 176 2 min 0,000 mm 0,7 UV-I 209 W/m -0,6 C -0,1 C 12,9 km/h (3 Bft)
06.02.2019 09:56 1,9 C 3,3 C 1,1 C 84 % 1027,1 hPa 0,0 l/m 6,7 km/h (2 Bft) S-SW 210 2 min 0,000 mm 0,7 UV-I 227 W/m -0,5 C -0,1 C 19,3 km/h (3 Bft)
06.02.2019 09:58 1,9 C 3,9 C 1,1 C 84 % 1027,1 hPa 0,0 l/m 6,3 km/h (2 Bft) SW 215 2 min 0,000 mm 0,8 UV-I 237 W/m -0,5 C 0,0 C 12,9 km/h (3 Bft)
06.02.2019 10:00 2,0 C 4,4 C 1,1 C 83 % 1027,0 hPa 0,0 l/m 8,1 km/h (2 Bft) S 188 2 min 0,000 mm 0,8 UV-I 216 W/m -0,6 C -0,4 C 14,5 km/h (3 Bft)
06.02.2019 10:02 2,1 C 4,4 C 1,1 C 83 % 1027,0 hPa 0,0 l/m 6,6 km/h (2 Bft) S-SW 206 2 min 0,051 mm 0,8 UV-I 179 W/m -0,5 C 0,2 C 14,5 km/h (3 Bft)
06.02.2019 10:04 2,1 C 4,4 C 1,1 C 83 % 1027,0 hPa 0,0 l/m 6,7 km/h (2 Bft) SW 214 2 min 0,000 mm 0,8 UV-I 183 W/m -0,5 C 0,1 C 16,1 km/h (3 Bft)
06.02.2019 10:06 2,1 C 3,9 C 1,1 C 83 % 1026,9 hPa 0,0 l/m 7,8 km/h (2 Bft) S-SW 196 0 min 0,000 mm 0,8 UV-I 134 W/m -0,5 C -0,2 C 16,1 km/h (3 Bft)
06.02.2019 10:08 2,1 C 3,3 C 1,1 C 83 % 1026,9 hPa 0,0 l/m 10,2 km/h (2 Bft) S-SW 196 0 min 0,000 mm 0,8 UV-I 156 W/m -0,5 C -0,9 C 22,5 km/h (4 Bft)
06.02.2019 10:10 2,1 C 3,3 C 1,1 C 82 % 1026,9 hPa 0,0 l/m 7,5 km/h (2 Bft) S-SW 201 0 min 0,000 mm 0,8 UV-I 146 W/m -0,6 C -0,1 C 14,5 km/h (3 Bft)
06.02.2019 10:12 2,1 C 3,3 C 1,1 C 82 % 1026,8 hPa 0,0 l/m 7,3 km/h (2 Bft) SW 223 0 min 0,000 mm 0,8 UV-I 149 W/m -0,6 C -0,1 C 16,1 km/h (3 Bft)
06.02.2019 10:14 2,1 C 3,3 C 1,1 C 82 % 1026,8 hPa 0,0 l/m 9,2 km/h (2 Bft) S 176 0 min 0,000 mm 0,8 UV-I 155 W/m -0,6 C -0,6 C 16,1 km/h (3 Bft)
06.02.2019 10:16 2,1 C 3,3 C 1,1 C 83 % 1026,8 hPa 0,0 l/m 10,1 km/h (2 Bft) S-SW 193 2 min 0,000 mm 0,8 UV-I 179 W/m -0,5 C -0,8 C 19,3 km/h (3 Bft)
06.02.2019 10:18 2,2 C 3,9 C 1,1 C 82 % 1026,7 hPa 0,0 l/m 9,8 km/h (2 Bft) SW 228 2 min 0,000 mm 0,9 UV-I 288 W/m -0,5 C -0,6 C 16,1 km/h (3 Bft)
06.02.2019 10:20 2,3 C 5,0 C 1,1 C 82 % 1026,7 hPa 0,0 l/m 7,2 km/h (2 Bft) S-SW 206 2 min 0,000 mm 0,9 UV-I 297 W/m -0,4 C 0,2 C 14,5 km/h (3 Bft)
06.02.2019 10:22 2,4 C 5,6 C 1,1 C 82 % 1026,7 hPa 0,0 l/m 9,2 km/h (2 Bft) S-SW 195 2 min 0,000 mm 0,9 UV-I 294 W/m -0,4 C -0,2 C 16,1 km/h (3 Bft)
06.02.2019 10:24 2,6 C 6,1 C 1,1 C 82 % 1026,7 hPa 0,0 l/m 5,1 km/h (1 Bft) S-SW 192 2 min 0,000 mm 0,9 UV-I 295 W/m -0,2 C 1,3 C 11,3 km/h (2 Bft)
06.02.2019 10:26 2,7 C 6,1 C 1,1 C 81 % 1026,7 hPa 0,0 l/m 5,6 km/h (2 Bft) S-SW 206 2 min 0,000 mm 0,9 UV-I 301 W/m -0,2 C 1,2 C 11,3 km/h (2 Bft)
06.02.2019 10:28 2,8 C 6,1 C 1,1 C 81 % 1026,8 hPa 0,0 l/m 6,4 km/h (2 Bft) S-SW 198 2 min 0,000 mm 0,9 UV-I 313 W/m -0,1 C 1,1 C 12,9 km/h (3 Bft)
06.02.2019 10:30 2,9 C 6,1 C 1,1 C 80 % 1026,7 hPa 0,0 l/m 7,1 km/h (2 Bft) S-SW 210 2 min 0,000 mm 0,9 UV-I 292 W/m -0,2 C 0,9 C 16,1 km/h (3 Bft)
06.02.2019 10:32 2,9 C 6,1 C 1,1 C 80 % 1026,7 hPa 0,0 l/m 3,8 km/h (1 Bft) S-SW 212 2 min 0,000 mm 0,9 UV-I 258 W/m -0,2 C 2,9 C 8,0 km/h (2 Bft)
06.02.2019 10:34 3,0 C 5,6 C 1,1 C 80 % 1026,7 hPa 0,0 l/m 7,6 km/h (2 Bft) SW 219 2 min 0,000 mm 1,0 UV-I 318 W/m -0,1 C 0,9 C 12,9 km/h (3 Bft)
06.02.2019 10:36 3,1 C 6,1 C 1,1 C 80 % 1026,7 hPa 0,0 l/m 4,6 km/h (1 Bft) S 188 2 min 0,000 mm 1,0 UV-I 322 W/m -0,0 C 2,1 C 9,7 km/h (2 Bft)
06.02.2019 10:38 3,3 C 6,1 C 1,1 C 80 % 1026,6 hPa 0,0 l/m 2,9 km/h (1 Bft) S-SW 198 2 min 0,000 mm 1,0 UV-I 334 W/m 0,2 C 3,3 C 9,7 km/h (2 Bft)
06.02.2019 10:40 3,4 C 6,1 C 1,1 C 79 % 1026,7 hPa 0,0 l/m 5,2 km/h (1 Bft) S 191 2 min 0,000 mm 1,0 UV-I 320 W/m 0,1 C 2,2 C 12,9 km/h (3 Bft)
06.02.2019 10:42 3,5 C 6,7 C 1,1 C 79 % 1026,6 hPa 0,0 l/m 4,4 km/h (1 Bft) SW 231 2 min 0,000 mm 1,0 UV-I 318 W/m 0,2 C 3,5 C 12,9 km/h (3 Bft)
06.02.2019 10:44 3,5 C 6,7 C 1,1 C 79 % 1026,6 hPa 0,0 l/m 10,9 km/h (2 Bft) SW 232 2 min 0,000 mm 1,0 UV-I 336 W/m 0,2 C 0,7 C 16,1 km/h (3 Bft)
06.02.2019 10:46 3,5 C 6,7 C 1,1 C 79 % 1026,5 hPa 0,0 l/m 8,4 km/h (2 Bft) SW 219 2 min 0,000 mm 1,0 UV-I 325 W/m 0,2 C 1,3 C 12,9 km/h (3 Bft)
06.02.2019 10:48 3,6 C 6,7 C 1,1 C 78 % 1026,5 hPa 0,0 l/m 8,3 km/h (2 Bft) S-SW 206 2 min 0,000 mm 1,0 UV-I 322 W/m 0,1 C 1,4 C 16,1 km/h (3 Bft)
06.02.2019 10:50 3,6 C 6,7 C 1,1 C 78 % 1026,5 hPa 0,0 l/m 8,8 km/h (2 Bft) SW 224 2 min 0,000 mm 1,0 UV-I 316 W/m 0,1 C 1,3 C 14,5 km/h (3 Bft)
06.02.2019 10:52 3,7 C 6,1 C 1,1 C 78 % 1026,5 hPa 0,0 l/m 10,4 km/h (2 Bft) S-SW 197 2 min 0,000 mm 1,0 UV-I 315 W/m 0,2 C 1,0 C 17,7 km/h (3 Bft)
06.02.2019 10:54 3,8 C 6,7 C 1,1 C 78 % 1026,5 hPa 0,0 l/m 5,0 km/h (1 Bft) SW 214 2 min 0,000 mm 1,0 UV-I 315 W/m 0,3 C 2,7 C 12,9 km/h (3 Bft)
06.02.2019 10:56 3,9 C 6,7 C 1,1 C 78 % 1026,4 hPa 0,0 l/m 8,2 km/h (2 Bft) S-SO 166 2 min 0,000 mm 1,0 UV-I 308 W/m 0,4 C 1,8 C 16,1 km/h (3 Bft)
06.02.2019 10:58 3,9 C 6,1 C 1,1 C 77 % 1026,4 hPa 0,0 l/m 8,3 km/h (2 Bft) SW 216 2 min 0,000 mm 1,0 UV-I 292 W/m 0,2 C 1,8 C 14,5 km/h (3 Bft)
06.02.2019 11:00 3,9 C 6,1 C 1,1 C 77 % 1026,3 hPa 0,0 l/m 6,1 km/h (2 Bft) SW 222 2 min 0,000 mm 1,0 UV-I 288 W/m 0,2 C 2,4 C 14,5 km/h (3 Bft)
06.02.2019 11:02 4,1 C 6,7 C 1,1 C 78 % 1026,4 hPa 0,0 l/m 2,4 km/h (1 Bft) S-SW 206 2 min 0,102 mm 1,0 UV-I 272 W/m 0,6 C 4,1 C 9,7 km/h (2 Bft)
06.02.2019 11:04 4,1 C 6,7 C 1,7 C 77 % 1026,3 hPa 0,0 l/m 4,1 km/h (1 Bft) S-SW 209 2 min 0,000 mm 1,0 UV-I 265 W/m 0,4 C 4,1 C 8,0 km/h (2 Bft)
06.02.2019 11:06 4,2 C 7,2 C 1,7 C 77 % 1026,3 hPa 0,0 l/m 5,2 km/h (1 Bft) S-SW 206 2 min 0,000 mm 1,1 UV-I 309 W/m 0,5 C 3,1 C 9,7 km/h (2 Bft)
06.02.2019 11:08 4,2 C 6,7 C 1,1 C 77 % 1026,3 hPa 0,0 l/m 10,6 km/h (2 Bft) S-SW 208 2 min 0,000 mm 1,1 UV-I 302 W/m 0,5 C 1,6 C 22,5 km/h (4 Bft)
06.02.2019 11:10 4,2 C 6,7 C 1,7 C 76 % 1026,3 hPa 0,0 l/m 13,0 km/h (3 Bft) S 188 2 min 0,000 mm 1,1 UV-I 302 W/m 0,4 C 1,1 C 19,3 km/h (3 Bft)
06.02.2019 11:12 4,1 C 6,7 C 1,1 C 77 % 1026,3 hPa 0,0 l/m 8,9 km/h (2 Bft) S-SW 200 2 min 0,000 mm 1,1 UV-I 292 W/m 0,4 C 1,8 C 22,5 km/h (4 Bft)
06.02.2019 11:14 4,1 C 6,7 C 1,1 C 77 % 1026,2 hPa 0,0 l/m 9,0 km/h (2 Bft) SW 230 2 min 0,000 mm 1,1 UV-I 299 W/m 0,4 C 1,8 C 20,9 km/h (4 Bft)
06.02.2019 11:16 4,2 C 6,7 C 1,1 C 77 % 1026,3 hPa 0,0 l/m 7,1 km/h (2 Bft) SW 216 2 min 0,000 mm 1,1 UV-I 283 W/m 0,5 C 2,5 C 12,9 km/h (3 Bft)
06.02.2019 11:18 4,3 C 7,2 C 1,1 C 77 % 1026,2 hPa 0,0 l/m 4,0 km/h (1 Bft) SW 218 2 min 0,000 mm 1,1 UV-I 316 W/m 0,6 C 4,3 C 8,0 km/h (2 Bft)
06.02.2019 11:20 4,4 C 7,8 C 1,7 C 76 % 1026,2 hPa 0,0 l/m 4,8 km/h (1 Bft) SW 221 2 min 0,000 mm 1,1 UV-I 353 W/m 0,5 C 3,5 C 9,7 km/h (2 Bft)
06.02.2019 11:22 4,5 C 8,3 C 1,1 C 76 % 1026,2 hPa 0,0 l/m 3,0 km/h (1 Bft) SW 221 2 min 0,000 mm 1,1 UV-I 350 W/m 0,6 C 4,5 C 6,4 km/h (2 Bft)
06.02.2019 11:24 4,6 C 7,8 C 1,1 C 75 % 1026,2 hPa 0,0 l/m 6,1 km/h (2 Bft) S-SW 208 2 min 0,000 mm 1,1 UV-I 313 W/m 0,6 C 3,2 C 11,3 km/h (2 Bft)
06.02.2019 11:26 4,6 C 7,8 C 1,7 C 75 % 1026,2 hPa 0,0 l/m 3,9 km/h (1 Bft) S-SW 210 2 min 0,000 mm 1,1 UV-I 318 W/m 0,6 C 4,6 C 9,7 km/h (2 Bft)
06.02.2019 11:28 4,7 C 7,8 C 1,7 C 75 % 1026,2 hPa 0,0 l/m 4,1 km/h (1 Bft) SW 219 2 min 0,000 mm 1,1 UV-I 327 W/m 0,7 C 4,7 C 11,3 km/h (2 Bft)
06.02.2019 11:30 4,6 C 7,2 C 1,1 C 74 % 1026,1 hPa 0,0 l/m 7,6 km/h (2 Bft) S-SW 192 2 min 0,000 mm 1,1 UV-I 281 W/m 0,4 C 2,8 C 11,3 km/h (2 Bft)
06.02.2019 11:32 4,7 C 7,2 C 1,7 C 75 % 1026,1 hPa 0,0 l/m 3,1 km/h (1 Bft) S-SW 208 2 min 0,000 mm 1,1 UV-I 265 W/m 0,7 C 4,7 C 8,0 km/h (2 Bft)
06.02.2019 11:34 4,6 C 7,2 C 1,7 C 75 % 1026,1 hPa 0,0 l/m 2,3 km/h (1 Bft) S 190 2 min 0,000 mm 1,1 UV-I 287 W/m 0,6 C 4,6 C 14,5 km/h (3 Bft)
06.02.2019 11:36 4,7 C 7,2 C 1,1 C 75 % 1026,0 hPa 0,0 l/m 6,6 km/h (2 Bft) S-SW 193 2 min 0,000 mm 1,1 UV-I 366 W/m 0,7 C 3,2 C 16,1 km/h (3 Bft)
06.02.2019 11:38 4,9 C 7,2 C 1,1 C 75 % 1025,9 hPa 0,0 l/m 2,3 km/h (1 Bft) S-SW 201 2 min 0,000 mm 1,2 UV-I 373 W/m 0,8 C 4,9 C 6,4 km/h (2 Bft)
06.02.2019 11:40 5,1 C 7,8 C 1,7 C 74 % 1025,9 hPa 0,0 l/m 4,9 km/h (1 Bft) S 188 2 min 0,000 mm 1,2 UV-I 376 W/m 0,9 C 4,2 C 12,9 km/h (3 Bft)
06.02.2019 11:42 5,1 C 7,8 C 1,7 C 73 % 1025,8 hPa 0,0 l/m 2,8 km/h (1 Bft) S-SW 193 2 min 0,000 mm 1,1 UV-I 355 W/m 0,7 C 5,1 C 11,3 km/h (2 Bft)
06.02.2019 11:44 5,1 C 7,8 C 1,1 C 73 % 1025,8 hPa 0,0 l/m 7,7 km/h (2 Bft) S-SW 200 2 min 0,000 mm 1,1 UV-I 330 W/m 0,7 C 3,3 C 14,5 km/h (3 Bft)
06.02.2019 11:46 5,1 C 7,2 C 1,7 C 73 % 1025,8 hPa 0,0 l/m 7,3 km/h (2 Bft) S-SW 200 2 min 0,000 mm 1,1 UV-I 306 W/m 0,7 C 3,4 C 11,3 km/h (2 Bft)
06.02.2019 11:48 5,1 C 7,2 C 1,7 C 73 % 1025,7 hPa 0,0 l/m 2,1 km/h (1 Bft) S 174 2 min 0,000 mm 1,1 UV-I 320 W/m 0,7 C 5,1 C 9,7 km/h (2 Bft)
06.02.2019 11:50 5,3 C 7,8 C 1,1 C 73 % 1025,7 hPa 0,0 l/m 3,8 km/h (1 Bft) S 182 2 min 0,000 mm 1,1 UV-I 329 W/m 0,9 C 5,3 C 11,3 km/h (2 Bft)
06.02.2019 11:52 5,4 C 7,8 C 1,7 C 72 % 1025,7 hPa 0,0 l/m 2,3 km/h (1 Bft) S-SW 195 2 min 0,000 mm 1,1 UV-I 325 W/m 0,8 C 5,4 C 11,3 km/h (2 Bft)
06.02.2019 11:54 5,3 C 7,8 C 1,1 C 72 % 1025,6 hPa 0,0 l/m 4,9 km/h (1 Bft) S 185 2 min 0,000 mm 1,1 UV-I 341 W/m 0,7 C 4,5 C 12,9 km/h (3 Bft)
06.02.2019 11:56 5,3 C 7,8 C 1,7 C 73 % 1025,6 hPa 0,0 l/m 5,6 km/h (2 Bft) S-SW 209 2 min 0,000 mm 1,2 UV-I 350 W/m 0,9 C 4,2 C 14,5 km/h (3 Bft)
06.02.2019 11:58 5,2 C 7,8 C 1,7 C 73 % 1025,5 hPa 0,0 l/m 3,4 km/h (1 Bft) S-SW 200 2 min 0,000 mm 1,2 UV-I 366 W/m 0,8 C 5,2 C 11,3 km/h (2 Bft)
06.02.2019 12:00 5,2 C 7,8 C 1,7 C 72 % 1025,5 hPa 0,0 l/m 6,6 km/h (2 Bft) S 183 2 min 0,000 mm 1,2 UV-I 374 W/m 0,6 C 3,8 C 14,5 km/h (3 Bft)
06.02.2019 12:02 5,3 C 7,8 C 1,7 C 73 % 1025,4 hPa 0,0 l/m 8,2 km/h (2 Bft) S 184 2 min 0,127 mm 1,2 UV-I 380 W/m 0,9 C 3,4 C 17,7 km/h (3 Bft)
06.02.2019 12:04 5,3 C 7,8 C 1,7 C 72 % 1025,4 hPa 0,0 l/m 7,7 km/h (2 Bft) S-SO 167 2 min 0,000 mm 1,2 UV-I 359 W/m 0,7 C 3,6 C 19,3 km/h (3 Bft)
06.02.2019 12:06 5,4 C 7,8 C 1,7 C 72 % 1025,4 hPa 0,0 l/m 8,4 km/h (2 Bft) S 174 2 min 0,000 mm 1,2 UV-I 387 W/m 0,8 C 3,5 C 12,9 km/h (3 Bft)
06.02.2019 12:08 5,4 C 7,8 C 1,7 C 72 % 1025,3 hPa 0,0 l/m 6,8 km/h (2 Bft) S 176 2 min 0,000 mm 1,2 UV-I 352 W/m 0,8 C 3,9 C 12,9 km/h (3 Bft)
06.02.2019 12:10 5,4 C 7,8 C 1,7 C 72 % 1025,3 hPa 0,0 l/m 8,9 km/h (2 Bft) S 171 2 min 0,000 mm 1,2 UV-I 404 W/m 0,8 C 3,4 C 16,1 km/h (3 Bft)
06.02.2019 12:12 5,6 C 8,9 C 1,7 C 73 % 1025,2 hPa 0,0 l/m 1,5 km/h (1 Bft) S-SW 206 2 min 0,000 mm 1,2 UV-I 401 W/m 1,2 C 5,6 C 6,4 km/h (2 Bft)
06.02.2019 12:14 5,8 C 9,4 C 1,7 C 72 % 1025,1 hPa 0,0 l/m 2,6 km/h (1 Bft) S 169 2 min 0,000 mm 1,2 UV-I 352 W/m 1,2 C 5,8 C 9,7 km/h (2 Bft)
06.02.2019 12:16 5,8 C 8,9 C 1,7 C 71 % 1025,1 hPa 0,0 l/m 7,0 km/h (2 Bft) S-SW 198 2 min 0,000 mm 1,2 UV-I 404 W/m 1,0 C 4,3 C 16,1 km/h (3 Bft)
06.02.2019 12:18 5,9 C 8,9 C 1,7 C 72 % 1025,1 hPa 0,0 l/m 1,4 km/h (1 Bft) S-SW 212 2 min 0,000 mm 1,3 UV-I 445 W/m 1,2 C 5,9 C 9,7 km/h (2 Bft)
06.02.2019 12:20 6,1 C 10,0 C 1,7 C 71 % 1025,1 hPa 0,0 l/m 6,1 km/h (2 Bft) S-SW 210 2 min 0,000 mm 1,3 UV-I 441 W/m 1,2 C 5,0 C 12,9 km/h (3 Bft)
06.02.2019 12:22 6,2 C 10,0 C 1,7 C 71 % 1025,1 hPa 0,0 l/m 1,4 km/h (1 Bft) SW 217 2 min 0,000 mm 1,2 UV-I 410 W/m 1,3 C 6,2 C 4,8 km/h (1 Bft)
06.02.2019 12:24 6,2 C 10,0 C 1,7 C 71 % 1025,0 hPa 0,0 l/m 4,1 km/h (1 Bft) S 181 2 min 0,000 mm 1,2 UV-I 418 W/m 1,3 C 6,2 C 16,1 km/h (3 Bft)
06.02.2019 12:26 6,2 C 10,0 C 1,7 C 71 % 1024,9 hPa 0,0 l/m 5,3 km/h (1 Bft) S 188 2 min 0,000 mm 1,2 UV-I 371 W/m 1,3 C 5,3 C 17,7 km/h (3 Bft)
06.02.2019 12:28 6,2 C 9,4 C 1,7 C 70 % 1024,9 hPa 0,0 l/m 6,7 km/h (2 Bft) SW 217 2 min 0,000 mm 1,1 UV-I 339 W/m 1,1 C 4,9 C 19,3 km/h (3 Bft)
06.02.2019 12:30 6,1 C 9,4 C 1,7 C 71 % 1024,8 hPa 0,0 l/m 3,5 km/h (1 Bft) S-SO 163 2 min 0,000 mm 1,1 UV-I 315 W/m 1,2 C 6,1 C 12,9 km/h (3 Bft)
06.02.2019 12:32 6,0 C 8,9 C 1,7 C 71 % 1024,9 hPa 0,0 l/m 4,6 km/h (1 Bft) S-SW 204 2 min 0,000 mm 1,1 UV-I 290 W/m 1,1 C 5,4 C 11,3 km/h (2 Bft)
06.02.2019 12:34 5,9 C 8,3 C 1,7 C 71 % 1024,8 hPa 0,0 l/m 6,9 km/h (2 Bft) S 181 2 min 0,000 mm 1,1 UV-I 306 W/m 1,1 C 4,5 C 16,1 km/h (3 Bft)
06.02.2019 12:36 5,9 C 8,9 C 1,7 C 72 % 1024,8 hPa 0,0 l/m 4,3 km/h (1 Bft) SW 221 2 min 0,000 mm 1,1 UV-I 311 W/m 1,2 C 5,9 C 16,1 km/h (3 Bft)
06.02.2019 12:38 5,9 C 8,9 C 1,7 C 72 % 1024,9 hPa 0,0 l/m 6,2 km/h (2 Bft) S-SW 208 2 min 0,000 mm 1,1 UV-I 330 W/m 1,2 C 4,7 C 17,7 km/h (3 Bft)
06.02.2019 12:40 5,9 C 8,9 C 1,7 C 72 % 1024,8 hPa 0,0 l/m 3,5 km/h (1 Bft) S-SW 194 2 min 0,000 mm 1,1 UV-I 345 W/m 1,2 C 5,9 C 12,9 km/h (3 Bft)
06.02.2019 12:42 5,9 C 8,9 C 1,7 C 71 % 1024,8 hPa 0,0 l/m 9,0 km/h (2 Bft) SW 230 2 min 0,000 mm 1,1 UV-I 345 W/m 1,1 C 4,0 C 19,3 km/h (3 Bft)
06.02.2019 12:44 5,9 C 8,9 C 1,7 C 71 % 1024,8 hPa 0,0 l/m 6,2 km/h (2 Bft) S-SW 212 2 min 0,000 mm 1,1 UV-I 359 W/m 1,1 C 4,7 C 17,7 km/h (3 Bft)
06.02.2019 12:46 5,9 C 8,9 C 1,7 C 71 % 1024,8 hPa 0,0 l/m 8,4 km/h (2 Bft) SW 235 2 min 0,000 mm 1,1 UV-I 360 W/m 1,1 C 4,1 C 20,9 km/h (4 Bft)
06.02.2019 12:48 5,9 C 8,9 C 1,7 C 72 % 1024,8 hPa 0,0 l/m 6,1 km/h (2 Bft) S-SW 210 2 min 0,000 mm 1,1 UV-I 350 W/m 1,2 C 4,7 C 14,5 km/h (3 Bft)
06.02.2019 12:50 5,9 C 8,3 C 1,7 C 71 % 1024,7 hPa 0,0 l/m 7,7 km/h (2 Bft) S 182 2 min 0,000 mm 1,1 UV-I 364 W/m 1,1 C 4,3 C 19,3 km/h (3 Bft)
06.02.2019 12:52 6,0 C 8,9 C 1,7 C 71 % 1024,7 hPa 0,0 l/m 7,8 km/h (2 Bft) S 185 2 min 0,000 mm 1,1 UV-I 334 W/m 1,1 C 4,4 C 17,7 km/h (3 Bft)
06.02.2019 12:54 6,1 C 8,9 C 1,7 C 71 % 1024,7 hPa 0,0 l/m 2,7 km/h (1 Bft) S-SW 195 2 min 0,000 mm 1,1 UV-I 304 W/m 1,2 C 6,1 C 16,1 km/h (3 Bft)
06.02.2019 12:56 6,1 C 8,9 C 1,7 C 72 % 1024,7 hPa 0,0 l/m 3,4 km/h (1 Bft) SW 223 2 min 0,000 mm 1,1 UV-I 279 W/m 1,4 C 6,1 C 9,7 km/h (2 Bft)
06.02.2019 12:58 6,1 C 8,9 C 1,7 C 72 % 1024,7 hPa 0,0 l/m 1,3 km/h (1 Bft) S 169 2 min 0,000 mm 1,1 UV-I 274 W/m 1,4 C 6,1 C 12,9 km/h (3 Bft)
06.02.2019 13:00 6,2 C 8,9 C 1,7 C 71 % 1024,7 hPa 0,0 l/m 8,8 km/h (2 Bft) S-SW 195 2 min 0,000 mm 1,1 UV-I 262 W/m 1,3 C 4,4 C 16,1 km/h (3 Bft)
06.02.2019 13:02 6,1 C 8,9 C 1,7 C 71 % 1024,7 hPa 0,0 l/m 5,0 km/h (1 Bft) SW 215 2 min 0,152 mm 1,1 UV-I 281 W/m 1,2 C 5,3 C 17,7 km/h (3 Bft)
06.02.2019 13:04 6,1 C 8,3 C 1,7 C 71 % 1024,6 hPa 0,0 l/m 3,8 km/h (1 Bft) S 171 2 min 0,000 mm 1,1 UV-I 288 W/m 1,2 C 6,1 C 9,7 km/h (2 Bft)
06.02.2019 13:06 6,1 C 8,9 C 1,7 C 72 % 1024,6 hPa 0,0 l/m 7,9 km/h (2 Bft) S 172 2 min 0,000 mm 1,1 UV-I 279 W/m 1,4 C 4,5 C 14,5 km/h (3 Bft)
06.02.2019 13:08 6,1 C 8,9 C 1,7 C 71 % 1024,4 hPa 0,0 l/m 6,4 km/h (2 Bft) S-SW 200 2 min 0,000 mm 1,1 UV-I 281 W/m 1,2 C 4,9 C 14,5 km/h (3 Bft)
06.02.2019 13:10 6,3 C 8,9 C 1,7 C 71 % 1024,5 hPa 0,0 l/m 3,3 km/h (1 Bft) S 188 2 min 0,000 mm 1,1 UV-I 294 W/m 1,4 C 6,3 C 12,9 km/h (3 Bft)
06.02.2019 13:12 6,3 C 9,4 C 1,7 C 71 % 1024,5 hPa 0,0 l/m 1,3 km/h (1 Bft) S 179 2 min 0,000 mm 1,1 UV-I 315 W/m 1,4 C 6,3 C 8,0 km/h (2 Bft)
06.02.2019 13:14 6,4 C 9,4 C 1,7 C 70 % 1024,4 hPa 0,0 l/m 3,7 km/h (1 Bft) SW 218 2 min 0,000 mm 1,1 UV-I 316 W/m 1,3 C 6,4 C 11,3 km/h (2 Bft)
06.02.2019 13:16 6,5 C 10,0 C 1,7 C 71 % 1024,4 hPa 0,0 l/m 1,8 km/h (1 Bft) S-SO 168 2 min 0,000 mm 1,1 UV-I 320 W/m 1,6 C 6,5 C 8,0 km/h (2 Bft)
06.02.2019 13:18 6,6 C 10,0 C 1,7 C 71 % 1024,3 hPa 0,0 l/m 2,9 km/h (1 Bft) S 173 2 min 0,000 mm 1,0 UV-I 306 W/m 1,7 C 6,6 C 14,5 km/h (3 Bft)
06.02.2019 13:20 6,7 C 10,0 C 1,7 C 70 % 1024,3 hPa 0,0 l/m 5,6 km/h (2 Bft) SW 225 2 min 0,000 mm 1,1 UV-I 327 W/m 1,6 C 5,8 C 16,1 km/h (3 Bft)
06.02.2019 13:22 6,7 C 9,4 C 1,7 C 70 % 1024,3 hPa 0,0 l/m 5,1 km/h (1 Bft) S 188 2 min 0,000 mm 1,1 UV-I 302 W/m 1,6 C 6,0 C 14,5 km/h (3 Bft)
06.02.2019 13:24 6,7 C 9,4 C 1,7 C 70 % 1024,3 hPa 0,0 l/m 5,3 km/h (1 Bft) S 189 2 min 0,000 mm 1,0 UV-I 285 W/m 1,6 C 5,9 C 16,1 km/h (3 Bft)
06.02.2019 13:26 6,7 C 9,4 C 1,7 C 70 % 1024,3 hPa 0,0 l/m 5,3 km/h (1 Bft) SW 229 2 min 0,000 mm 1,0 UV-I 269 W/m 1,6 C 5,9 C 14,5 km/h (3 Bft)
06.02.2019 13:28 6,7 C 9,4 C 1,7 C 70 % 1024,2 hPa 0,0 l/m 11,4 km/h (2 Bft) SW 226 2 min 0,000 mm 1,0 UV-I 267 W/m 1,6 C 4,4 C 22,5 km/h (4 Bft)
06.02.2019 13:30 6,7 C 8,9 C 1,7 C 69 % 1024,2 hPa 0,0 l/m 7,1 km/h (2 Bft) S-SW 207 2 min 0,000 mm 1,0 UV-I 279 W/m 1,4 C 5,4 C 17,7 km/h (3 Bft)
06.02.2019 13:32 6,7 C 10,0 C 1,7 C 70 % 1024,1 hPa 0,0 l/m 2,3 km/h (1 Bft) SW 235 2 min 0,000 mm 1,0 UV-I 299 W/m 1,6 C 6,7 C 6,4 km/h (2 Bft)
06.02.2019 13:34 6,8 C 10,6 C 1,7 C 70 % 1024,1 hPa 0,0 l/m 4,1 km/h (1 Bft) S-SW 196 2 min 0,000 mm 1,0 UV-I 308 W/m 1,7 C 6,8 C 12,9 km/h (3 Bft)
06.02.2019 13:36 6,9 C 10,6 C 1,7 C 69 % 1024,1 hPa 0,0 l/m 6,5 km/h (2 Bft) S 191 2 min 0,000 mm 1,0 UV-I 327 W/m 1,6 C 5,8 C 16,1 km/h (3 Bft)
06.02.2019 13:38 6,9 C 10,6 C 1,7 C 69 % 1024,1 hPa 0,0 l/m 6,3 km/h (2 Bft) SW 221 2 min 0,000 mm 1,0 UV-I 323 W/m 1,6 C 5,8 C 16,1 km/h (3 Bft)
06.02.2019 13:40 6,9 C 10,6 C 1,7 C 69 % 1024,0 hPa 0,0 l/m 6,4 km/h (2 Bft) SW 224 2 min 0,000 mm 1,0 UV-I 330 W/m 1,6 C 5,8 C 14,5 km/h (3 Bft)
06.02.2019 13:42 7,0 C 10,6 C 1,7 C 69 % 1024,0 hPa 0,0 l/m 5,5 km/h (2 Bft) S-SW 204 2 min 0,000 mm 1,0 UV-I 306 W/m 1,7 C 6,2 C 12,9 km/h (3 Bft)
06.02.2019 13:44 7,1 C 10,6 C 1,7 C 69 % 1024,0 hPa 0,0 l/m 6,7 km/h (2 Bft) SW 221 2 min 0,000 mm 1,0 UV-I 265 W/m 1,8 C 5,9 C 14,5 km/h (3 Bft)
06.02.2019 13:46 7,1 C 10,0 C 1,7 C 68 % 1024,0 hPa 0,0 l/m 10,4 km/h (2 Bft) W-SW 242 2 min 0,000 mm 0,9 UV-I 243 W/m 1,6 C 5,1 C 16,1 km/h (3 Bft)
06.02.2019 13:48 6,9 C 9,4 C 1,7 C 68 % 1023,9 hPa 0,0 l/m 2,8 km/h (1 Bft) SW 227 2 min 0,000 mm 0,9 UV-I 229 W/m 1,4 C 6,9 C 14,5 km/h (3 Bft)
06.02.2019 13:50 6,9 C 9,4 C 1,7 C 68 % 1023,9 hPa 0,0 l/m 3,6 km/h (1 Bft) SW 218 2 min 0,000 mm 0,9 UV-I 220 W/m 1,4 C 6,9 C 11,3 km/h (2 Bft)
06.02.2019 13:52 6,9 C 8,9 C 1,7 C 68 % 1023,9 hPa 0,0 l/m 3,4 km/h (1 Bft) SW 230 2 min 0,000 mm 0,9 UV-I 218 W/m 1,4 C 6,9 C 8,0 km/h (2 Bft)
06.02.2019 13:54 6,9 C 8,9 C 1,7 C 69 % 1024,0 hPa 0,0 l/m 8,6 km/h (2 Bft) S-SW 208 2 min 0,000 mm 0,9 UV-I 211 W/m 1,6 C 5,2 C 16,1 km/h (3 Bft)
06.02.2019 13:56 6,8 C 8,9 C 1,7 C 69 % 1023,9 hPa 0,0 l/m 9,8 km/h (2 Bft) S 175 2 min 0,000 mm 0,9 UV-I 202 W/m 1,5 C 4,8 C 20,9 km/h (4 Bft)
06.02.2019 13:58 6,7 C 8,3 C 1,7 C 69 % 1023,9 hPa 0,0 l/m 3,8 km/h (1 Bft) S-SW 208 2 min 0,000 mm 0,9 UV-I 204 W/m 1,4 C 6,7 C 12,9 km/h (3 Bft)
06.02.2019 14:00 6,7 C 8,9 C 1,7 C 70 % 1023,9 hPa 0,0 l/m 4,9 km/h (1 Bft) SW 227 2 min 0,000 mm 0,9 UV-I 211 W/m 1,6 C 6,0 C 9,7 km/h (2 Bft)
06.02.2019 14:02 6,6 C 8,9 C 1,7 C 70 % 1023,8 hPa 0,0 l/m 5,2 km/h (1 Bft) S 181 2 min 0,127 mm 0,9 UV-I 232 W/m 1,5 C 5,8 C 17,7 km/h (3 Bft)
06.02.2019 14:04 6,6 C 8,9 C 1,7 C 70 % 1023,8 hPa 0,0 l/m 9,4 km/h (2 Bft) S-SW 197 2 min 0,000 mm 0,9 UV-I 229 W/m 1,5 C 4,7 C 20,9 km/h (4 Bft)
06.02.2019 14:06 6,6 C 8,9 C 1,7 C 70 % 1023,8 hPa 0,0 l/m 7,2 km/h (2 Bft) SW 217 2 min 0,000 mm 0,9 UV-I 237 W/m 1,5 C 5,2 C 12,9 km/h (3 Bft)
06.02.2019 14:08 6,7 C 8,9 C 1,7 C 70 % 1023,9 hPa 0,0 l/m 3,6 km/h (1 Bft) S-SW 210 2 min 0,000 mm 0,9 UV-I 246 W/m 1,6 C 6,7 C 8,0 km/h (2 Bft)
06.02.2019 14:10 6,7 C 9,4 C 1,7 C 70 % 1023,8 hPa 0,0 l/m 5,3 km/h (1 Bft) SW 229 2 min 0,000 mm 0,9 UV-I 262 W/m 1,6 C 5,9 C 17,7 km/h (3 Bft)
06.02.2019 14:12 6,7 C 9,4 C 1,7 C 69 % 1023,9 hPa 0,0 l/m 1,7 km/h (1 Bft) SW 230 2 min 0,000 mm 0,9 UV-I 260 W/m 1,4 C 6,7 C 8,0 km/h (2 Bft)
06.02.2019 14:14 6,8 C 10,0 C 1,7 C 70 % 1023,9 hPa 0,0 l/m 2,4 km/h (1 Bft) S-SO 149 2 min 0,000 mm 0,9 UV-I 278 W/m 1,7 C 6,8 C 14,5 km/h (3 Bft)
06.02.2019 14:16 7,0 C 10,0 C 1,7 C 69 % 1023,8 hPa 0,0 l/m 3,9 km/h (1 Bft) S 172 2 min 0,000 mm 0,9 UV-I 267 W/m 1,7 C 7,0 C 14,5 km/h (3 Bft)
06.02.2019 14:18 7,0 C 9,4 C 1,7 C 69 % 1023,8 hPa 0,0 l/m 7,4 km/h (2 Bft) S-SW 195 2 min 0,000 mm 0,9 UV-I 243 W/m 1,7 C 5,6 C 19,3 km/h (3 Bft)
06.02.2019 14:20 6,9 C 8,9 C 1,7 C 69 % 1023,8 hPa 0,0 l/m 6,6 km/h (2 Bft) S-SW 198 2 min 0,000 mm 0,8 UV-I 225 W/m 1,6 C 5,7 C 12,9 km/h (3 Bft)
06.02.2019 14:22 6,8 C 8,9 C 1,7 C 69 % 1023,9 hPa 0,0 l/m 6,8 km/h (2 Bft) S-SW 193 2 min 0,000 mm 0,8 UV-I 225 W/m 1,5 C 5,6 C 19,3 km/h (3 Bft)
06.02.2019 14:24 6,9 C 8,9 C 1,7 C 69 % 1023,8 hPa 0,0 l/m 6,5 km/h (2 Bft) W-SW 242 2 min 0,000 mm 0,8 UV-I 214 W/m 1,6 C 5,8 C 16,1 km/h (3 Bft)
06.02.2019 14:26 6,8 C 8,3 C 1,7 C 69 % 1023,9 hPa 0,0 l/m 9,2 km/h (2 Bft) S-SW 208 2 min 0,000 mm 0,8 UV-I 206 W/m 1,5 C 5,0 C 20,9 km/h (4 Bft)
06.02.2019 14:28 6,7 C 8,3 C 1,7 C 69 % 1023,8 hPa 0,0 l/m 6,1 km/h (2 Bft) SW 228 2 min 0,000 mm 0,8 UV-I 197 W/m 1,4 C 5,6 C 12,9 km/h (3 Bft)
06.02.2019 14:30 6,7 C 8,3 C 1,7 C 69 % 1023,8 hPa 0,0 l/m 7,6 km/h (2 Bft) S-SW 200 2 min 0,000 mm 0,8 UV-I 190 W/m 1,4 C 5,2 C 17,7 km/h (3 Bft)
06.02.2019 14:32 6,7 C 8,3 C 1,7 C 70 % 1023,7 hPa 0,0 l/m 3,8 km/h (1 Bft) SW 217 2 min 0,000 mm 0,8 UV-I 188 W/m 1,6 C 6,7 C 12,9 km/h (3 Bft)
06.02.2019 14:34 6,7 C 8,3 C 1,7 C 69 % 1023,7 hPa 0,0 l/m 6,5 km/h (2 Bft) SW 220 2 min 0,000 mm 0,8 UV-I 181 W/m 1,4 C 5,5 C 16,1 km/h (3 Bft)
06.02.2019 14:36 6,7 C 8,3 C 1,7 C 70 % 1023,7 hPa 0,0 l/m 7,0 km/h (2 Bft) SW 235 2 min 0,000 mm 0,8 UV-I 176 W/m 1,6 C 5,4 C 16,1 km/h (3 Bft)
06.02.2019 14:38 6,7 C 8,3 C 1,7 C 70 % 1023,7 hPa 0,0 l/m 4,5 km/h (1 Bft) S-SW 192 2 min 0,000 mm 0,8 UV-I 172 W/m 1,6 C 6,7 C 11,3 km/h (2 Bft)
06.02.2019 14:40 6,7 C 8,3 C 1,7 C 70 % 1023,6 hPa 0,0 l/m 5,9 km/h (2 Bft) S-SW 192 2 min 0,000 mm 0,8 UV-I 181 W/m 1,6 C 5,7 C 12,9 km/h (3 Bft)
06.02.2019 14:42 6,6 C 8,3 C 1,7 C 70 % 1023,7 hPa 0,0 l/m 6,1 km/h (2 Bft) SW 225 2 min 0,000 mm 0,7 UV-I 190 W/m 1,5 C 5,5 C 12,9 km/h (3 Bft)
06.02.2019 14:44 6,7 C 8,3 C 1,7 C 70 % 1023,6 hPa 0,0 l/m 3,1 km/h (1 Bft) SW 217 2 min 0,000 mm 0,7 UV-I 221 W/m 1,6 C 6,7 C 9,7 km/h (2 Bft)
06.02.2019 14:46 6,7 C 8,9 C 1,7 C 70 % 1023,7 hPa 0,0 l/m 4,6 km/h (1 Bft) S-SW 194 2 min 0,000 mm 0,7 UV-I 230 W/m 1,6 C 6,2 C 12,9 km/h (3 Bft)
06.02.2019 14:48 6,8 C 9,4 C 1,7 C 70 % 1023,6 hPa 0,0 l/m 7,4 km/h (2 Bft) S-SW 211 2 min 0,000 mm 0,7 UV-I 206 W/m 1,7 C 5,4 C 16,1 km/h (3 Bft)
06.02.2019 14:50 6,8 C 8,9 C 1,7 C 70 % 1023,6 hPa 0,0 l/m 8,2 km/h (2 Bft) SW 229 2 min 0,000 mm 0,7 UV-I 200 W/m 1,7 C 5,2 C 16,1 km/h (3 Bft)
06.02.2019 14:52 6,8 C 8,9 C 1,7 C 69 % 1023,6 hPa 0,0 l/m 7,4 km/h (2 Bft) SW 219 2 min 0,000 mm 0,7 UV-I 190 W/m 1,5 C 5,4 C 14,5 km/h (3 Bft)
06.02.2019 14:54 6,8 C 8,9 C 1,7 C 70 % 1023,6 hPa 0,0 l/m 3,0 km/h (1 Bft) S 181 2 min 0,000 mm 0,7 UV-I 190 W/m 1,7 C 6,8 C 9,7 km/h (2 Bft)
06.02.2019 14:56 6,8 C 8,9 C 1,7 C 70 % 1023,6 hPa 0,0 l/m 5,9 km/h (2 Bft) S-SW 208 2 min 0,000 mm 0,7 UV-I 181 W/m 1,7 C 5,8 C 17,7 km/h (3 Bft)
06.02.2019 14:58 6,7 C 8,3 C 1,7 C 69 % 1023,5 hPa 0,0 l/m 11,4 km/h (2 Bft) SW 220 2 min 0,000 mm 0,7 UV-I 186 W/m 1,4 C 4,4 C 19,3 km/h (3 Bft)
06.02.2019 15:00 6,7 C 8,3 C 1,7 C 70 % 1023,6 hPa 0,0 l/m 3,3 km/h (1 Bft) S 187 2 min 0,000 mm 0,7 UV-I 176 W/m 1,6 C 6,7 C 9,7 km/h (2 Bft)
06.02.2019 15:02 6,7 C 8,9 C 1,7 C 70 % 1023,5 hPa 0,0 l/m 5,8 km/h (2 Bft) S-SW 206 2 min 0,102 mm 0,6 UV-I 172 W/m 1,6 C 5,7 C 19,3 km/h (3 Bft)
06.02.2019 15:04 6,6 C 8,9 C 1,7 C 70 % 1023,6 hPa 0,0 l/m 9,4 km/h (2 Bft) S-SW 192 2 min 0,000 mm 0,6 UV-I 160 W/m 1,5 C 4,7 C 16,1 km/h (3 Bft)
06.02.2019 15:06 6,6 C 8,3 C 1,7 C 70 % 1023,6 hPa 0,0 l/m 6,8 km/h (2 Bft) S-SW 210 2 min 0,000 mm 0,6 UV-I 155 W/m 1,5 C 5,3 C 16,1 km/h (3 Bft)
06.02.2019 15:08 6,6 C 8,3 C 1,7 C 70 % 1023,6 hPa 0,0 l/m 6,0 km/h (2 Bft) S 183 2 min 0,000 mm 0,6 UV-I 155 W/m 1,5 C 5,6 C 20,9 km/h (4 Bft)
06.02.2019 15:10 6,6 C 8,3 C 1,7 C 70 % 1023,6 hPa 0,0 l/m 9,0 km/h (2 Bft) S-SW 204 2 min 0,000 mm 0,6 UV-I 156 W/m 1,5 C 4,8 C 20,9 km/h (4 Bft)
06.02.2019 15:12 6,5 C 7,8 C 1,7 C 70 % 1023,6 hPa 0,0 l/m 5,4 km/h (2 Bft) SW 217 2 min 0,000 mm 0,6 UV-I 155 W/m 1,4 C 5,6 C 12,9 km/h (3 Bft)
06.02.2019 15:14 6,5 C 7,8 C 1,7 C 71 % 1023,6 hPa 0,0 l/m 4,0 km/h (1 Bft) SW 221 2 min 0,000 mm 0,6 UV-I 141 W/m 1,6 C 6,5 C 11,3 km/h (2 Bft)
06.02.2019 15:16 6,5 C 7,8 C 1,7 C 71 % 1023,6 hPa 0,0 l/m 4,2 km/h (1 Bft) W-SW 240 2 min 0,000 mm 0,6 UV-I 142 W/m 1,6 C 6,5 C 9,7 km/h (2 Bft)
06.02.2019 15:18 6,5 C 7,2 C 1,7 C 71 % 1023,6 hPa 0,0 l/m 6,0 km/h (2 Bft) SW 219 2 min 0,000 mm 0,6 UV-I 132 W/m 1,6 C 5,4 C 16,1 km/h (3 Bft)
06.02.2019 15:20 6,5 C 7,2 C 1,7 C 71 % 1023,6 hPa 0,0 l/m 6,9 km/h (2 Bft) S-SW 201 2 min 0,000 mm 0,5 UV-I 123 W/m 1,6 C 5,2 C 14,5 km/h (3 Bft)
06.02.2019 15:22 6,5 C 7,2 C 1,7 C 71 % 1023,6 hPa 0,0 l/m 2,5 km/h (1 Bft) SW 219 0 min 0,000 mm 0,5 UV-I 116 W/m 1,6 C 6,5 C 12,9 km/h (3 Bft)
06.02.2019 15:24 6,4 C 7,2 C 1,7 C 70 % 1023,6 hPa 0,0 l/m 9,2 km/h (2 Bft) S-SW 209 0 min 0,000 mm 0,5 UV-I 114 W/m 1,3 C 4,5 C 17,7 km/h (3 Bft)
06.02.2019 15:26 6,4 C 6,7 C 1,7 C 70 % 1023,6 hPa 0,0 l/m 6,0 km/h (2 Bft) S-SW 210 0 min 0,000 mm 0,5 UV-I 109 W/m 1,3 C 5,3 C 16,1 km/h (3 Bft)
06.02.2019 15:28 6,3 C 6,7 C 1,7 C 71 % 1023,6 hPa 0,0 l/m 5,1 km/h (1 Bft) S-SW 213 0 min 0,000 mm 0,5 UV-I 105 W/m 1,4 C 5,5 C 9,7 km/h (2 Bft)
06.02.2019 15:30 6,3 C 6,7 C 1,7 C 71 % 1023,5 hPa 0,0 l/m 3,4 km/h (1 Bft) S-SW 204 0 min 0,000 mm 0,5 UV-I 102 W/m 1,4 C 6,3 C 11,3 km/h (2 Bft)
06.02.2019 15:32 6,3 C 6,7 C 1,7 C 71 % 1023,5 hPa 0,0 l/m 4,0 km/h (1 Bft) S-SW 192 0 min 0,000 mm 0,5 UV-I 102 W/m 1,4 C 6,3 C 8,0 km/h (2 Bft)
06.02.2019 15:34 6,2 C 6,7 C 1,7 C 71 % 1023,5 hPa 0,0 l/m 7,1 km/h (2 Bft) S-SW 206 0 min 0,000 mm 0,5 UV-I 102 W/m 1,3 C 4,8 C 14,5 km/h (3 Bft)
06.02.2019 15:36 6,2 C 6,7 C 1,7 C 71 % 1023,5 hPa 0,0 l/m 6,8 km/h (2 Bft) S-SW 207 0 min 0,000 mm 0,5 UV-I 97 W/m 1,3 C 4,9 C 16,1 km/h (3 Bft)
06.02.2019 15:38 6,2 C 6,1 C 1,7 C 72 % 1023,5 hPa 0,0 l/m 5,4 km/h (2 Bft) S-SW 202 0 min 0,000 mm 0,5 UV-I 93 W/m 1,5 C 5,3 C 9,7 km/h (2 Bft)
06.02.2019 15:40 6,1 C 6,1 C 1,7 C 72 % 1023,4 hPa 0,0 l/m 4,2 km/h (1 Bft) S-SW 211 0 min 0,000 mm 0,5 UV-I 88 W/m 1,4 C 6,1 C 11,3 km/h (2 Bft)
06.02.2019 15:42 6,1 C 6,1 C 1,7 C 72 % 1023,4 hPa 0,0 l/m 2,3 km/h (1 Bft) S-SW 200 0 min 0,000 mm 0,5 UV-I 81 W/m 1,4 C 6,1 C 8,0 km/h (2 Bft)
06.02.2019 15:44 6,1 C 6,1 C 2,2 C 72 % 1023,4 hPa 0,0 l/m 2,3 km/h (1 Bft) S-SW 206 0 min 0,000 mm 0,0 UV-I 77 W/m 1,4 C 6,1 C 6,4 km/h (2 Bft)
06.02.2019 15:46 6,1 C 6,1 C 1,7 C 72 % 1023,4 hPa 0,0 l/m 4,2 km/h (1 Bft) S-SW 208 0 min 0,000 mm 0,0 UV-I 74 W/m 1,4 C 6,1 C 9,7 km/h (2 Bft)
06.02.2019 15:48 6,1 C 6,1 C 1,7 C 72 % 1023,4 hPa 0,0 l/m 1,2 km/h (1 Bft) S-SW 202 0 min 0,000 mm 0,0 UV-I 70 W/m 1,4 C 6,1 C 8,0 km/h (2 Bft)
06.02.2019 15:50 6,1 C 6,1 C 1,7 C 76 % 1023,4 hPa 0,0 l/m 2,6 km/h (1 Bft) SW 215 0 min 0,000 mm 0,0 UV-I 67 W/m 2,2 C 6,1 C 9,7 km/h (2 Bft)
06.02.2019 15:52 6,0 C 6,1 C 1,7 C 73 % 1023,3 hPa 0,0 l/m 2,6 km/h (1 Bft) S-SW 202 0 min 0,000 mm 0,0 UV-I 65 W/m 1,5 C 6,0 C 9,7 km/h (2 Bft)
06.02.2019 15:54 6,0 C 6,1 C 1,7 C 73 % 1023,3 hPa 0,0 l/m 4,3 km/h (1 Bft) SW 216 0 min 0,000 mm 0,0 UV-I 62 W/m 1,5 C 6,0 C 11,3 km/h (2 Bft)
06.02.2019 15:56 6,0 C 6,1 C 1,7 C 73 % 1023,2 hPa 0,0 l/m 4,1 km/h (1 Bft) SW 221 0 min 0,000 mm 0,0 UV-I 58 W/m 1,5 C 6,0 C 9,7 km/h (2 Bft)
06.02.2019 15:58 6,0 C 6,1 C 1,7 C 73 % 1023,2 hPa 0,0 l/m 5,6 km/h (2 Bft) S-SW 198 0 min 0,000 mm 0,0 UV-I 56 W/m 1,5 C 5,0 C 9,7 km/h (2 Bft)
06.02.2019 16:00 5,9 C 5,6 C 1,7 C 73 % 1023,2 hPa 0,0 l/m 4,3 km/h (1 Bft) SW 221 0 min 0,000 mm 0,0 UV-I 53 W/m 1,4 C 5,9 C 12,9 km/h (3 Bft)
06.02.2019 16:02 5,9 C 5,6 C 1,7 C 73 % 1023,2 hPa 0,0 l/m 4,6 km/h (1 Bft) S-SW 196 0 min 0,051 mm 0,0 UV-I 49 W/m 1,4 C 5,3 C 9,7 km/h (2 Bft)
06.02.2019 16:04 5,9 C 5,6 C 1,7 C 73 % 1023,1 hPa 0,0 l/m 3,7 km/h (1 Bft) S-SW 213 0 min 0,000 mm 0,0 UV-I 46 W/m 1,4 C 5,9 C 11,3 km/h (2 Bft)
06.02.2019 16:06 5,9 C 5,6 C 1,7 C 73 % 1023,1 hPa 0,0 l/m 4,3 km/h (1 Bft) S-SW 208 0 min 0,000 mm 0,0 UV-I 42 W/m 1,4 C 5,9 C 9,7 km/h (2 Bft)
06.02.2019 16:08 5,8 C 5,6 C 1,7 C 73 % 1023,1 hPa 0,0 l/m 4,0 km/h (1 Bft) S 178 0 min 0,000 mm 0,0 UV-I 40 W/m 1,3 C 5,8 C 12,9 km/h (3 Bft)
06.02.2019 16:10 5,8 C 5,6 C 1,7 C 73 % 1023,0 hPa 0,0 l/m 3,6 km/h (1 Bft) S-SW 200 0 min 0,000 mm 0,0 UV-I 39 W/m 1,3 C 5,8 C 9,7 km/h (2 Bft)
06.02.2019 16:12 5,8 C 5,6 C 1,7 C 73 % 1023,1 hPa 0,0 l/m 4,6 km/h (1 Bft) SW 214 0 min 0,000 mm 0,0 UV-I 35 W/m 1,3 C 5,1 C 9,7 km/h (2 Bft)
06.02.2019 16:14 5,8 C 5,6 C 1,7 C 73 % 1023,1 hPa 0,0 l/m 5,5 km/h (2 Bft) SW 218 0 min 0,000 mm 0,0 UV-I 33 W/m 1,3 C 4,8 C 12,9 km/h (3 Bft)
06.02.2019 16:16 5,7 C 5,0 C 1,7 C 74 % 1023,1 hPa 0,0 l/m 3,5 km/h (1 Bft) SW 218 0 min 0,000 mm 0,0 UV-I 32 W/m 1,4 C 5,7 C 12,9 km/h (3 Bft)
06.02.2019 16:18 5,7 C 5,0 C 1,7 C 74 % 1023,0 hPa 0,0 l/m 3,7 km/h (1 Bft) S-SW 197 0 min 0,000 mm 0,0 UV-I 30 W/m 1,4 C 5,7 C 9,7 km/h (2 Bft)
06.02.2019 16:20 5,7 C 5,0 C 1,7 C 74 % 1023,0 hPa 0,0 l/m 1,9 km/h (1 Bft) S-SW 193 0 min 0,000 mm 0,0 UV-I 28 W/m 1,4 C 5,7 C 6,4 km/h (2 Bft)
06.02.2019 16:22 5,7 C 5,0 C 1,7 C 74 % 1023,0 hPa 0,0 l/m 3,6 km/h (1 Bft) S 191 0 min 0,000 mm 0,0 UV-I 25 W/m 1,4 C 5,7 C 8,0 km/h (2 Bft)
06.02.2019 16:24 5,6 C 5,0 C 1,7 C 74 % 1023,0 hPa 0,0 l/m 4,0 km/h (1 Bft) S-SW 196 0 min 0,000 mm 0,0 UV-I 23 W/m 1,3 C 5,6 C 11,3 km/h (2 Bft)
06.02.2019 16:26 5,6 C 5,0 C 1,7 C 74 % 1023,0 hPa 0,0 l/m 5,0 km/h (1 Bft) S-SW 208 0 min 0,000 mm 0,0 UV-I 21 W/m 1,3 C 4,8 C 11,3 km/h (2 Bft)
06.02.2019 16:28 5,6 C 5,0 C 1,7 C 74 % 1023,0 hPa 0,0 l/m 2,5 km/h (1 Bft) SW 216 0 min 0,000 mm 0,0 UV-I 21 W/m 1,3 C 5,6 C 6,4 km/h (2 Bft)
06.02.2019 16:30 5,6 C 5,0 C 1,7 C 74 % 1023,0 hPa 0,0 l/m 1,2 km/h (1 Bft) SW 215 0 min 0,000 mm 0,0 UV-I 19 W/m 1,3 C 5,6 C 4,8 km/h (1 Bft)
06.02.2019 16:32 5,6 C 5,0 C 1,7 C 74 % 1023,0 hPa 0,0 l/m 2,9 km/h (1 Bft) SW 214 0 min 0,000 mm 0,0 UV-I 18 W/m 1,3 C 5,6 C 8,0 km/h (2 Bft)
06.02.2019 16:34 5,6 C 5,0 C 1,7 C 74 % 1022,9 hPa 0,0 l/m 1,7 km/h (1 Bft) SW 214 0 min 0,000 mm 0,0 UV-I 16 W/m 1,3 C 5,6 C 8,0 km/h (2 Bft)
06.02.2019 16:36 5,5 C 5,0 C 1,7 C 74 % 1023,0 hPa 0,0 l/m 1,5 km/h (1 Bft) S-SW 207 0 min 0,000 mm 0,0 UV-I 16 W/m 1,2 C 5,5 C 8,0 km/h (2 Bft)
06.02.2019 16:38 5,4 C 4,4 C 1,7 C 75 % 1022,9 hPa 0,0 l/m 4,8 km/h (1 Bft) SW 215 0 min 0,000 mm 0,0 UV-I 14 W/m 1,3 C 4,6 C 11,3 km/h (2 Bft)
06.02.2019 16:40 5,4 C 4,4 C 1,7 C 75 % 1022,9 hPa 0,0 l/m 0,5 km/h (0 Bft) SW 215 0 min 0,000 mm 0,0 UV-I 12 W/m 1,3 C 5,4 C 4,8 km/h (1 Bft)
06.02.2019 16:42 5,4 C 4,4 C 1,7 C 75 % 1022,9 hPa 0,0 l/m 0,1 km/h (0 Bft) SW 215 0 min 0,000 mm 0,0 UV-I 12 W/m 1,3 C 5,4 C 1,6 km/h (1 Bft)
06.02.2019 16:44 5,4 C 4,4 C 1,7 C 75 % 1022,8 hPa 0,0 l/m 1,5 km/h (1 Bft) S-SW 208 0 min 0,000 mm 0,0 UV-I 11 W/m 1,3 C 5,4 C 8,0 km/h (2 Bft)
06.02.2019 16:46 5,4 C 4,4 C 1,7 C 75 % 1022,8 hPa 0,0 l/m 1,7 km/h (1 Bft) S-SW 192 0 min 0,000 mm 0,0 UV-I 11 W/m 1,3 C 5,4 C 6,4 km/h (2 Bft)
06.02.2019 16:48 5,3 C 4,4 C 1,7 C 75 % 1022,9 hPa 0,0 l/m 2,8 km/h (1 Bft) SW 224 0 min 0,000 mm 0,0 UV-I 9 W/m 1,2 C 5,3 C 8,0 km/h (2 Bft)
06.02.2019 16:50 5,3 C 4,4 C 1,7 C 75 % 1022,8 hPa 0,0 l/m 2,6 km/h (1 Bft) SW 215 0 min 0,000 mm 0,0 UV-I 7 W/m 1,2 C 5,3 C 6,4 km/h (2 Bft)
06.02.2019 16:52 5,3 C 4,4 C 1,7 C 75 % 1022,8 hPa 0,0 l/m 3,0 km/h (1 Bft) S-SW 210 0 min 0,000 mm 0,0 UV-I 7 W/m 1,2 C 5,3 C 6,4 km/h (2 Bft)
06.02.2019 16:54 5,3 C 3,9 C 1,7 C 75 % 1022,7 hPa 0,0 l/m 2,7 km/h (1 Bft) S-SW 196 0 min 0,000 mm 0,0 UV-I 5 W/m 1,2 C 5,3 C 8,0 km/h (2 Bft)
06.02.2019 16:56 5,2 C 3,9 C 1,7 C 76 % 1022,8 hPa 0,0 l/m 5,1 km/h (1 Bft) S-SW 208 0 min 0,000 mm 0,0 UV-I 5 W/m 1,3 C 4,3 C 12,9 km/h (3 Bft)
06.02.2019 16:58 5,2 C 3,9 C 1,7 C 76 % 1022,7 hPa 0,0 l/m 5,2 km/h (1 Bft) SW 215 0 min 0,000 mm 0,0 UV-I 0 W/m 1,3 C 4,2 C 9,7 km/h (2 Bft)
06.02.2019 17:00 5,2 C 4,4 C 1,7 C 76 % 1022,7 hPa 0,0 l/m 4,7 km/h (1 Bft) S-SW 213 0 min 0,000 mm 0,0 UV-I 0 W/m 1,3 C 4,4 C 9,7 km/h (2 Bft)
06.02.2019 17:02 5,1 C 4,4 C 1,7 C 76 % 1022,7 hPa 0,0 l/m 6,3 km/h (2 Bft) S-SW 201 0 min 0,025 mm 0,0 UV-I 0 W/m 1,2 C 3,7 C 11,3 km/h (2 Bft)
06.02.2019 17:04 5,1 C 3,9 C 1,7 C 76 % 1022,7 hPa 0,0 l/m 3,1 km/h (1 Bft) S-SW 198 0 min 0,000 mm 0,0 UV-I 0 W/m 1,2 C 5,1 C 8,0 km/h (2 Bft)
06.02.2019 17:06 5,1 C 3,9 C 1,7 C 76 % 1022,7 hPa 0,0 l/m 4,7 km/h (1 Bft) S-SW 207 0 min 0,000 mm 0,0 UV-I 0 W/m 1,2 C 4,3 C 14,5 km/h (3 Bft)
06.02.2019 17:08 5,1 C 3,9 C 1,7 C 76 % 1022,7 hPa 0,0 l/m 3,2 km/h (1 Bft) S-SW 200 0 min 0,000 mm 0,0 UV-I 0 W/m 1,2 C 5,1 C 8,0 km/h (2 Bft)
06.02.2019 17:10 5,1 C 3,9 C 1,7 C 76 % 1022,7 hPa 0,0 l/m 2,4 km/h (1 Bft) S-SW 205 0 min 0,000 mm 0,0 UV-I 0 W/m 1,2 C 5,1 C 6,4 km/h (2 Bft)
06.02.2019 17:12 5,0 C 3,9 C 1,7 C 76 % 1022,7 hPa 0,0 l/m 2,5 km/h (1 Bft) S-SW 207 0 min 0,000 mm 0,0 UV-I 0 W/m 1,1 C 5,0 C 11,3 km/h (2 Bft)
06.02.2019 17:14 4,9 C 3,9 C 1,7 C 77 % 1022,6 hPa 0,0 l/m 5,6 km/h (2 Bft) SW 220 0 min 0,000 mm 0,0 UV-I 0 W/m 1,2 C 3,7 C 9,7 km/h (2 Bft)
06.02.2019 17:16 4,9 C 3,9 C 1,7 C 77 % 1022,7 hPa 0,0 l/m 5,4 km/h (2 Bft) S-SW 213 0 min 0,000 mm 0,0 UV-I 0 W/m 1,2 C 3,8 C 9,7 km/h (2 Bft)
06.02.2019 17:18 4,9 C 3,9 C 1,7 C 77 % 1022,6 hPa 0,0 l/m 3,7 km/h (1 Bft) SW 219 0 min 0,000 mm 0,0 UV-I 0 W/m 1,2 C 4,9 C 6,4 km/h (2 Bft)
06.02.2019 17:20 4,9 C 3,9 C 1,7 C 77 % 1022,7 hPa 0,0 l/m 6,0 km/h (2 Bft) S-SW 213 0 min 0,000 mm 0,0 UV-I 0 W/m 1,2 C 3,6 C 12,9 km/h (3 Bft)
06.02.2019 17:22 4,9 C 3,9 C 1,7 C 77 % 1022,7 hPa 0,0 l/m 6,9 km/h (2 Bft) SW 219 0 min 0,000 mm 0,0 UV-I 0 W/m 1,2 C 3,3 C 11,3 km/h (2 Bft)
06.02.2019 17:24 4,9 C 3,9 C 1,7 C 77 % 1022,6 hPa 0,0 l/m 5,3 km/h (1 Bft) S-SW 202 0 min 0,000 mm 0,0 UV-I 0 W/m 1,2 C 3,9 C 12,9 km/h (3 Bft)
06.02.2019 17:26 4,9 C 3,9 C 1,7 C 77 % 1022,7 hPa 0,0 l/m 8,7 km/h (2 Bft) S-SW 213 0 min 0,000 mm 0,0 UV-I 0 W/m 1,2 C 2,8 C 12,9 km/h (3 Bft)
06.02.2019 17:28 4,9 C 3,9 C 1,7 C 77 % 1022,7 hPa 0,0 l/m 7,9 km/h (2 Bft) S-SW 210 0 min 0,000 mm 0,0 UV-I 0 W/m 1,2 C 3,0 C 11,3 km/h (2 Bft)
06.02.2019 17:30 4,9 C 3,9 C 1,7 C 77 % 1022,7 hPa 0,0 l/m 6,3 km/h (2 Bft) S-SW 210 0 min 0,000 mm 0,0 UV-I 0 W/m 1,2 C 3,5 C 11,3 km/h (2 Bft)
06.02.2019 17:32 4,9 C 3,9 C 1,7 C 77 % 1022,7 hPa 0,0 l/m 6,5 km/h (2 Bft) SW 214 0 min 0,000 mm 0,0 UV-I 0 W/m 1,2 C 3,4 C 9,7 km/h (2 Bft)
06.02.2019 17:34 4,9 C 3,9 C 1,7 C 77 % 1022,7 hPa 0,0 l/m 6,6 km/h (2 Bft) SW 221 0 min 0,000 mm 0,0 UV-I 0 W/m 1,2 C 3,4 C 12,9 km/h (3 Bft)
06.02.2019 17:36 4,9 C 3,9 C 1,7 C 77 % 1022,7 hPa 0,0 l/m 5,9 km/h (2 Bft) SW 215 0 min 0,000 mm 0,0 UV-I 0 W/m 1,2 C 3,6 C 9,7 km/h (2 Bft)
06.02.2019 17:38 4,9 C 3,9 C 1,7 C 77 % 1022,7 hPa 0,0 l/m 3,4 km/h (1 Bft) S-SW 202 0 min 0,000 mm 0,0 UV-I 0 W/m 1,2 C 4,9 C 8,0 km/h (2 Bft)
06.02.2019 17:40 4,8 C 3,9 C 1,7 C 77 % 1022,7 hPa 0,0 l/m 3,8 km/h (1 Bft) SW 229 0 min 0,000 mm 0,0 UV-I 0 W/m 1,1 C 4,8 C 11,3 km/h (2 Bft)
06.02.2019 17:42 4,8 C 3,9 C 1,7 C 77 % 1022,7 hPa 0,0 l/m 5,0 km/h (1 Bft) SW 219 0 min 0,000 mm 0,0 UV-I 0 W/m 1,1 C 3,9 C 9,7 km/h (2 Bft)
06.02.2019 17:44 4,8 C 3,9 C 1,7 C 77 % 1022,7 hPa 0,0 l/m 6,1 km/h (2 Bft) S-SW 209 0 min 0,000 mm 0,0 UV-I 0 W/m 1,1 C 3,5 C 11,3 km/h (2 Bft)
06.02.2019 17:46 4,8 C 3,9 C 1,7 C 77 % 1022,7 hPa 0,0 l/m 4,0 km/h (1 Bft) S-SW 213 0 min 0,000 mm 0,0 UV-I 0 W/m 1,1 C 4,8 C 6,4 km/h (2 Bft)
06.02.2019 17:48 4,8 C 3,9 C 1,7 C 77 % 1022,7 hPa 0,0 l/m 4,4 km/h (1 Bft) SW 215 0 min 0,000 mm 0,0 UV-I 0 W/m 1,1 C 4,8 C 8,0 km/h (2 Bft)
06.02.2019 17:50 4,8 C 3,9 C 1,7 C 77 % 1022,7 hPa 0,0 l/m 4,0 km/h (1 Bft) SW 225 0 min 0,000 mm 0,0 UV-I 0 W/m 1,1 C 4,8 C 9,7 km/h (2 Bft)
06.02.2019 17:52 4,8 C 3,9 C 1,7 C 77 % 1022,7 hPa 0,0 l/m 3,5 km/h (1 Bft) S-SW 213 0 min 0,000 mm 0,0 UV-I 0 W/m 1,1 C 4,8 C 8,0 km/h (2 Bft)
06.02.2019 17:54 4,8 C 3,9 C 1,7 C 77 % 1022,7 hPa 0,0 l/m 4,7 km/h (1 Bft) S-SW 213 0 min 0,000 mm 0,0 UV-I 0 W/m 1,1 C 4,0 C 9,7 km/h (2 Bft)
06.02.2019 17:56 4,7 C 3,9 C 1,7 C 77 % 1022,7 hPa 0,0 l/m 1,9 km/h (1 Bft) S-SW 213 0 min 0,000 mm 0,0 UV-I 0 W/m 1,0 C 4,7 C 6,4 km/h (2 Bft)
06.02.2019 17:58 4,7 C 3,3 C 1,7 C 77 % 1022,6 hPa 0,0 l/m 0,5 km/h (0 Bft) S-SW 213 0 min 0,000 mm 0,0 UV-I 0 W/m 1,0 C 4,7 C 6,4 km/h (2 Bft)
06.02.2019 18:00 4,6 C 3,3 C 1,7 C 78 % 1022,6 hPa 0,0 l/m 0,6 km/h (0 Bft) SW 214 0 min 0,000 mm 0,0 UV-I 0 W/m 1,1 C 4,6 C 6,4 km/h (2 Bft)
06.02.2019 18:02 4,6 C 3,3 C 1,7 C 78 % 1022,6 hPa 0,0 l/m 2,9 km/h (1 Bft) S-SW 208 0 min 0,000 mm 0,0 UV-I 0 W/m 1,1 C 4,6 C 8,0 km/h (2 Bft)
06.02.2019 18:04 4,5 C 3,3 C 1,7 C 78 % 1022,6 hPa 0,0 l/m 4,1 km/h (1 Bft) SW 218 0 min 0,000 mm 0,0 UV-I 0 W/m 1,0 C 4,5 C 8,0 km/h (2 Bft)
06.02.2019 18:06 4,5 C 3,3 C 1,7 C 78 % 1022,6 hPa 0,0 l/m 4,5 km/h (1 Bft) SW 214 0 min 0,000 mm 0,0 UV-I 0 W/m 1,0 C 4,5 C 8,0 km/h (2 Bft)
06.02.2019 18:08 4,5 C 3,3 C 1,7 C 78 % 1022,6 hPa 0,0 l/m 5,5 km/h (2 Bft) SW 219 0 min 0,000 mm 0,0 UV-I 0 W/m 1,0 C 3,3 C 9,7 km/h (2 Bft)
06.02.2019 18:10 4,5 C 3,3 C 1,7 C 78 % 1022,6 hPa 0,0 l/m 5,5 km/h (2 Bft) SW 219 0 min 0,000 mm 0,0 UV-I 0 W/m 1,0 C 3,3 C 9,7 km/h (2 Bft)
06.02.2019 18:12 4,4 C 3,3 C 1,7 C 78 % 1022,6 hPa 0,0 l/m 5,8 km/h (2 Bft) S-SW 209 0 min 0,000 mm 0,0 UV-I 0 W/m 0,9 C 3,1 C 14,5 km/h (3 Bft)
06.02.2019 18:14 4,4 C 3,3 C 1,7 C 78 % 1022,6 hPa 0,0 l/m 3,5 km/h (1 Bft) S-SW 213 0 min 0,000 mm 0,0 UV-I 0 W/m 0,9 C 4,4 C 9,7 km/h (2 Bft)
06.02.2019 18:16 4,4 C 3,3 C 1,7 C 78 % 1022,5 hPa 0,0 l/m 3,5 km/h (1 Bft) S-SW 204 0 min 0,000 mm 0,0 UV-I 0 W/m 0,9 C 4,4 C 8,0 km/h (2 Bft)
06.02.2019 18:18 4,4 C 3,3 C 1,7 C 78 % 1022,6 hPa 0,0 l/m 2,2 km/h (1 Bft) S-SW 212 0 min 0,000 mm 0,0 UV-I 0 W/m 0,9 C 4,4 C 6,4 km/h (2 Bft)
06.02.2019 18:20 4,4 C 2,8 C 1,7 C 78 % 1022,5 hPa 0,0 l/m 3,6 km/h (1 Bft) S-SW 213 0 min 0,000 mm 0,0 UV-I 0 W/m 0,9 C 4,4 C 8,0 km/h (2 Bft)
06.02.2019 18:22 4,4 C 3,3 C 1,7 C 78 % 1022,5 hPa 0,0 l/m 4,4 km/h (1 Bft) S-SW 211 0 min 0,000 mm 0,0 UV-I 0 W/m 0,9 C 4,4 C 8,0 km/h (2 Bft)
06.02.2019 18:24 4,3 C 2,8 C 1,7 C 78 % 1022,5 hPa 0,0 l/m 3,8 km/h (1 Bft) SW 214 0 min 0,000 mm 0,0 UV-I 0 W/m 0,8 C 4,3 C 9,7 km/h (2 Bft)
06.02.2019 18:26 4,3 C 2,8 C 1,7 C 78 % 1022,4 hPa 0,0 l/m 5,5 km/h (2 Bft) SW 230 0 min 0,000 mm 0,0 UV-I 0 W/m 0,8 C 3,1 C 11,3 km/h (2 Bft)
06.02.2019 18:28 4,3 C 2,8 C 1,7 C 78 % 1022,4 hPa 0,0 l/m 5,9 km/h (2 Bft) SW 215 0 min 0,000 mm 0,0 UV-I 0 W/m 0,8 C 3,0 C 8,0 km/h (2 Bft)
06.02.2019 18:30 4,3 C 2,8 C 1,7 C 78 % 1022,5 hPa 0,0 l/m 4,6 km/h (1 Bft) SW 216 0 min 0,000 mm 0,0 UV-I 0 W/m 0,8 C 3,5 C 9,7 km/h (2 Bft)
06.02.2019 18:32 4,2 C 2,8 C 1,7 C 78 % 1022,5 hPa 0,0 l/m 5,5 km/h (2 Bft) SW 218 0 min 0,000 mm 0,0 UV-I 0 W/m 0,7 C 3,0 C 9,7 km/h (2 Bft)
06.02.2019 18:34 4,2 C 3,3 C 1,7 C 78 % 1022,5 hPa 0,0 l/m 5,1 km/h (1 Bft) S-SW 210 0 min 0,000 mm 0,0 UV-I 0 W/m 0,7 C 3,1 C 9,7 km/h (2 Bft)
06.02.2019 18:36 4,2 C 2,8 C 1,7 C 78 % 1022,4 hPa 0,0 l/m 2,2 km/h (1 Bft) S-SW 211 0 min 0,000 mm 0,0 UV-I 0 W/m 0,7 C 4,2 C 8,0 km/h (2 Bft)
06.02.2019 18:38 4,2 C 2,8 C 1,7 C 78 % 1022,4 hPa 0,0 l/m 4,0 km/h (1 Bft) SW 215 0 min 0,000 mm 0,0 UV-I 0 W/m 0,7 C 4,2 C 11,3 km/h (2 Bft)
06.02.2019 18:40 4,1 C 2,8 C 1,7 C 78 % 1022,4 hPa 0,0 l/m 2,7 km/h (1 Bft) S-SW 213 0 min 0,000 mm 0,0 UV-I 0 W/m 0,6 C 4,1 C 8,0 km/h (2 Bft)
06.02.2019 18:42 4,1 C 2,8 C 1,7 C 78 % 1022,4 hPa 0,0 l/m 4,6 km/h (1 Bft) SW 215 0 min 0,000 mm 0,0 UV-I 0 W/m 0,6 C 3,2 C 9,7 km/h (2 Bft)
06.02.2019 18:44 4,1 C 2,8 C 1,7 C 78 % 1022,4 hPa 0,0 l/m 1,5 km/h (1 Bft) SW 215 0 min 0,000 mm 0,0 UV-I 0 W/m 0,6 C 4,1 C 4,8 km/h (1 Bft)
06.02.2019 18:46 4,1 C 2,8 C 1,7 C 78 % 1022,5 hPa 0,0 l/m 1,8 km/h (1 Bft) S-SW 204 0 min 0,000 mm 0,0 UV-I 0 W/m 0,6 C 4,1 C 4,8 km/h (1 Bft)
06.02.2019 18:48 4,0 C 2,2 C 1,7 C 78 % 1022,5 hPa 0,0 l/m 1,8 km/h (1 Bft) S-SW 212 0 min 0,000 mm 0,0 UV-I 0 W/m 0,5 C 4,0 C 8,0 km/h (2 Bft)
06.02.2019 18:50 3,9 C 2,2 C 1,7 C 78 % 1022,5 hPa 0,0 l/m 1,5 km/h (1 Bft) S-SW 212 0 min 0,000 mm 0,0 UV-I 0 W/m 0,4 C 3,9 C 4,8 km/h (1 Bft)
06.02.2019 18:52 3,9 C 2,2 C 1,7 C 78 % 1022,4 hPa 0,0 l/m 0,9 km/h (0 Bft) S-SW 212 0 min 0,000 mm 0,0 UV-I 0 W/m 0,4 C 3,9 C 4,8 km/h (1 Bft)
06.02.2019 18:54 3,9 C 2,2 C 1,7 C 79 % 1022,4 hPa 0,0 l/m 0,0 km/h (0 Bft) S-SW 212 0 min 0,000 mm 0,0 UV-I 0 W/m 0,6 C 3,9 C 1,6 km/h (1 Bft)
06.02.2019 18:56 3,8 C 2,2 C 1,7 C 79 % 1022,4 hPa 0,0 l/m 0,5 km/h (0 Bft) S-SW 212 0 min 0,000 mm 0,0 UV-I 0 W/m 0,5 C 3,8 C 4,8 km/h (1 Bft)
06.02.2019 18:58 3,8 C 2,2 C 1,7 C 79 % 1022,3 hPa 0,0 l/m 1,5 km/h (1 Bft) S-SW 212 0 min 0,000 mm 0,0 UV-I 0 W/m 0,5 C 3,8 C 4,8 km/h (1 Bft)
06.02.2019 19:00 3,7 C 2,2 C 1,7 C 79 % 1022,3 hPa 0,0 l/m 2,7 km/h (1 Bft) S-SW 211 0 min 0,000 mm 0,0 UV-I 0 W/m 0,4 C 3,7 C 6,4 km/h (2 Bft)
06.02.2019 19:02 3,6 C 2,2 C 1,7 C 79 % 1022,3 hPa 0,0 l/m 0,8 km/h (0 Bft) S-SW 213 0 min 0,000 mm 0,0 UV-I 0 W/m 0,3 C 3,6 C 3,2 km/h (1 Bft)
06.02.2019 19:04 3,6 C 1,7 C 1,7 C 79 % 1022,3 hPa 0,0 l/m 0,6 km/h (0 Bft) S-SW 212 0 min 0,000 mm 0,0 UV-I 0 W/m 0,3 C 3,6 C 3,2 km/h (1 Bft)
06.02.2019 19:06 3,6 C 1,7 C 1,7 C 80 % 1022,3 hPa 0,0 l/m 0,6 km/h (0 Bft) S-SW 212 0 min 0,000 mm 0,0 UV-I 0 W/m 0,5 C 3,6 C 4,8 km/h (1 Bft)
06.02.2019 19:08 3,6 C 1,7 C 1,7 C 80 % 1022,4 hPa 0,0 l/m 2,9 km/h (1 Bft) S-SW 208 0 min 0,000 mm 0,0 UV-I 0 W/m 0,5 C 3,6 C 8,0 km/h (2 Bft)
06.02.2019 19:10 3,5 C 1,7 C 1,7 C 80 % 1022,3 hPa 0,0 l/m 1,5 km/h (1 Bft) S-SW 193 0 min 0,000 mm 0,0 UV-I 0 W/m 0,4 C 3,5 C 6,4 km/h (2 Bft)
06.02.2019 19:12 3,5 C 1,7 C 1,7 C 80 % 1022,3 hPa 0,0 l/m 3,4 km/h (1 Bft) S-SW 195 0 min 0,000 mm 0,0 UV-I 0 W/m 0,4 C 3,5 C 6,4 km/h (2 Bft)
06.02.2019 19:14 3,5 C 1,7 C 1,7 C 80 % 1022,3 hPa 0,0 l/m 1,8 km/h (1 Bft) S-SW 196 0 min 0,000 mm 0,0 UV-I 0 W/m 0,4 C 3,5 C 6,4 km/h (2 Bft)
06.02.2019 19:16 3,5 C 1,7 C 1,7 C 80 % 1022,3 hPa 0,0 l/m 0,2 km/h (0 Bft) S-SW 196 0 min 0,000 mm 0,0 UV-I 0 W/m 0,4 C 3,5 C 3,2 km/h (1 Bft)
06.02.2019 19:18 3,4 C 1,7 C 1,7 C 80 % 1022,3 hPa 0,0 l/m 0,0 km/h (0 Bft) S-SW 196 0 min 0,000 mm 0,0 UV-I 0 W/m 0,3 C 3,4 C 0,0 km/h (0 Bft)
06.02.2019 19:20 3,4 C 1,1 C 1,7 C 80 % 1022,3 hPa 0,0 l/m 0,4 km/h (0 Bft) S-SW 196 0 min 0,000 mm 0,0 UV-I 0 W/m 0,3 C 3,4 C 3,2 km/h (1 Bft)
06.02.2019 19:22 3,3 C 1,1 C 1,7 C 80 % 1022,2 hPa 0,0 l/m 0,0 km/h (0 Bft) S-SW 196 0 min 0,000 mm 0,0 UV-I 0 W/m 0,2 C 3,3 C 0,0 km/h (0 Bft)
06.02.2019 19:24 3,3 C 1,1 C 1,7 C 80 % 1022,2 hPa 0,0 l/m 0,0 km/h (0 Bft) S-SW 196 0 min 0,000 mm 0,0 UV-I 0 W/m 0,2 C 3,3 C 0,0 km/h (0 Bft)
06.02.2019 19:26 3,3 C 1,1 C 1,7 C 80 % 1022,1 hPa 0,0 l/m 0,3 km/h (0 Bft) S-SW 196 0 min 0,000 mm 0,0 UV-I 0 W/m 0,2 C 3,3 C 3,2 km/h (1 Bft)
06.02.2019 19:28 3,2 C 0,6 C 1,7 C 81 % 1022,1 hPa 0,0 l/m 0,1 km/h (0 Bft) S-SW 196 0 min 0,000 mm 0,0 UV-I 0 W/m 0,3 C 3,2 C 1,6 km/h (1 Bft)
06.02.2019 19:30 3,2 C 0,6 C 1,7 C 80 % 1022,1 hPa 0,0 l/m 0,9 km/h (0 Bft) S-SW 197 0 min 0,000 mm 0,0 UV-I 0 W/m 0,1 C 3,2 C 4,8 km/h (1 Bft)
06.02.2019 19:32 3,2 C 0,6 C 1,7 C 81 % 1022,1 hPa 0,0 l/m 0,0 km/h (0 Bft) S-SW 197 0 min 0,000 mm 0,0 UV-I 0 W/m 0,3 C 3,2 C 1,6 km/h (1 Bft)
06.02.2019 19:34 3,1 C 0,6 C 1,7 C 81 % 1022,1 hPa 0,0 l/m 0,0 km/h (0 Bft) S-SW 197 0 min 0,000 mm 0,0 UV-I 0 W/m 0,2 C 3,1 C 1,6 km/h (1 Bft)
06.02.2019 19:36 3,1 C 0,0 C 1,7 C 81 % 1022,2 hPa 0,0 l/m 0,4 km/h (0 Bft) S-SW 197 0 min 0,000 mm 0,0 UV-I 0 W/m 0,2 C 3,1 C 4,8 km/h (1 Bft)
06.02.2019 19:38 3,1 C 0,0 C 1,7 C 81 % 1022,1 hPa 0,0 l/m 1,7 km/h (1 Bft) S-SW 198 0 min 0,000 mm 0,0 UV-I 0 W/m 0,2 C 3,1 C 6,4 km/h (2 Bft)
06.02.2019 19:40 3,1 C 0,6 C 1,7 C 81 % 1022,0 hPa 0,0 l/m 0,7 km/h (0 Bft) S-SW 198 0 min 0,000 mm 0,0 UV-I 0 W/m 0,2 C 3,1 C 4,8 km/h (1 Bft)
06.02.2019 19:42 3,1 C 0,6 C 1,7 C 81 % 1022,0 hPa 0,0 l/m 0,9 km/h (0 Bft) S-SW 198 0 min 0,000 mm 0,0 UV-I 0 W/m 0,2 C 3,1 C 3,2 km/h (1 Bft)
06.02.2019 19:44 3,0 C 0,6 C 1,7 C 81 % 1022,0 hPa 0,0 l/m 1,2 km/h (1 Bft) S-SW 210 0 min 0,000 mm 0,0 UV-I 0 W/m 0,1 C 3,0 C 6,4 km/h (2 Bft)
06.02.2019 19:46 2,9 C 0,0 C 1,7 C 81 % 1022,0 hPa 0,0 l/m 0,8 km/h (0 Bft) S-SW 210 0 min 0,000 mm 0,0 UV-I 0 W/m -0,0 C 2,9 C 6,4 km/h (2 Bft)
06.02.2019 19:48 3,0 C 0,0 C 1,7 C 81 % 1022,0 hPa 0,0 l/m 2,5 km/h (1 Bft) S-SW 207 0 min 0,000 mm 0,0 UV-I 0 W/m 0,1 C 3,0 C 9,7 km/h (2 Bft)
06.02.2019 19:50 3,1 C 1,1 C 1,7 C 81 % 1022,0 hPa 0,0 l/m 2,1 km/h (1 Bft) S-SW 211 0 min 0,000 mm 0,0 UV-I 0 W/m 0,2 C 3,1 C 6,4 km/h (2 Bft)
06.02.2019 19:52 3,1 C 1,1 C 1,7 C 81 % 1022,0 hPa 0,0 l/m 2,9 km/h (1 Bft) S-SW 206 0 min 0,000 mm 0,0 UV-I 0 W/m 0,2 C 3,1 C 8,0 km/h (2 Bft)
06.02.2019 19:54 3,1 C 1,7 C 1,7 C 81 % 1021,9 hPa 0,0 l/m 6,1 km/h (2 Bft) S-SW 211 0 min 0,000 mm 0,0 UV-I 0 W/m 0,2 C 1,5 C 12,9 km/h (3 Bft)
06.02.2019 19:56 3,2 C 1,7 C 1,7 C 81 % 1021,9 hPa 0,0 l/m 3,5 km/h (1 Bft) SW 226 0 min 0,000 mm 0,0 UV-I 0 W/m 0,3 C 3,2 C 8,0 km/h (2 Bft)
06.02.2019 19:58 3,2 C 2,2 C 1,7 C 81 % 1021,9 hPa 0,0 l/m 4,0 km/h (1 Bft) S-SW 204 0 min 0,000 mm 0,0 UV-I 0 W/m 0,3 C 3,2 C 8,0 km/h (2 Bft)
06.02.2019 20:00 3,3 C 2,2 C 1,7 C 80 % 1021,9 hPa 0,0 l/m 3,8 km/h (1 Bft) S-SW 213 0 min 0,000 mm 0,0 UV-I 0 W/m 0,2 C 3,3 C 8,0 km/h (2 Bft)
06.02.2019 20:02 3,3 C 2,2 C 1,7 C 80 % 1021,9 hPa 0,0 l/m 3,1 km/h (1 Bft) S-SW 213 0 min 0,000 mm 0,0 UV-I 0 W/m 0,2 C 3,3 C 8,0 km/h (2 Bft)
06.02.2019 20:04 3,3 C 2,2 C 1,7 C 80 % 1021,9 hPa 0,0 l/m 0,4 km/h (0 Bft) SW 215 0 min 0,000 mm 0,0 UV-I 0 W/m 0,2 C 3,3 C 3,2 km/h (1 Bft)
06.02.2019 20:06 3,3 C 2,2 C 1,7 C 80 % 1022,0 hPa 0,0 l/m 1,2 km/h (1 Bft) S-SW 206 0 min 0,000 mm 0,0 UV-I 0 W/m 0,2 C 3,3 C 9,7 km/h (2 Bft)
06.02.2019 20:08 3,4 C 2,2 C 1,7 C 79 % 1021,9 hPa 0,0 l/m 3,2 km/h (1 Bft) SW 217 0 min 0,000 mm 0,0 UV-I 0 W/m 0,1 C 3,4 C 8,0 km/h (2 Bft)
06.02.2019 20:10 3,4 C 2,2 C 1,7 C 79 % 1021,9 hPa 0,0 l/m 3,8 km/h (1 Bft) SW 214 0 min 0,000 mm 0,0 UV-I 0 W/m 0,1 C 3,4 C 8,0 km/h (2 Bft)
06.02.2019 20:12 3,4 C 2,2 C 1,7 C 79 % 1021,8 hPa 0,0 l/m 1,3 km/h (1 Bft) S-SW 210 0 min 0,000 mm 0,0 UV-I 0 W/m 0,1 C 3,4 C 4,8 km/h (1 Bft)
06.02.2019 20:14 3,4 C 2,2 C 1,7 C 79 % 1021,8 hPa 0,0 l/m 1,8 km/h (1 Bft) S-SW 209 0 min 0,000 mm 0,0 UV-I 0 W/m 0,1 C 3,4 C 8,0 km/h (2 Bft)
06.02.2019 20:16 3,4 C 2,2 C 1,7 C 79 % 1021,8 hPa 0,0 l/m 4,1 km/h (1 Bft) SW 226 0 min 0,000 mm 0,0 UV-I 0 W/m 0,1 C 3,4 C 11,3 km/h (2 Bft)
06.02.2019 20:18 3,4 C 2,2 C 1,7 C 79 % 1021,8 hPa 0,0 l/m 1,6 km/h (1 Bft) S-SW 208 0 min 0,000 mm 0,0 UV-I 0 W/m 0,1 C 3,4 C 4,8 km/h (1 Bft)
06.02.2019 20:20 3,4 C 2,2 C 1,7 C 79 % 1021,8 hPa 0,0 l/m 4,9 km/h (1 Bft) S-SW 208 0 min 0,000 mm 0,0 UV-I 0 W/m 0,1 C 2,3 C 8,0 km/h (2 Bft)
06.02.2019 20:22 3,4 C 2,2 C 1,7 C 79 % 1021,8 hPa 0,0 l/m 4,5 km/h (1 Bft) SW 215 0 min 0,000 mm 0,0 UV-I 0 W/m 0,1 C 3,4 C 9,7 km/h (2 Bft)
06.02.2019 20:24 3,4 C 2,2 C 1,7 C 79 % 1021,8 hPa 0,0 l/m 5,2 km/h (1 Bft) S-SW 211 0 min 0,000 mm 0,0 UV-I 0 W/m 0,1 C 2,2 C 11,3 km/h (2 Bft)
06.02.2019 20:26 3,4 C 2,2 C 1,7 C 79 % 1021,8 hPa 0,0 l/m 3,6 km/h (1 Bft) SW 223 0 min 0,000 mm 0,0 UV-I 0 W/m 0,1 C 3,4 C 11,3 km/h (2 Bft)
06.02.2019 20:28 3,3 C 2,2 C 1,7 C 79 % 1021,8 hPa 0,0 l/m 1,3 km/h (1 Bft) SW 222 0 min 0,000 mm 0,0 UV-I 0 W/m 0,0 C 3,3 C 6,4 km/h (2 Bft)
06.02.2019 20:30 3,3 C 2,2 C 1,7 C 79 % 1021,7 hPa 0,0 l/m 2,7 km/h (1 Bft) SW 228 0 min 0,000 mm 0,0 UV-I 0 W/m 0,0 C 3,3 C 9,7 km/h (2 Bft)
06.02.2019 20:32 3,4 C 2,2 C 1,7 C 79 % 1021,8 hPa 0,0 l/m 4,8 km/h (1 Bft) SW 217 0 min 0,000 mm 0,0 UV-I 0 W/m 0,1 C 2,4 C 9,7 km/h (2 Bft)
06.02.2019 20:34 3,4 C 2,2 C 1,7 C 79 % 1021,8 hPa 0,0 l/m 5,3 km/h (1 Bft) SW 214 0 min 0,000 mm 0,0 UV-I 0 W/m 0,1 C 2,1 C 9,7 km/h (2 Bft)
06.02.2019 20:36 3,4 C 2,2 C 1,7 C 79 % 1021,8 hPa 0,0 l/m 6,2 km/h (2 Bft) SW 222 0 min 0,000 mm 0,0 UV-I 0 W/m 0,1 C 1,8 C 12,9 km/h (3 Bft)
06.02.2019 20:38 3,3 C 2,2 C 1,7 C 79 % 1021,8 hPa 0,0 l/m 1,7 km/h (1 Bft) SW 217 0 min 0,000 mm 0,0 UV-I 0 W/m 0,0 C 3,3 C 6,4 km/h (2 Bft)
06.02.2019 20:40 3,3 C 2,2 C 1,7 C 79 % 1021,8 hPa 0,0 l/m 3,6 km/h (1 Bft) W-SW 242 0 min 0,000 mm 0,0 UV-I 0 W/m 0,0 C 3,3 C 8,0 km/h (2 Bft)
06.02.2019 20:42 3,2 C 2,2 C 1,7 C 79 % 1021,8 hPa 0,0 l/m 4,8 km/h (1 Bft) S-SW 210 0 min 0,000 mm 0,0 UV-I 0 W/m -0,1 C 2,1 C 9,7 km/h (2 Bft)
06.02.2019 20:44 3,2 C 2,2 C 1,7 C 79 % 1021,7 hPa 0,0 l/m 0,7 km/h (0 Bft) S-SW 210 0 min 0,000 mm 0,0 UV-I 0 W/m -0,1 C 3,2 C 4,8 km/h (1 Bft)
06.02.2019 20:46 3,1 C 1,7 C 1,7 C 79 % 1021,8 hPa 0,0 l/m 3,6 km/h (1 Bft) S-SW 212 0 min 0,000 mm 0,0 UV-I 0 W/m -0,2 C 3,1 C 6,4 km/h (2 Bft)
06.02.2019 20:48 3,1 C 1,7 C 1,7 C 79 % 1021,7 hPa 0,0 l/m 0,5 km/h (0 Bft) S-SW 211 0 min 0,000 mm 0,0 UV-I 0 W/m -0,2 C 3,1 C 3,2 km/h (1 Bft)
06.02.2019 20:50 3,0 C 1,7 C 1,7 C 80 % 1021,7 hPa 0,0 l/m 2,1 km/h (1 Bft) S-SW 200 0 min 0,000 mm 0,0 UV-I 0 W/m -0,1 C 3,0 C 8,0 km/h (2 Bft)
06.02.2019 20:52 2,9 C 1,7 C 1,7 C 80 % 1021,7 hPa 0,0 l/m 3,4 km/h (1 Bft) S-SW 204 0 min 0,000 mm 0,0 UV-I 0 W/m -0,2 C 2,9 C 6,4 km/h (2 Bft)
06.02.2019 20:54 2,9 C 1,7 C 1,7 C 80 % 1021,6 hPa 0,0 l/m 2,5 km/h (1 Bft) S-SW 206 0 min 0,000 mm 0,0 UV-I 0 W/m -0,2 C 2,9 C 8,0 km/h (2 Bft)
06.02.2019 20:56 2,8 C 1,7 C 1,7 C 80 % 1021,6 hPa 0,0 l/m 3,8 km/h (1 Bft) S-SW 207 0 min 0,000 mm 0,0 UV-I 0 W/m -0,3 C 2,8 C 9,7 km/h (2 Bft)
06.02.2019 20:58 2,8 C 1,7 C 1,7 C 80 % 1021,6 hPa 0,0 l/m 5,1 km/h (1 Bft) SW 215 0 min 0,000 mm 0,0 UV-I 0 W/m -0,3 C 1,5 C 11,3 km/h (2 Bft)
06.02.2019 21:00 2,8 C 1,7 C 1,7 C 80 % 1021,6 hPa 0,0 l/m 4,4 km/h (1 Bft) S-SW 211 0 min 0,000 mm 0,0 UV-I 0 W/m -0,3 C 2,8 C 9,7 km/h (2 Bft)
06.02.2019 21:02 2,8 C 1,7 C 1,7 C 80 % 1021,5 hPa 0,0 l/m 4,6 km/h (1 Bft) W-SW 238 0 min 0,000 mm 0,0 UV-I 0 W/m -0,3 C 1,8 C 11,3 km/h (2 Bft)
06.02.2019 21:04 2,8 C 1,7 C 1,7 C 80 % 1021,6 hPa 0,0 l/m 4,5 km/h (1 Bft) S-SW 204 0 min 0,000 mm 0,0 UV-I 0 W/m -0,3 C 2,8 C 14,5 km/h (3 Bft)
06.02.2019 21:06 2,7 C 1,7 C 1,7 C 81 % 1021,5 hPa 0,0 l/m 5,8 km/h (2 Bft) S-SW 206 0 min 0,000 mm 0,0 UV-I 0 W/m -0,2 C 1,2 C 12,9 km/h (3 Bft)
06.02.2019 21:08 2,7 C 1,7 C 1,7 C 81 % 1021,5 hPa 0,0 l/m 7,7 km/h (2 Bft) SW 229 0 min 0,000 mm 0,0 UV-I 0 W/m -0,2 C 0,5 C 14,5 km/h (3 Bft)
06.02.2019 21:10 2,7 C 1,7 C 1,7 C 81 % 1021,5 hPa 0,0 l/m 6,7 km/h (2 Bft) S-SW 202 0 min 0,000 mm 0,0 UV-I 0 W/m -0,2 C 0,8 C 12,9 km/h (3 Bft)
06.02.2019 21:12 2,7 C 1,7 C 1,7 C 81 % 1021,4 hPa 0,0 l/m 5,3 km/h (1 Bft) S-SW 210 0 min 0,000 mm 0,0 UV-I 0 W/m -0,2 C 1,3 C 12,9 km/h (3 Bft)
06.02.2019 21:14 2,6 C 1,7 C 1,7 C 81 % 1021,4 hPa 0,0 l/m 5,4 km/h (2 Bft) SW 222 0 min 0,000 mm 0,0 UV-I 0 W/m -0,3 C 1,2 C 9,7 km/h (2 Bft)
06.02.2019 21:16 2,6 C 1,7 C 1,7 C 81 % 1021,3 hPa 0,0 l/m 4,8 km/h (1 Bft) S-SW 194 0 min 0,000 mm 0,0 UV-I 0 W/m -0,3 C 1,4 C 11,3 km/h (2 Bft)
06.02.2019 21:18 2,6 C 1,1 C 1,7 C 81 % 1021,3 hPa 0,0 l/m 5,2 km/h (1 Bft) S-SW 213 0 min 0,000 mm 0,0 UV-I 0 W/m -0,3 C 1,3 C 11,3 km/h (2 Bft)
06.02.2019 21:20 2,5 C 1,1 C 1,7 C 81 % 1021,3 hPa 0,0 l/m 2,5 km/h (1 Bft) S 191 0 min 0,000 mm 0,0 UV-I 0 W/m -0,4 C 2,5 C 9,7 km/h (2 Bft)
06.02.2019 21:22 2,5 C 1,1 C 1,7 C 81 % 1021,3 hPa 0,0 l/m 5,0 km/h (1 Bft) SW 216 0 min 0,000 mm 0,0 UV-I 0 W/m -0,4 C 1,2 C 11,3 km/h (2 Bft)
06.02.2019 21:24 2,4 C 1,1 C 1,7 C 81 % 1021,3 hPa 0,0 l/m 2,4 km/h (1 Bft) S-SW 206 0 min 0,000 mm 0,0 UV-I 0 W/m -0,5 C 2,4 C 8,0 km/h (2 Bft)
06.02.2019 21:26 2,4 C 1,1 C 1,7 C 81 % 1021,4 hPa 0,0 l/m 1,3 km/h (1 Bft) S-SW 212 0 min 0,000 mm 0,0 UV-I 0 W/m -0,5 C 2,4 C 4,8 km/h (1 Bft)
06.02.2019 21:28 2,3 C 1,1 C 1,7 C 81 % 1021,4 hPa 0,0 l/m 1,7 km/h (1 Bft) SW 228 0 min 0,000 mm 0,0 UV-I 0 W/m -0,6 C 2,3 C 9,7 km/h (2 Bft)
06.02.2019 21:30 2,3 C 0,6 C 1,7 C 82 % 1021,4 hPa 0,0 l/m 1,0 km/h (0 Bft) SW 215 0 min 0,000 mm 0,0 UV-I 0 W/m -0,4 C 2,3 C 6,4 km/h (2 Bft)
06.02.2019 21:32 2,2 C 0,6 C 1,7 C 82 % 1021,4 hPa 0,0 l/m 3,3 km/h (1 Bft) S-SW 213 0 min 0,000 mm 0,0 UV-I 0 W/m -0,5 C 2,2 C 6,4 km/h (2 Bft)
06.02.2019 21:34 2,1 C 0,6 C 1,7 C 82 % 1021,3 hPa 0,0 l/m 2,2 km/h (1 Bft) S-SW 202 0 min 0,000 mm 0,0 UV-I 0 W/m -0,6 C 2,1 C 8,0 km/h (2 Bft)
06.02.2019 21:36 2,1 C 0,6 C 1,7 C 82 % 1021,3 hPa 0,0 l/m 0,5 km/h (0 Bft) S-SW 202 0 min 0,000 mm 0,0 UV-I 0 W/m -0,6 C 2,1 C 3,2 km/h (1 Bft)
06.02.2019 21:38 2,0 C 0,0 C 1,7 C 82 % 1021,3 hPa 0,0 l/m 1,6 km/h (1 Bft) S-SW 205 0 min 0,000 mm 0,0 UV-I 0 W/m -0,7 C 2,0 C 4,8 km/h (1 Bft)
06.02.2019 21:40 2,0 C 0,0 C 1,7 C 82 % 1021,3 hPa 0,0 l/m 0,0 km/h (0 Bft) S-SW 205 0 min 0,000 mm 0,0 UV-I 0 W/m -0,7 C 2,0 C 0,0 km/h (0 Bft)
06.02.2019 21:42 1,9 C 0,0 C 1,7 C 82 % 1021,2 hPa 0,0 l/m 1,5 km/h (1 Bft) S-SW 205 0 min 0,000 mm 0,0 UV-I 0 W/m -0,8 C 1,9 C 4,8 km/h (1 Bft)
06.02.2019 21:44 1,8 C 0,0 C 1,7 C 83 % 1021,3 hPa 0,0 l/m 0,3 km/h (0 Bft) S-SW 205 0 min 0,000 mm 0,0 UV-I 0 W/m -0,8 C 1,8 C 3,2 km/h (1 Bft)
06.02.2019 21:46 1,7 C 0,0 C 1,7 C 83 % 1021,2 hPa 0,0 l/m 0,8 km/h (0 Bft) S-SW 205 0 min 0,000 mm 0,0 UV-I 0 W/m -0,9 C 1,7 C 6,4 km/h (2 Bft)
06.02.2019 21:48 1,7 C -0,6 C 1,7 C 83 % 1021,2 hPa 0,0 l/m 0,1 km/h (0 Bft) S-SW 205 0 min 0,000 mm 0,0 UV-I 0 W/m -0,9 C 1,7 C 3,2 km/h (1 Bft)
06.02.2019 21:50 1,6 C -0,6 C 1,7 C 83 % 1021,2 hPa 0,0 l/m 0,2 km/h (0 Bft) S-SW 205 0 min 0,000 mm 0,0 UV-I 0 W/m -1,0 C 1,6 C 3,2 km/h (1 Bft)
06.02.2019 21:52 1,6 C -0,6 C 1,7 C 83 % 1021,2 hPa 0,0 l/m 0,0 km/h (0 Bft) S-SW 205 0 min 0,000 mm 0,0 UV-I 0 W/m -1,0 C 1,6 C 0,0 km/h (0 Bft)
06.02.2019 21:54 1,5 C -0,6 C 1,7 C 83 % 1021,3 hPa 0,0 l/m 0,0 km/h (0 Bft) S-SW 205 0 min 0,000 mm 0,0 UV-I 0 W/m -1,1 C 1,5 C 0,0 km/h (0 Bft)
06.02.2019 21:56 1,4 C -0,6 C 1,7 C 84 % 1021,4 hPa 0,0 l/m 0,0 km/h (0 Bft) S-SW 205 0 min 0,000 mm 0,0 UV-I 0 W/m -1,0 C 1,4 C 0,0 km/h (0 Bft)
06.02.2019 21:58 1,3 C -1,1 C 1,7 C 84 % 1021,3 hPa 0,0 l/m 0,0 km/h (0 Bft) S-SW 205 0 min 0,000 mm 0,0 UV-I 0 W/m -1,1 C 1,3 C 0,0 km/h (0 Bft)
06.02.2019 22:00 1,3 C -0,6 C 1,7 C 84 % 1021,4 hPa 0,0 l/m 0,0 km/h (0 Bft) S-SW 205 0 min 0,000 mm 0,0 UV-I 0 W/m -1,1 C 1,3 C 0,0 km/h (0 Bft)
06.02.2019 22:02 1,3 C -1,1 C 1,7 C 84 % 1021,4 hPa 0,0 l/m 0,0 km/h (0 Bft) S-SW 205 0 min 0,000 mm 0,0 UV-I 0 W/m -1,1 C 1,3 C 0,0 km/h (0 Bft)
06.02.2019 22:04 1,2 C -1,1 C 1,7 C 84 % 1021,4 hPa 0,0 l/m 0,0 km/h (0 Bft) S-SW 205 0 min 0,000 mm 0,0 UV-I 0 W/m -1,2 C 1,2 C 0,0 km/h (0 Bft)
06.02.2019 22:06 1,1 C -1,1 C 1,7 C 84 % 1021,3 hPa 0,0 l/m 0,0 km/h (0 Bft) S-SW 205 0 min 0,000 mm 0,0 UV-I 0 W/m -1,3 C 1,1 C 0,0 km/h (0 Bft)
06.02.2019 22:08 0,9 C -1,1 C 1,7 C 85 % 1021,3 hPa 0,0 l/m 0,0 km/h (0 Bft) S-SW 205 0 min 0,000 mm 0,0 UV-I 0 W/m -1,3 C 0,9 C 0,0 km/h (0 Bft)
06.02.2019 22:10 0,8 C -1,1 C 1,7 C 85 % 1021,3 hPa 0,0 l/m 0,0 km/h (0 Bft) S-SW 205 0 min 0,000 mm 0,0 UV-I 0 W/m -1,4 C 0,8 C 0,0 km/h (0 Bft)
06.02.2019 22:12 0,7 C -1,1 C 1,7 C 85 % 1021,3 hPa 0,0 l/m 0,0 km/h (0 Bft) S-SW 205 0 min 0,000 mm 0,0 UV-I 0 W/m -1,5 C 0,7 C 0,0 km/h (0 Bft)
06.02.2019 22:14 0,6 C -1,7 C 1,7 C 86 % 1021,2 hPa 0,0 l/m 0,0 km/h (0 Bft) S-SW 205 0 min 0,000 mm 0,0 UV-I 0 W/m -1,5 C 0,6 C 0,0 km/h (0 Bft)
06.02.2019 22:16 0,6 C -1,7 C 1,7 C 86 % 1021,2 hPa 0,0 l/m 0,5 km/h (0 Bft) S-SW 205 0 min 0,000 mm 0,0 UV-I 0 W/m -1,5 C 0,6 C 3,2 km/h (1 Bft)
06.02.2019 22:18 0,6 C -2,2 C 1,7 C 86 % 1021,2 hPa 0,0 l/m 1,1 km/h (1 Bft) S-SW 205 0 min 0,000 mm 0,0 UV-I 0 W/m -1,5 C 0,6 C 4,8 km/h (1 Bft)
06.02.2019 22:20 0,7 C -2,2 C 1,7 C 86 % 1021,1 hPa 0,0 l/m 1,9 km/h (1 Bft) S-SW 205 0 min 0,000 mm 0,0 UV-I 0 W/m -1,4 C 0,7 C 6,4 km/h (2 Bft)
06.02.2019 22:22 0,8 C -1,7 C 1,7 C 86 % 1021,1 hPa 0,0 l/m 3,2 km/h (1 Bft) S-SW 205 0 min 0,000 mm 0,0 UV-I 0 W/m -1,3 C 0,8 C 8,0 km/h (2 Bft)
06.02.2019 22:24 0,9 C -1,1 C 1,7 C 85 % 1021,0 hPa 0,0 l/m 3,5 km/h (1 Bft) S-SW 213 0 min 0,000 mm 0,0 UV-I 0 W/m -1,3 C 0,9 C 8,0 km/h (2 Bft)
06.02.2019 22:26 0,9 C -1,1 C 1,7 C 85 % 1021,0 hPa 0,0 l/m 5,4 km/h (2 Bft) SW 229 0 min 0,000 mm 0,0 UV-I 0 W/m -1,3 C -0,7 C 12,9 km/h (3 Bft)
06.02.2019 22:28 1,1 C -0,6 C 1,7 C 84 % 1021,0 hPa 0,0 l/m 3,9 km/h (1 Bft) SW 225 0 min 0,000 mm 0,0 UV-I 0 W/m -1,3 C 1,1 C 11,3 km/h (2 Bft)
06.02.2019 22:30 1,2 C 0,0 C 1,7 C 83 % 1020,9 hPa 0,0 l/m 6,6 km/h (2 Bft) SW 221 0 min 0,000 mm 0,0 UV-I 0 W/m -1,4 C -0,9 C 14,5 km/h (3 Bft)
06.02.2019 22:32 1,3 C 0,0 C 1,7 C 82 % 1020,9 hPa 0,0 l/m 6,4 km/h (2 Bft) S-SW 213 0 min 0,000 mm 0,0 UV-I 0 W/m -1,4 C -0,7 C 11,3 km/h (2 Bft)
06.02.2019 22:34 1,3 C 0,0 C 1,7 C 82 % 1020,9 hPa 0,0 l/m 5,5 km/h (2 Bft) SW 215 0 min 0,000 mm 0,0 UV-I 0 W/m -1,4 C -0,3 C 12,9 km/h (3 Bft)
06.02.2019 22:36 1,3 C 0,0 C 1,7 C 81 % 1020,8 hPa 0,0 l/m 6,2 km/h (2 Bft) SW 215 0 min 0,000 mm 0,0 UV-I 0 W/m -1,6 C -0,6 C 14,5 km/h (3 Bft)
06.02.2019 22:38 1,4 C 0,0 C 1,7 C 81 % 1020,8 hPa 0,0 l/m 4,3 km/h (1 Bft) S-SW 201 0 min 0,000 mm 0,0 UV-I 0 W/m -1,5 C 1,4 C 8,0 km/h (2 Bft)
06.02.2019 22:40 1,4 C 0,0 C 1,7 C 80 % 1020,8 hPa 0,0 l/m 3,8 km/h (1 Bft) SW 219 0 min 0,000 mm 0,0 UV-I 0 W/m -1,7 C 1,4 C 9,7 km/h (2 Bft)
06.02.2019 22:42 1,4 C 0,0 C 1,7 C 80 % 1020,8 hPa 0,0 l/m 2,7 km/h (1 Bft) S-SW 200 0 min 0,000 mm 0,0 UV-I 0 W/m -1,7 C 1,4 C 6,4 km/h (2 Bft)
06.02.2019 22:44 1,4 C 0,0 C 1,7 C 79 % 1021,0 hPa 0,0 l/m 3,0 km/h (1 Bft) S-SW 199 0 min 0,000 mm 0,0 UV-I 0 W/m -1,8 C 1,4 C 6,4 km/h (2 Bft)
06.02.2019 22:46 1,4 C 0,0 C 1,7 C 79 % 1020,9 hPa 0,0 l/m 2,6 km/h (1 Bft) S-SW 211 0 min 0,000 mm 0,0 UV-I 0 W/m -1,8 C 1,4 C 6,4 km/h (2 Bft)
06.02.2019 22:48 1,4 C -0,6 C 1,7 C 79 % 1020,9 hPa 0,0 l/m 2,7 km/h (1 Bft) S-SW 203 0 min 0,000 mm 0,0 UV-I 0 W/m -1,8 C 1,4 C 9,7 km/h (2 Bft)
06.02.2019 22:50 1,4 C 0,0 C 1,7 C 79 % 1020,9 hPa 0,0 l/m 1,1 km/h (1 Bft) S-SW 203 0 min 0,000 mm 0,0 UV-I 0 W/m -1,8 C 1,4 C 6,4 km/h (2 Bft)
06.02.2019 22:52 1,3 C -0,6 C 1,7 C 79 % 1020,8 hPa 0,0 l/m 3,8 km/h (1 Bft) S-SW 204 0 min 0,000 mm 0,0 UV-I 0 W/m -1,9 C 1,3 C 6,4 km/h (2 Bft)
06.02.2019 22:54 1,2 C -0,6 C 1,7 C 79 % 1020,8 hPa 0,0 l/m 3,0 km/h (1 Bft) S-SW 200 0 min 0,000 mm 0,0 UV-I 0 W/m -2,0 C 1,2 C 8,0 km/h (2 Bft)
06.02.2019 22:56 1,2 C -0,6 C 1,7 C 79 % 1020,8 hPa 0,0 l/m 4,4 km/h (1 Bft) S-SW 202 0 min 0,000 mm 0,0 UV-I 0 W/m -2,0 C 1,2 C 9,7 km/h (2 Bft)
06.02.2019 22:58 1,2 C -0,6 C 1,7 C 79 % 1020,7 hPa 0,0 l/m 4,5 km/h (1 Bft) S-SW 208 0 min 0,000 mm 0,0 UV-I 0 W/m -2,0 C 1,2 C 9,7 km/h (2 Bft)
06.02.2019 23:00 1,2 C -0,6 C 1,7 C 79 % 1020,7 hPa 0,0 l/m 4,0 km/h (1 Bft) S-SW 211 0 min 0,000 mm 0,0 UV-I 0 W/m -2,0 C 1,2 C 11,3 km/h (2 Bft)
06.02.2019 23:02 1,2 C -0,6 C 1,7 C 79 % 1020,7 hPa 0,0 l/m 2,9 km/h (1 Bft) S-SW 209 0 min 0,000 mm 0,0 UV-I 0 W/m -2,0 C 1,2 C 6,4 km/h (2 Bft)
06.02.2019 23:04 1,1 C -0,6 C 1,7 C 79 % 1020,7 hPa 0,0 l/m 2,3 km/h (1 Bft) S-SW 205 0 min 0,000 mm 0,0 UV-I 0 W/m -2,1 C 1,1 C 6,4 km/h (2 Bft)
06.02.2019 23:06 1,1 C -0,6 C 1,1 C 79 % 1020,7 hPa 0,0 l/m 3,1 km/h (1 Bft) S-SW 205 0 min 0,000 mm 0,0 UV-I 0 W/m -2,1 C 1,1 C 6,4 km/h (2 Bft)
06.02.2019 23:08 1,0 C -1,1 C 1,7 C 79 % 1020,6 hPa 0,0 l/m 2,3 km/h (1 Bft) S-SW 205 0 min 0,000 mm 0,0 UV-I 0 W/m -2,2 C 1,0 C 6,4 km/h (2 Bft)
06.02.2019 23:10 0,9 C -1,1 C 1,1 C 79 % 1020,6 hPa 0,0 l/m 0,6 km/h (0 Bft) S-SW 205 0 min 0,000 mm 0,0 UV-I 0 W/m -2,3 C 0,9 C 4,8 km/h (1 Bft)
06.02.2019 23:12 0,8 C -1,7 C 1,7 C 79 % 1020,6 hPa 0,0 l/m 0,1 km/h (0 Bft) S-SW 205 0 min 0,000 mm 0,0 UV-I 0 W/m -2,4 C 0,8 C 1,6 km/h (1 Bft)
06.02.2019 23:14 0,8 C -1,7 C 1,7 C 79 % 1020,5 hPa 0,0 l/m 0,0 km/h (0 Bft) S-SW 205 0 min 0,000 mm 0,0 UV-I 0 W/m -2,4 C 0,8 C 0,0 km/h (0 Bft)
06.02.2019 23:16 0,7 C -2,2 C 1,7 C 79 % 1020,5 hPa 0,0 l/m 0,0 km/h (0 Bft) S-SW 205 0 min 0,000 mm 0,0 UV-I 0 W/m -2,5 C 0,7 C 0,0 km/h (0 Bft)
06.02.2019 23:18 0,7 C -2,2 C 1,1 C 80 % 1020,5 hPa 0,0 l/m 0,0 km/h (0 Bft) S-SW 205 0 min 0,000 mm 0,0 UV-I 0 W/m -2,3 C 0,7 C 0,0 km/h (0 Bft)
06.02.2019 23:20 0,5 C -2,2 C 1,7 C 80 % 1020,5 hPa 0,0 l/m 0,0 km/h (0 Bft) S-SW 205 0 min 0,000 mm 0,0 UV-I 0 W/m -2,5 C 0,5 C 0,0 km/h (0 Bft)
06.02.2019 23:22 0,3 C -2,2 C 1,1 C 81 % 1020,5 hPa 0,0 l/m 0,0 km/h (0 Bft) S-SW 205 0 min 0,000 mm 0,0 UV-I 0 W/m -2,6 C 0,3 C 0,0 km/h (0 Bft)
06.02.2019 23:24 0,2 C -2,2 C 1,7 C 81 % 1020,4 hPa 0,0 l/m 0,0 km/h (0 Bft) S-SW 205 0 min 0,000 mm 0,0 UV-I 0 W/m -2,7 C 0,2 C 0,0 km/h (0 Bft)
06.02.2019 23:26 0,1 C -2,8 C 1,7 C 81 % 1020,5 hPa 0,0 l/m 0,0 km/h (0 Bft) S-SW 205 0 min 0,000 mm 0,0 UV-I 0 W/m -2,8 C 0,1 C 0,0 km/h (0 Bft)
06.02.2019 23:28 0,0 C -2,8 C 1,1 C 82 % 1020,5 hPa 0,0 l/m 0,0 km/h (0 Bft) S-SW 205 0 min 0,000 mm 0,0 UV-I 0 W/m -2,7 C 0,0 C 0,0 km/h (0 Bft)
06.02.2019 23:30 -0,1 C -2,8 C 1,7 C 82 % 1020,5 hPa 0,0 l/m 0,0 km/h (0 Bft) S-SW 205 0 min 0,000 mm 0,0 UV-I 0 W/m -2,8 C -0,1 C 0,0 km/h (0 Bft)
06.02.2019 23:32 -0,2 C -2,8 C 1,1 C 83 % 1020,6 hPa 0,0 l/m 0,0 km/h (0 Bft) S-SW 205 0 min 0,000 mm 0,0 UV-I 0 W/m -2,7 C -0,2 C 0,0 km/h (0 Bft)
06.02.2019 23:34 -0,1 C -2,8 C 1,7 C 83 % 1020,7 hPa 0,0 l/m 0,0 km/h (0 Bft) S-SW 205 0 min 0,000 mm 0,0 UV-I 0 W/m -2,6 C -0,1 C 0,0 km/h (0 Bft)
06.02.2019 23:36 0,0 C -2,8 C 1,7 C 83 % 1020,8 hPa 0,0 l/m 0,0 km/h (0 Bft) S-SW 205 0 min 0,000 mm 0,0 UV-I 0 W/m -2,5 C 0,0 C 0,0 km/h (0 Bft)
06.02.2019 23:38 0,1 C -2,2 C 1,7 C 83 % 1020,8 hPa 0,0 l/m 0,0 km/h (0 Bft) S-SW 205 0 min 0,000 mm 0,0 UV-I 0 W/m -2,4 C 0,1 C 0,0 km/h (0 Bft)
06.02.2019 23:40 0,0 C -2,2 C 1,1 C 82 % 1020,7 hPa 0,0 l/m 0,0 km/h (0 Bft) S-SW 205 0 min 0,000 mm 0,0 UV-I 0 W/m -2,7 C 0,0 C 0,0 km/h (0 Bft)
06.02.2019 23:42 -0,2 C -2,2 C 1,1 C 83 % 1020,7 hPa 0,0 l/m 0,0 km/h (0 Bft) S-SW 205 0 min 0,000 mm 0,0 UV-I 0 W/m -2,7 C -0,2 C 0,0 km/h (0 Bft)
06.02.2019 23:44 -0,4 C -2,8 C 1,7 C 83 % 1020,6 hPa 0,0 l/m 0,0 km/h (0 Bft) S-SW 205 0 min 0,000 mm 0,0 UV-I 0 W/m -2,9 C -0,4 C 0,0 km/h (0 Bft)
06.02.2019 23:46 -0,5 C -2,8 C 1,1 C 84 % 1020,6 hPa 0,0 l/m 0,0 km/h (0 Bft) S-SW 205 0 min 0,000 mm 0,0 UV-I 0 W/m -2,9 C -0,5 C 0,0 km/h (0 Bft)
06.02.2019 23:48 -0,6 C -2,8 C 1,7 C 84 % 1020,5 hPa 0,0 l/m 0,0 km/h (0 Bft) S-SW 205 0 min 0,000 mm 0,0 UV-I 0 W/m -3,0 C -0,6 C 0,0 km/h (0 Bft)
06.02.2019 23:50 -0,7 C -2,8 C 1,7 C 85 % 1020,5 hPa 0,0 l/m 0,0 km/h (0 Bft) S-SW 205 0 min 0,000 mm 0,0 UV-I 0 W/m -2,9 C -0,7 C 0,0 km/h (0 Bft)
06.02.2019 23:52 -0,6 C -2,8 C 1,7 C 85 % 1020,5 hPa 0,0 l/m 0,0 km/h (0 Bft) S-SW 205 0 min 0,000 mm 0,0 UV-I 0 W/m -2,8 C -0,6 C 0,0 km/h (0 Bft)
06.02.2019 23:54 -0,7 C -2,8 C 1,7 C 85 % 1020,4 hPa 0,0 l/m 0,0 km/h (0 Bft) S-SW 205 0 min 0,000 mm 0,0 UV-I 0 W/m -2,9 C -0,7 C 0,0 km/h (0 Bft)
06.02.2019 23:56 -0,7 C -2,8 C 1,1 C 85 % 1020,5 hPa 0,0 l/m 0,0 km/h (0 Bft) S-SW 205 0 min 0,000 mm 0,0 UV-I 0 W/m -2,9 C -0,7 C 0,0 km/h (0 Bft)
06.02.2019 23:58 -0,7 C -2,8 C 1,1 C 85 % 1020,4 hPa 0,0 l/m 0,0 km/h (0 Bft) S-SW 205 0 min 0,000 mm 0,0 UV-I 0 W/m -2,9 C -0,7 C 0,0 km/h (0 Bft)
_ Min-Zeit 07:00 06:50 23:58 13:52 23:58 - 23:58 - - - - - - 23:48 08:28 23:58
Minimum _ -1,5 C -3,9 C 1,1 C 68 % 1020,4 hPa - 0,0 km/h (0 Bft) - - - - - - -3,0 C -3,7 C 0,0 km/h (0 Bft)
_ Max-Zeit 13:46 13:44 15:44 08:54 01:40 23:58 11:10 - - 15:20 13:02 12:20 12:18 15:50 14:16 13:28
Maximum _ 7,1 C 10,6 C 2,2 C 92 % 1029,6 hPa 0,0 l/m 13,0 km/h
S (3 Bft)
- - 2 min 0,152 mm 1,3 UV-I 445 W/m 2,2 C 7,0 C 22,5 km/h
W-SW (4 Bft)
Durchschnitt _ 2,6 C 2,1 C 1,4 C 82 % 1025,5 hPa #0,0 l/m 3,3 km/h (1 Bft) S-SW - #5:44 h #0,762 mm 0,9 UV-I 182 W/m -0,3 C 2,1 C 8,3 km/h (2 Bft)